[[{"header":{"parameterUnit":"m.s-1","parameterCategory":1,"la1":31.0,"la2":29.5877,"lo1":-88.7671,"lo2":-86.6584,"dy":0.0162,"dx":0.0185,"nx":115,"ny":88,"refTime":"2026-05-09T00:00:00:Z","depth":0,"parameterNumber":2,"parameterNumberName":"U-component_of_WINDS"},"data":[0.0,0.0,0.0,0.0,0.0,0.0,0.0,0.0,0.0,0.0,0.0,0.0,0.0,0.0,0.0,0.0,0.0,0.0,0.0,0.0,0.0,0.0,0.0,0.0,0.0,0.0,0.0,0.0,0.0,0.0,0.0,0.0,0.0,0.0,0.0,0.0,0.0,0.0,0.0,0.0,0.0,0.0,0.0,0.0,0.0,0.0,0.0,0.0,0.0,0.0,0.0,0.0,0.0,0.0,0.0,0.0,0.0,0.0,0.0,0.0,0.0,0.0,0.0,0.0,0.0,0.0,0.0,0.0,0.0,0.0,0.0,0.0,0.0,0.0,0.0,0.0,0.0,0.0,0.0,0.0,0.0,0.0,0.0,0.0,0.0,0.0,0.0,0.0,0.0,0.0,0.0,0.0,0.0,0.0,0.0,0.0,0.0,0.0,0.0,0.0,0.0,0.0,0.0,0.0,0.0,0.0,0.0,0.0,0.0,0.0,0.0,0.0,0.0,0.0,0.0,0.0,0.0,0.0,0.0,0.0,0.0,0.0,0.0,0.0,0.0,0.0,0.0,0.0,0.0,0.0,0.0,0.0,0.0,0.0,0.0,0.0,0.0,0.0,0.0,0.0,0.0,0.0,0.0,0.0,0.0,0.0,0.0,0.0,0.0,0.0,0.0,0.0,0.0,0.0,0.0,0.0,0.0,0.0,0.0,0.0,0.0,0.0,0.0,0.0,0.0,0.0,0.0,0.0,0.0,0.0,0.0,0.0,0.0,0.0,0.0,0.0,0.0,0.0,0.0,0.0,0.0,0.0,0.0,0.0,0.0,0.0,0.0,0.0,0.0,0.0,0.0,0.0,0.0,0.0,0.0,0.0,0.0,0.0,0.0,0.0,0.0,0.0,0.0,0.0,0.0,0.0,0.0,0.0,0.0,0.0,0.0,0.0,0.0,0.0,0.0,0.0,0.0,0.0,0.0,0.0,0.0,0.0,0.0,0.0,0.0,0.0,0.0,0.0,0.0,0.0,0.0,0.0,0.0,0.0,0.0,0.0,0.0,0.0,0.0,0.0,0.0,0.0,0.0,0.0,0.0,0.0,0.0,0.0,0.0,0.0,0.0,0.0,0.0,0.0,0.0,0.0,0.0,0.0,0.0,0.0,0.0,0.0,0.0,0.0,0.0,0.0,0.0,0.0,0.0,0.0,0.0,0.0,0.0,0.0,0.0,0.0,0.0,0.0,0.0,0.0,0.0,0.0,0.0,0.0,0.0,0.0,0.0,0.0,0.0,0.0,0.0,0.0,0.0,0.0,0.0,0.0,0.0,0.0,0.0,0.0,0.0,0.0,0.0,0.0,0.0,0.0,0.0,0.0,0.0,0.0,0.0,0.0,0.0,0.0,0.0,0.0,0.0,0.0,0.0,0.0,0.0,0.0,0.0,0.0,0.0,0.0,0.0,0.0,0.0,0.0,0.0,0.0,0.0,0.0,0.0,0.0,0.0,0.0,0.0,0.0,0.0,0.0,0.0,0.0,0.0,0.0,0.0,0.0,0.0,0.0,0.0,0.0,0.0,0.0,0.0,0.0,0.0,0.0,0.0,0.0,0.0,0.0,0.0,0.0,0.0,0.0,0.0,0.0,0.0,0.0,0.0,0.0,0.0,0.0,0.0,0.0,0.0,0.0,0.0,0.0,0.0,0.0,0.0,0.0,0.0,0.0,0.0,0.0,0.0,0.0,0.0,0.0,0.0,0.0,0.0,0.0,0.0,0.0,0.0,0.0,0.0,0.0,0.0,0.0,0.0,0.0,0.0,0.0,0.0,0.0,0.0,0.0,0.0,0.0,0.0,0.0,0.0,0.0,0.0,0.0,0.0,0.0,0.0,0.0,0.0,0.0,0.0,0.0,0.0,0.0,0.0,0.0,0.0,0.0,0.0,0.0,0.0,0.0,0.0,0.0,0.0,0.0,0.0,0.0,0.0,0.0,0.0,0.0,0.0,0.0,0.0,0.0,0.0,0.0,0.0,0.0,0.0,0.0,0.0,0.0,0.0,0.0,0.0,0.0,0.0,0.0,0.0,0.0,0.0,0.0,0.0,0.0,0.0,0.0,0.0,0.0,0.0,0.0,0.0,0.0,0.0,0.0,0.0,0.0,0.0,0.0,0.0,0.0,0.0,0.0,0.0,0.0,0.0,0.0,0.0,0.0,0.0,0.0,0.0,0.0,0.0,0.0,0.0,0.0,0.0,0.0,0.0,0.0,0.0,0.0,0.0,0.0,0.0,0.0,0.0,0.0,0.0,0.0,0.0,0.0,0.0,0.0,0.0,0.0,0.0,0.0,0.0,0.0,0.0,0.0,0.0,0.0,0.0,0.0,0.0,0.0,0.0,0.0,0.0,0.0,0.0,0.0,0.0,0.0,0.0,0.0,0.0,0.0,0.0,0.0,0.0,0.0,0.0,0.0,0.0,0.0,0.0,0.0,0.0,0.0,0.0,0.0,0.0,0.0,0.0,0.0,0.0,0.0,0.0,0.0,0.0,0.0,0.0,0.0,0.0,0.0,0.0,0.0,0.0,0.0,0.0,0.0,0.0,0.0,0.0,0.0,0.0,0.0,0.0,0.0,0.0,0.0,0.0,0.0,0.0,0.0,0.0,0.0,0.0,0.0,0.0,0.0,0.0,0.0,0.0,0.0,0.0,0.0,0.0,0.0,0.0,0.0,0.0,0.0,0.0,0.0,0.0,0.0,0.0,0.0,0.0,0.0,0.0,0.0,0.0,0.0,0.0,0.0,0.0,0.0,0.0,0.0,0.0,0.0,0.0,0.0,0.0,0.0,0.0,0.0,0.0,0.0,0.0,0.0,0.0,0.0,0.0,0.0,0.0,0.0,0.0,0.0,0.0,0.0,0.0,0.0,0.0,0.0,0.0,0.0,0.0,0.0,0.0,0.0,0.0,0.0,0.0,0.0,0.0,0.0,0.0,0.0,0.0,0.0,0.0,0.0,0.0,0.0,0.0,0.0,0.0,0.0,0.0,0.0,0.0,0.0,0.0,0.0,0.0,0.0,0.0,0.0,0.0,0.0,0.0,0.0,0.0,0.0,0.0,0.0,0.0,0.0,0.0,0.0,0.0,0.0,0.0,0.0,0.0,0.0,0.0,0.0,0.0,0.0,0.0,0.0,0.0,0.0,0.0,0.0,0.0,0.0,0.0,0.0,0.0,0.0,0.0,0.0,0.0,0.0,0.0,0.0,0.0,0.0,0.0,0.0,0.0,0.0,0.0,0.0,0.0,0.0,0.0,0.0,0.0,0.0,0.0,0.0,0.0,0.0,0.0,0.0,0.0,0.0,0.0,0.0,0.0,0.0,0.0,0.0,0.0,0.0,0.0,0.0,0.0,0.0,0.0,0.0,0.0,0.0,0.0,0.0,0.0,0.0,0.0,0.0,0.0,0.0,0.0,0.0,0.0,0.0,0.0,0.0,0.0,0.0,0.0,0.0,0.0,0.0,0.0,0.0,0.0,0.0,0.0,0.0,0.0,0.0,0.0,0.0,0.0,0.0,0.0,0.0,0.0,0.0,0.0,0.0,0.0,0.0,0.0,0.0,0.0,0.0,0.0,0.0,0.0,0.0,0.0,0.0,0.0,0.0,0.0,0.0,0.0,0.0,0.0,0.0,0.0,0.0,0.0,0.0,0.0,0.0,0.0,0.0,0.0,0.0,0.0,0.0,0.0,0.0,0.0,0.0,0.0,0.0,0.0,0.0,0.0,0.0,0.0,0.0,0.0,0.0,0.0,0.0,0.0,0.0,0.0,0.0,0.0,0.0,0.0,0.0,0.0,0.0,0.0,0.0,0.0,0.0,0.0,0.0,0.0,0.0,0.0,0.0,0.0,0.0,0.0,0.0,0.0,0.0,0.0,0.0,0.0,0.0,0.0,0.0,0.0,0.0,0.0,0.0,0.0,0.0,0.0,0.0,0.0,0.0,0.0,0.0,0.0,0.0,0.0,0.0,0.0,0.0,0.0,0.0,0.0,0.0,0.0,0.0,0.0,0.0,0.0,0.0,0.0,0.0,0.0,0.0,0.0,0.0,0.0,0.0,0.0,0.0,0.0,0.0,0.0,0.0,0.0,0.0,0.0,0.0,0.0,0.0,0.0,0.0,0.0,0.0,0.0,0.0,0.0,0.0,0.0,0.0,0.0,0.0,0.0,0.0,0.0,0.0,0.0,0.0,0.0,0.0,0.0,0.0,0.0,0.0,0.0,0.0,0.0,0.0,0.0,0.0,0.9024,0.0,0.0,0.0,0.0,0.0,0.0,0.0,0.0,0.0,0.0,0.0,0.0,0.0,0.0,0.0,0.0,0.0,0.0,0.0,0.0,0.0,0.0,0.0,0.0,0.0,0.0,0.0,0.0,0.0,0.0,0.0,0.0,0.0,0.0,0.0,0.0,0.0,0.0,0.0,0.0,0.0,0.0,0.0,0.0,0.0,0.0,0.0,0.0,0.0,0.0,0.0,0.0,0.0,0.0,0.0,0.0,0.0,0.0,0.0,0.0,0.0,0.0,0.0,0.0,0.0,0.0,0.0,0.0,0.0,0.0,0.0,0.0,0.0,0.0,0.0,0.0,0.0,0.0,0.0,0.0,0.0,0.0,0.0,0.0,0.0,0.0,0.0,0.0,0.0,0.0,0.0,0.0,0.0,0.0,0.0,0.0,0.0,0.0,0.0,0.0,0.0,0.0,0.0,0.0,0.0,0.0,0.0,0.0,0.0,0.0,0.9151,0.8996,0.8996,0.897,0.888,0.0,0.0,0.0,0.0,0.0,0.0,0.0,0.0,0.0,0.0,0.0,0.0,0.0,0.0,0.0,0.0,0.0,0.0,0.0,0.0,0.0,0.0,0.0,0.0,0.0,0.0,0.0,0.0,0.0,0.0,0.0,0.0,0.0,0.0,0.0,0.0,0.0,0.0,0.0,0.0,0.0,0.0,0.0,0.0,0.0,0.0,0.0,0.0,0.0,0.0,0.0,0.0,0.0,0.0,0.0,0.0,0.0,0.0,0.0,0.0,0.0,0.0,0.0,0.0,0.0,0.0,0.0,0.0,0.0,0.0,0.0,0.0,0.0,0.0,0.0,0.0,0.0,0.0,0.0,0.0,0.0,0.0,0.0,0.0,0.0,0.0,0.0,0.0,0.0,0.0,0.0,0.0,0.0,0.0,0.0,0.0,0.0,0.0,0.0,0.0,0.0,0.0,0.0,0.0,0.0,0.0,0.0,0.0,0.0,0.0,0.0,0.0,0.897,0.8829,0.8741,0.0,0.0,0.0,0.0,0.0,0.0,0.0,0.0,0.0,0.0,0.0,0.0,0.0,0.0,0.0,0.0,0.0,0.0,0.0,0.0,0.0,0.0,0.0,0.0,0.0,0.0,0.0,0.0,0.0,0.0,0.0,0.0,0.0,0.0,0.0,0.0,0.0,0.0,0.0,0.0,0.0,0.0,0.0,0.0,0.0,0.0,0.0,0.0,0.0,0.0,0.0,0.0,0.0,0.0,0.0,0.0,0.0,0.0,0.0,0.0,0.0,0.0,0.0,0.0,0.0,0.0,0.0,0.0,0.0,0.0,0.0,0.0,0.0,0.0,0.0,0.0,0.0,0.0,0.0,0.0,0.0,0.0,0.0,0.0,0.0,0.0,0.0,0.0,0.0,0.0,0.0,0.0,0.0,0.0,0.0,0.0,0.0,0.0,0.0,0.0,0.0,0.0,0.0,0.0,0.0,0.0,0.0,0.0,0.0,0.0,0.9338,0.9794,0.9174,0.0,0.864,0.0,0.0,0.0,0.0,0.0,0.0,0.0,0.0,0.0,0.0,0.0,0.0,0.0,0.0,0.0,0.0,0.0,0.0,0.0,0.0,0.0,0.0,0.0,0.0,0.0,0.0,0.0,0.0,0.0,0.0,0.0,0.0,0.0,0.0,0.0,0.0,0.0,0.0,0.0,0.0,0.0,0.0,0.0,0.0,0.0,0.0,0.0,0.0,0.0,0.0,0.0,0.0,0.0,0.0,0.0,0.0,0.0,0.0,0.0,0.0,0.0,0.0,0.0,0.0,0.0,0.0,0.0,0.0,0.0,0.0,0.0,0.0,0.0,0.0,0.0,0.0,0.0,0.0,0.0,0.0,0.0,0.0,0.0,0.0,0.0,0.0,0.0,0.0,0.0,0.0,0.0,0.0,0.0,0.0,0.0,0.0,0.0,0.0,0.0,0.0,0.0,0.0,0.0,0.0,0.0,0.0,0.0,0.0,0.0,0.0,0.9924,1.0423,1.0013,0.9614,0.0,0.0,0.0,0.0,0.0,0.0,0.0,0.0,0.0,0.0,0.0,0.0,0.0,0.0,0.0,0.0,0.0,0.0,0.0,0.0,0.0,0.0,0.0,0.0,0.0,0.0,0.0,0.0,0.0,0.0,0.0,0.0,0.0,0.0,0.0,0.0,0.0,0.0,0.0,0.0,0.0,0.0,0.0,0.0,0.0,0.0,0.0,0.0,0.0,0.0,0.0,0.0,0.0,0.0,0.0,0.0,0.0,0.0,0.0,0.0,0.0,0.0,0.0,0.0,0.0,0.0,0.0,0.0,0.0,0.0,0.0,0.0,0.0,0.0,0.0,0.0,0.0,0.0,0.0,0.0,0.0,0.0,0.0,0.0,0.0,0.0,0.0,0.0,0.0,0.0,0.0,0.0,0.0,0.0,0.0,0.0,0.0,0.0,0.0,0.0,0.0,0.0,0.0,0.0,0.0,0.0,0.0,0.0,0.0,0.0,0.9555,0.9899,1.0189,1.0398,1.0127,0.9301,0.0,0.0,0.0,0.0,0.0,0.0,0.0,0.0,0.0,0.0,0.0,0.0,0.0,0.0,0.0,0.0,0.0,0.0,0.0,0.0,0.0,0.0,0.0,0.0,0.0,0.0,0.0,0.0,0.0,0.0,0.0,0.0,0.0,0.0,0.0,0.0,0.0,0.0,0.0,0.0,0.0,0.0,0.0,0.0,0.0,0.0,0.0,0.0,0.0,0.0,0.0,0.0,0.0,0.0,0.0,0.0,0.0,0.0,0.0,0.0,0.0,0.0,0.0,0.0,0.0,0.0,0.0,0.0,0.0,0.0,0.0,0.0,0.0,0.0,0.0,0.0,0.0,0.0,0.0,0.0,0.0,0.0,0.0,0.0,0.0,0.0,0.0,0.0,0.0,0.0,0.0,0.0,0.0,0.0,0.0,0.0,0.0,0.0,0.0,0.0,0.0,0.0,0.0,0.0,0.0,0.0,0.0,0.0,0.0,0.9021,0.8883,0.8795,0.987,0.9858,0.0,0.0,0.0,0.0,0.0,0.0,0.0,0.0,0.0,0.0,0.0,0.0,0.0,0.0,0.0,0.0,0.0,0.0,0.0,0.0,0.0,0.0,0.0,0.0,0.0,0.0,0.0,0.0,0.0,0.0,0.0,0.0,0.0,0.0,0.0,0.0,0.0,0.0,0.0,0.0,0.0,0.0,0.0,0.0,0.0,0.0,0.0,0.0,0.0,0.0,0.0,0.0,0.0,0.0,0.0,0.0,0.0,0.0,0.0,0.0,0.0,0.0,0.0,0.0,0.0,0.0,0.0,0.0,0.0,0.0,0.0,0.0,0.0,0.0,0.0,0.0,0.0,0.0,0.0,0.0,0.0,0.0,0.0,0.0,0.0,0.0,0.0,0.0,0.0,0.0,0.0,0.0,0.0,0.0,0.0,0.0,0.0,0.0,0.0,0.0,0.0,0.0,0.0,0.0,0.0,0.0,0.0,0.0,0.0,0.9081,0.8835,0.908,0.9859,1.024,0.9781,0.0,0.0,0.0,0.0,0.0,0.0,0.0,0.0,0.0,0.0,0.0,0.0,0.0,0.0,0.0,0.0,0.0,0.0,0.0,0.0,0.0,0.0,0.0,0.0,0.0,0.0,0.0,0.0,0.0,0.0,0.0,0.0,0.0,0.0,0.0,0.0,0.0,0.0,0.0,0.0,0.0,0.0,0.0,0.0,0.0,0.0,0.0,0.0,0.0,0.0,0.0,0.0,0.0,0.0,0.0,0.0,0.0,0.0,0.0,0.0,0.0,0.0,0.0,0.0,0.0,0.0,0.0,0.0,0.0,0.0,0.0,0.0,0.0,0.0,0.0,0.0,0.0,0.0,0.0,0.0,0.0,0.0,0.0,0.0,0.0,0.0,0.0,0.0,0.0,0.0,0.0,0.0,0.0,0.0,0.0,0.0,0.0,0.0,0.0,0.0,0.0,0.0,0.0,0.0,0.0,0.0,0.0,0.0,0.0,0.9259,0.0,0.9041,0.0,1.0097,0.9467,0.0,0.0,0.0,0.0,0.0,0.0,0.0,0.0,0.0,0.0,0.0,0.0,0.0,0.0,0.0,0.0,0.0,0.0,0.0,0.0,0.0,0.0,0.0,0.0,0.0,0.0,0.0,0.0,0.0,0.0,0.0,0.0,0.0,0.0,0.0,0.0,0.0,0.0,0.0,0.0,0.0,0.0,0.0,0.0,0.0,0.0,0.0,0.0,0.0,0.0,0.0,0.0,0.0,0.0,0.0,0.0,0.0,0.0,0.0,0.0,0.0,0.0,0.0,0.0,0.0,0.0,0.0,0.0,0.0,0.0,0.0,0.0,0.0,0.0,0.0,0.0,0.0,0.0,0.0,0.0,0.0,0.0,0.0,0.0,0.0,0.0,0.0,0.0,0.0,0.0,0.0,0.0,0.0,0.0,0.0,0.0,0.0,0.0,0.0,0.0,0.0,0.0,0.0,0.0,0.0,0.0,0.0,0.0,0.9284,0.9664,0.8825,0.8778,0.9386,0.9388,0.8953,0.0,0.0,0.0,0.0,0.0,0.0,0.0,0.0,0.0,0.0,0.0,0.0,0.0,0.0,0.0,0.0,0.0,0.0,0.0,0.0,0.0,0.0,0.0,0.0,0.0,0.0,0.0,0.0,0.0,0.0,0.0,0.0,0.0,0.0,0.0,0.0,0.0,0.0,0.0,0.0,0.0,0.0,0.0,0.0,0.0,0.0,0.0,0.0,0.0,0.0,0.0,0.0,0.0,0.0,0.0,0.0,0.0,0.0,0.0,0.0,0.0,0.0,0.0,0.0,0.0,0.0,0.0,0.0,0.0,0.0,0.0,0.0,0.0,0.0,0.0,0.0,0.0,0.0,0.0,0.0,0.0,0.0,0.0,0.0,0.0,0.0,0.0,0.0,0.0,0.0,0.0,0.0,0.0,0.0,0.0,0.0,0.0,0.0,0.0,0.0,0.0,0.0,0.0,0.0,0.0,0.0,0.0,0.0,0.0,1.1059,1.1008,1.0844,1.0548,0.962,0.8743,0.0,0.0,0.0,0.0,0.0,0.0,0.0,0.0,0.0,0.0,0.0,0.0,0.0,0.0,0.0,0.0,0.0,0.0,0.0,0.0,0.0,0.0,0.0,0.0,0.0,0.0,0.0,0.0,0.0,0.0,0.0,0.0,0.0,0.0,0.0,0.0,0.0,0.0,0.0,0.0,0.0,0.0,0.0,0.0,0.0,0.0,0.0,0.0,0.0,0.0,0.0,0.0,0.0,0.0,0.0,0.0,0.0,0.0,0.0,0.0,0.0,0.0,0.0,0.0,0.0,0.0,0.0,0.0,0.0,0.0,0.0,0.0,0.0,0.0,0.0,0.0,0.0,0.0,0.0,0.0,0.0,0.0,0.0,0.0,0.0,0.0,0.0,0.0,0.0,0.0,0.0,0.0,0.0,0.0,0.0,0.0,0.0,0.0,0.0,0.0,0.0,0.0,0.0,0.0,0.0,0.0,0.0,0.0,0.0,1.3186,1.3969,1.3665,1.2222,1.0568,0.9344,0.8585,0.0,0.0,0.0,0.0,0.0,0.0,0.0,0.0,0.0,0.0,0.0,0.0,0.0,0.0,0.0,0.0,0.0,0.0,0.0,0.0,0.0,0.0,0.0,0.0,0.0,0.0,0.0,0.0,0.0,0.0,0.0,0.0,0.0,0.0,0.0,0.0,0.0,0.0,0.0,0.0,0.0,0.0,0.0,0.0,0.0,0.0,0.0,0.0,0.0,0.0,0.0,0.0,0.0,0.0,0.0,0.0,0.0,0.0,0.0,0.0,0.0,0.0,0.0,0.0,0.0,0.0,0.0,0.0,0.0,0.0,0.0,0.0,0.0,0.0,0.0,0.0,0.0,0.0,0.0,0.0,0.0,0.0,0.0,0.0,0.0,0.0,0.0,0.0,0.0,0.0,0.0,0.0,0.0,0.0,0.0,0.0,0.0,0.0,0.0,0.0,0.0,0.0,0.0,0.0,0.0,0.0,0.0,0.0,1.5823,1.7343,1.6772,1.4071,1.2063,1.0588,0.0,0.0,0.0,0.0,0.0,0.0,0.0,0.0,0.0,0.0,0.0,0.0,0.0,0.0,0.0,0.0,0.0,0.0,0.0,0.0,0.0,0.0,0.0,0.0,0.0,0.0,0.0,0.0,0.0,0.0,0.0,0.0,0.0,0.0,0.0,0.0,0.0,0.0,0.0,0.0,0.0,0.0,0.0,0.0,0.0,0.0,0.0,0.0,0.0,0.0,0.0,0.0,0.0,0.0,0.0,0.0,0.0,0.0,0.0,0.0,0.0,0.0,0.0,0.0,0.0,0.0,0.0,0.0,0.0,0.0,0.0,0.0,0.0,0.0,0.0,0.0,0.0,0.0,0.0,0.0,0.0,0.0,0.0,0.0,0.0,0.0,0.0,0.0,0.0,0.0,0.0,0.0,0.0,0.0,0.0,0.0,0.0,0.0,0.0,0.0,0.0,0.0,0.0,0.0,0.0,0.0,0.0,0.0,0.0,1.6563,1.8517,1.794,1.4766,1.3077,1.1408,0.0,0.0,0.0,0.0,0.0,0.0,0.0,0.0,0.0,0.0,0.0,0.0,0.0,0.0,0.0,0.0,0.0,0.0,0.0,0.0,0.0,0.0,0.0,0.0,0.0,0.0,0.0,0.0,0.0,0.0,0.0,0.0,0.0,0.0,0.0,0.0,0.0,0.0,0.0,0.0,0.0,0.0,0.0,0.0,0.0,0.0,0.0,0.0,0.0,0.0,0.0,0.0,0.0,0.0,0.0,0.0,0.0,0.0,0.0,0.0,0.0,0.0,0.0,0.0,0.0,0.0,0.0,0.0,0.0,0.0,0.0,0.0,0.0,0.0,0.0,0.0,0.0,0.0,0.0,0.0,0.0,0.0,0.0,0.0,0.0,0.0,0.0,0.0,0.0,0.0,0.0,0.0,0.0,0.0,0.0,0.0,0.0,0.0,0.0,0.0,0.0,0.0,0.0,0.0,0.0,0.0,0.0,0.0,1.3371,1.7791,1.9882,1.9436,1.6332,1.4468,1.2686,0.0,0.0,0.0,0.0,0.0,0.0,0.0,0.0,0.0,0.0,0.0,0.0,0.0,0.0,0.0,0.0,0.0,0.0,0.0,0.0,0.0,0.0,0.0,0.0,0.0,0.0,0.0,0.0,0.0,0.0,0.0,0.0,0.0,0.0,0.0,0.0,0.0,0.0,0.0,0.0,0.0,0.0,0.0,0.0,0.0,0.0,0.0,0.0,0.0,0.0,0.0,0.0,0.0,0.0,0.0,0.0,0.0,0.0,0.0,0.0,0.0,0.0,0.0,0.0,0.0,0.0,0.0,0.0,0.0,0.0,0.0,0.0,0.0,0.0,0.0,0.0,0.0,0.0,0.0,0.0,0.0,0.0,0.0,0.0,0.0,0.0,0.0,0.0,0.0,0.0,0.0,0.0,0.0,0.0,0.0,0.0,0.0,0.0,0.0,0.0,0.0,0.0,0.0,0.0,0.0,0.0,0.0,0.0,1.3887,1.8873,2.1105,2.0952,1.8281,1.6068,1.4133,0.0,0.0,0.0,0.0,0.0,0.0,0.0,0.0,0.0,0.0,0.0,0.0,0.0,0.0,0.0,0.0,0.0,0.0,0.0,0.0,0.0,0.0,0.0,0.0,0.0,0.0,0.0,0.0,0.0,0.0,0.0,0.0,0.0,0.0,0.0,0.0,0.0,0.0,0.0,0.0,0.0,0.0,0.0,0.0,0.0,0.0,0.0,0.0,0.0,0.0,0.0,0.0,0.0,0.0,0.0,0.0,0.0,0.0,0.0,0.0,0.0,0.0,0.0,0.0,0.0,0.0,0.0,0.0,0.0,0.0,0.0,0.0,0.0,0.0,0.0,0.0,0.0,0.0,0.0,0.0,0.0,0.0,0.0,0.0,0.0,0.0,0.0,0.0,0.0,0.0,0.0,0.0,0.0,0.0,0.0,0.0,0.0,0.0,0.0,0.0,0.0,0.0,0.0,0.0,0.0,0.0,0.0,0.0,1.4708,1.8232,2.0923,2.126,1.91,1.7676,1.5358,0.0,0.0,0.0,0.0,0.0,0.0,0.0,0.0,0.0,0.0,0.0,0.0,0.0,0.0,0.0,0.0,0.0,0.0,0.0,0.0,0.0,0.0,0.0,0.0,0.0,0.0,0.0,0.0,0.0,0.0,0.0,0.0,0.0,0.0,0.0,0.0,0.0,0.0,0.0,0.0,0.0,0.0,0.0,0.0,0.0,0.0,0.0,0.0,1.285,0.0,0.0,0.0,0.0,0.0,0.0,0.0,0.0,0.0,0.0,0.0,0.0,0.0,0.0,0.0,0.0,0.0,0.0,0.0,0.0,0.0,0.0,0.0,0.0,0.0,0.0,0.0,0.0,0.0,0.0,0.0,0.0,0.0,0.0,0.0,0.0,0.0,0.0,0.0,0.0,0.0,0.0,0.0,0.0,0.0,0.0,0.0,0.0,0.0,0.0,0.0,0.0,0.0,0.0,0.0,0.0,0.0,0.0,0.0,1.597,1.8993,1.9954,1.9922,1.8855,1.777,1.5608,0.0,0.0,0.0,0.0,0.0,0.0,0.0,0.0,0.0,0.0,0.0,0.0,0.0,0.0,0.0,0.0,0.0,0.0,0.0,0.0,0.0,0.0,0.0,0.0,0.0,0.0,0.0,0.0,0.0,0.0,0.0,0.0,0.0,0.0,0.0,0.0,0.0,0.0,0.0,0.0,0.0,0.0,0.0,0.0,0.0,0.0,0.0,0.0,0.0,0.0,0.0,0.0,0.0,0.0,0.0,0.0,0.0,0.0,0.0,0.0,0.0,0.0,0.0,0.0,0.0,0.0,0.0,0.0,0.0,0.0,0.0,0.0,0.0,0.0,0.0,0.0,0.0,0.0,0.0,0.0,0.0,0.0,0.0,0.0,0.0,0.0,0.0,0.0,0.0,0.0,0.0,0.0,0.0,0.0,0.0,0.0,0.0,0.0,0.0,0.0,0.0,0.0,0.0,0.0,0.0,0.0,0.0,1.5154,1.702,1.9531,1.8589,1.7961,1.7961,1.6879,1.5069,1.2553,0.0,0.0,0.0,0.0,0.0,0.0,0.0,0.0,0.0,0.0,0.0,0.0,0.0,0.0,0.0,0.0,0.0,0.0,0.0,0.0,0.0,0.0,0.0,0.0,0.0,0.0,0.0,0.0,0.0,0.0,0.0,0.0,0.0,0.0,0.0,0.0,0.0,0.0,0.9565,0.9905,0.0,0.0,0.0,0.0,0.0,0.0,0.0,0.0,1.0346,0.0,0.0,0.0,0.0,0.0,0.0,0.0,0.0,0.0,0.0,0.0,0.0,0.0,0.0,0.0,0.0,0.0,0.0,0.0,0.0,0.0,0.0,0.0,0.0,0.0,0.0,0.0,0.0,0.0,0.0,0.0,0.0,0.0,0.0,0.0,0.0,0.0,0.0,0.0,0.0,0.0,0.0,0.0,0.0,0.0,0.0,0.0,0.0,0.0,0.0,0.0,0.0,0.0,0.0,0.0,0.0,1.2456,1.5442,1.7174,1.75,1.6886,1.6561,1.6586,1.5079,1.3277,1.1201,0.0,0.0,0.0,0.0,0.0,0.0,0.0,0.0,0.0,0.0,0.0,0.0,0.0,0.0,0.0,0.0,0.0,0.0,0.0,0.0,0.0,0.0,0.0,0.0,0.0,0.0,0.0,0.0,0.0,0.0,0.0,0.0,0.0,0.0,0.0,0.0,0.0,0.0,0.0,1.0507,1.0633,0.0,0.0,0.0,0.0,0.0,0.0,0.0,0.0,0.7901,0.0,0.0,0.0,0.0,0.0,0.0,0.0,0.0,0.0,0.0,0.0,0.0,0.0,0.0,0.0,0.0,0.0,0.0,0.0,0.0,0.0,0.0,0.0,0.0,0.0,0.0,0.0,0.0,0.0,0.0,0.0,0.0,0.0,0.0,0.0,0.0,0.0,0.0,0.0,0.0,0.0,0.0,0.0,0.0,0.0,0.0,0.0,0.0,0.0,0.0,0.0,0.0,0.0,0.0,0.0,1.264,1.4714,1.6124,1.6901,1.649,1.6092,1.5695,1.4137,1.2358,0.0,0.0,0.0,0.0,0.0,0.0,0.0,0.0,0.0,0.0,0.0,0.0,0.0,0.0,0.0,0.0,0.0,0.0,0.0,0.0,0.0,0.0,0.0,0.0,0.0,0.0,0.0,0.0,0.0,0.0,0.0,0.0,0.0,0.0,0.0,0.0,0.0,0.0,0.0,0.0,1.1183,1.1527,1.1665,0.0,0.0,0.0,0.0,0.0,0.0,0.9178,0.8948,0.0,0.0,0.0,0.0,0.0,0.0,0.0,0.0,0.0,0.0,0.0,0.0,0.0,0.0,0.0,0.0,0.0,0.0,0.0,0.0,0.0,0.0,0.0,0.0,0.0,0.0,0.0,0.0,0.0,0.0,0.0,0.0,0.0,0.0,0.0,0.0,0.0,0.0,0.0,0.0,0.0,0.0,0.0,0.0,0.0,0.0,0.0,0.0,0.0,0.0,0.0,0.0,0.0,0.0,0.0,1.269,1.3785,1.4935,1.6192,1.6082,1.5598,1.48,1.3204,1.1536,0.0,0.0,0.0,0.0,0.0,0.0,0.0,0.0,0.0,0.0,0.0,0.0,0.0,0.0,0.0,0.0,0.0,0.0,0.0,0.0,0.0,0.0,0.0,0.0,0.0,0.0,0.0,0.0,0.0,0.0,0.0,0.0,0.0,0.0,0.0,0.0,0.0,0.0,0.0,0.0,0.0,1.2273,1.2568,1.1615,0.0,0.0,0.0,0.0,0.9453,1.0567,0.0,0.0,0.0,0.0,0.0,0.0,0.0,0.0,0.0,0.0,0.0,0.0,0.0,0.0,0.0,0.0,0.0,0.0,0.0,0.0,0.0,0.0,0.0,0.0,0.0,0.0,0.0,0.0,0.0,0.0,0.0,0.0,0.0,0.0,0.0,0.0,0.0,0.0,0.0,0.0,0.0,0.0,0.0,0.0,0.0,0.0,0.0,0.0,0.0,0.0,0.0,0.0,0.0,0.0,0.0,0.0,1.1343,1.3289,1.4233,1.4111,1.4614,1.4393,1.3352,1.1852,1.0398,0.0,0.0,0.0,0.0,0.0,0.0,0.0,0.0,0.0,0.0,0.0,0.0,0.0,0.0,0.0,0.0,0.0,0.0,0.0,0.0,0.0,0.0,0.0,0.0,0.0,0.0,0.0,0.0,0.0,0.0,0.0,0.0,0.0,0.0,0.0,0.0,0.0,0.0,0.0,0.0,0.0,1.2706,1.2692,1.2332,1.2138,0.0,0.0,1.1772,1.2033,1.3077,0.0,0.0,0.0,0.0,0.0,0.0,0.0,0.0,0.0,0.0,0.0,0.0,0.0,0.0,0.0,0.0,0.0,0.0,0.0,0.0,0.0,0.0,0.0,0.0,0.0,0.0,0.0,0.0,0.0,0.0,0.0,0.0,0.0,0.0,0.0,0.0,0.0,0.0,0.0,0.0,0.0,0.0,0.0,0.0,0.0,0.0,0.0,0.0,0.0,0.0,0.0,0.0,0.0,0.0,0.0,0.9672,1.1078,1.3437,1.4341,1.3659,1.4505,1.4372,1.3084,1.1625,1.0076,0.0,0.0,0.0,0.0,0.0,0.0,0.0,0.0,0.0,0.0,0.0,0.0,0.0,0.0,0.0,0.0,0.0,0.0,0.0,0.0,0.0,0.0,0.0,0.0,0.0,0.0,0.0,0.0,0.0,0.0,0.0,0.0,0.0,0.0,0.0,0.0,0.0,0.0,0.0,0.0,0.0,0.0,1.3599,1.3185,0.0,0.0,0.0,1.2837,1.4322,0.0,0.0,0.0,0.0,0.0,0.0,0.0,0.0,0.0,0.0,0.0,0.0,0.0,0.0,0.0,0.0,0.0,0.0,0.0,0.0,0.0,0.0,0.0,0.0,0.0,0.0,0.0,0.0,0.0,0.0,0.0,0.0,0.0,0.0,0.0,0.0,0.0,0.0,0.0,0.0,0.0,0.0,0.0,0.0,0.0,0.0,0.0,0.0,0.0,0.0,0.0,0.0,0.0,0.0,0.0,0.0,0.0,1.0748,1.3153,1.4004,1.3283,1.4171,1.4026,1.2788,1.1389,0.0,0.0,0.0,0.0,0.0,0.0,0.0,0.0,0.0,0.0,0.0,0.0,0.0,0.0,0.0,0.0,0.0,0.0,0.0,0.0,0.0,0.0,0.0,0.0,0.0,0.0,0.0,0.4375,0.0,0.0,0.0,0.0,0.0,0.0,0.0,0.0,0.0,0.0,0.0,0.0,0.0,0.0,1.3208,1.426,1.3857,1.3709,0.0,0.0,1.3334,1.5752,1.5101,1.3707,0.0,0.0,0.0,0.0,0.0,0.0,0.0,0.0,0.0,0.0,0.0,0.0,0.0,0.0,0.0,0.0,0.0,0.0,0.0,0.0,0.0,0.0,0.0,0.0,0.0,0.0,0.0,0.0,0.0,0.0,0.0,0.0,0.0,0.0,0.0,0.0,0.0,0.0,0.0,0.0,0.0,0.0,0.0,0.0,0.0,0.0,0.0,0.0,0.0,0.0,0.0,0.0,0.0,0.0,0.0,0.9968,1.1822,1.2693,1.2513,1.2928,1.2803,1.2067,1.0704,0.9359,0.0,0.0,0.0,0.0,0.0,0.0,0.0,0.0,0.0,0.0,0.0,0.0,0.0,0.0,0.0,0.0,0.0,0.0,0.0,0.0,0.0,0.0,0.0,0.0,0.0,0.0,0.0,0.0,0.0,0.0,0.0,0.0,0.0,0.0,0.0,0.0,0.0,0.0,0.0,0.0,0.0,1.3462,1.4205,1.4046,1.4166,0.0,0.0,1.3334,1.5738,1.5087,1.4283,1.4249,0.0,0.0,0.0,0.0,0.0,0.0,0.0,0.0,0.0,0.0,0.0,0.0,0.0,0.0,0.0,0.0,0.0,0.0,0.0,0.0,0.0,0.0,0.0,0.0,0.0,0.0,0.0,0.0,0.0,0.0,0.0,0.0,0.0,0.0,0.0,0.0,0.0,0.0,0.0,0.0,0.0,0.0,0.0,0.0,0.0,0.0,0.0,0.0,0.0,0.0,0.0,0.0,0.0,0.7691,0.9799,1.1639,1.2471,1.2359,1.2777,1.2674,1.2006,1.0686,0.9532,0.0,0.0,0.0,0.0,0.0,0.0,0.0,0.0,0.0,0.0,0.0,0.0,0.0,0.0,0.0,0.0,0.0,0.0,0.0,0.0,0.0,0.0,0.0,0.0,0.0,0.0,0.0,0.0,0.5724,0.6224,0.6832,0.0,0.0,0.0,0.0,0.0,0.0,0.0,0.0,0.0,0.0,1.3565,1.4206,1.4407,0.0,0.0,1.4673,1.4724,1.5751,1.5032,1.4319,1.4369,1.3845,0.0,0.0,0.0,0.0,0.0,0.0,0.0,0.0,0.0,0.0,0.0,0.0,0.0,0.0,0.0,0.0,0.0,0.0,0.0,0.0,0.0,0.0,0.0,0.0,0.0,0.0,0.0,0.0,0.0,0.0,0.0,0.0,0.0,0.0,0.0,0.0,0.0,0.0,0.0,0.0,0.0,0.0,0.0,0.0,0.0,0.0,0.0,0.0,0.0,0.0,0.0,0.0,0.7622,0.9627,1.1299,1.2311,1.266,1.2947,1.2882,1.2399,1.1084,1.0064,0.0,0.0,0.0,0.0,0.0,0.0,0.0,0.0,0.0,0.0,0.0,0.0,0.0,0.0,0.0,0.0,0.0,0.0,0.0,0.0,0.0,0.0,0.0,0.0,0.0,0.0,0.0,0.0,0.6046,0.6473,0.6921,0.0,0.0,0.0,0.0,0.0,0.0,0.0,0.0,0.0,0.0,1.3816,1.4424,1.4839,1.5178,1.5409,1.5312,1.5376,1.5931,1.4862,1.4059,1.4268,0.0,0.0,0.0,0.0,0.0,0.0,0.0,0.0,0.0,0.0,0.0,0.0,0.0,0.0,0.0,0.0,0.0,0.0,0.0,0.0,0.0,0.0,0.0,0.0,0.0,0.0,0.0,0.0,0.0,0.0,0.514,0.0,0.0,0.0,0.0,0.0,0.0,0.0,0.0,0.0,0.0,0.0,0.0,0.0,0.0,0.0,0.0,0.0,0.0,0.0,0.0,0.0,0.0,0.8279,0.9305,1.0534,1.1909,1.3279,1.3302,1.3173,1.3168,1.1899,1.0793,1.0052,0.0,0.0,0.0,0.0,0.0,0.0,0.0,0.0,0.0,0.0,0.0,0.0,0.0,0.0,0.0,0.0,0.0,0.0,0.0,0.0,0.0,0.0,0.0,0.0,0.0,0.0,0.5859,0.675,0.7325,0.0,0.0,0.0,0.0,0.0,0.0,0.0,0.0,0.0,0.0,1.3116,1.425,1.499,1.5311,1.5662,1.617,1.5295,1.5014,1.6253,1.4676,1.3472,0.0,0.0,0.0,0.0,0.0,0.0,0.0,0.0,0.0,0.0,0.0,0.0,0.0,0.0,0.0,0.0,0.0,0.0,0.0,0.0,0.0,0.0,0.0,0.0,0.0,0.0,0.0,0.704,0.6797,0.0,0.0,0.0,0.0,0.0,0.0,0.0,0.0,0.0,0.0,0.0,1.1763,1.1809,0.0,0.0,0.0,0.0,0.0,0.0,0.0,0.0,0.0,0.0,0.0,0.0,0.6213,0.7534,0.7323,0.7701,0.8725,0.8782,0.8808,0.8853,0.7954,0.6932,0.5778,0.0,0.0,0.0,0.0,0.0,0.0,0.0,0.0,0.0,0.0,0.0,0.0,0.0,0.0,0.0,0.0,0.0,0.0,0.0,0.0,0.0,0.0,0.0,0.0,0.0,0.4953,0.0,0.0,0.0,0.0,0.0,0.0,0.0,0.0,0.0,0.0,0.0,1.2009,1.3326,1.3911,1.4411,1.4945,1.5423,1.5763,0.0,0.0,0.0,0.0,0.0,0.0,0.0,0.0,0.0,0.0,0.0,0.0,0.0,0.0,1.8063,1.5495,1.6922,1.7893,1.5796,0.0,0.0,0.0,0.0,0.0,0.0,0.0,0.0,0.0,0.0,0.0,0.0,0.0,0.0,0.859,0.0,0.8418,0.0,0.0,0.0,0.0,0.0,0.0,0.0,0.0,1.2662,1.3348,1.3399,1.2503,1.2127,0.0,1.1261,0.964,0.0,0.0,0.0,0.0,0.0,0.0,0.0,0.0,0.518,0.5911,0.5499,0.568,0.6572,0.6775,0.689,0.6911,0.626,0.5156,0.3697,0.3418,0.2706,0.0,0.0,0.0,0.0,0.0,0.0,0.0,0.0,0.0,0.0,0.0,0.0,0.0,0.0,0.0,0.0,0.0,0.0,0.0,0.0,0.0,0.0,0.0,0.4392,0.0,0.0,0.0,0.0,0.0,0.0,0.0,0.0,0.0,1.0534,1.152,1.2673,1.3939,1.4373,1.4658,1.4965,0.0,0.0,0.0,0.0,0.0,0.0,0.0,1.6511,1.6541,1.6541,1.6818,1.7853,1.8357,1.8955,1.9941,0.0,0.0,1.7581,1.8462,1.9045,1.7682,1.7838,1.7777,1.643,1.6565,1.6732,0.0,0.0,0.0,0.0,0.0,0.0,0.0,0.0,1.1942,1.1112,0.0,1.039,0.0,0.0,0.0,0.0,0.0,1.0974,0.0,0.0,1.4379,1.4835,1.4602,1.2108,1.0884,1.0765,0.8188,0.6386,0.555,0.8459,0.0,0.0,0.0,0.0,0.0,0.0,0.511,0.4314,0.4838,0.5713,0.6604,0.7002,0.7225,0.7246,0.6532,0.5333,0.3835,0.2991,0.2281,0.1571,0.0721,0.0,0.0,0.0,0.0,0.0,0.0,0.0,0.0,0.0,0.0,0.0,0.0,0.0,0.0,0.0,0.0,0.0,0.0,0.0,0.0,0.3431,0.0,0.0,0.0,0.0,0.0,0.0,0.0,0.0,0.0,0.0,1.2468,1.2733,1.2975,1.3694,0.0,0.0,0.0,0.0,1.5828,1.5864,1.5816,1.5804,1.5852,1.6212,1.6309,1.5634,0.0,0.0,1.8698,1.8945,1.9461,2.0557,2.091,2.0425,1.8763,1.8902,1.9442,1.9974,1.9241,1.8422,1.8315,1.8391,1.8407,1.5598,0.0,0.0,0.0,0.0,1.3344,1.3774,1.4392,1.4222,1.3369,1.2101,1.2722,0.0,0.0,0.0,0.0,0.0,0.0,1.3306,1.3776,1.457,1.3917,1.1973,1.0861,0.9277,0.7304,0.6165,0.5063,0.4034,0.4775,0.4793,0.4064,0.0,0.0,0.0,0.0,0.141,0.1866,0.0964,0.0799,0.148,0.1881,0.2191,0.2368,0.2137,0.1731,0.126,0.1077,0.0914,0.0754,0.0624,0.0,0.0,0.0,0.0,0.0,0.0,0.0,0.0,0.0,0.0,0.0,0.0,0.0,0.0,0.0,0.0,0.0,0.0,0.0,0.2225,0.283,0.3314,0.0,0.0,0.0,0.0,0.0,0.0,0.0,0.0,0.0,1.365,1.3576,1.3838,0.0,0.0,1.5277,1.602,1.626,1.6488,1.6907,1.6284,0.0,1.6799,1.6679,1.6771,1.7516,1.8477,1.9236,1.9443,2.0074,2.0877,2.1835,2.2161,2.2236,2.2072,2.1292,2.1272,2.24,2.1919,2.0993,2.0547,2.0778,2.0824,1.7096,1.5917,1.4763,1.457,1.5029,1.5094,1.5475,1.6013,1.6137,1.5679,1.4832,1.535,1.5838,1.6187,1.4473,0.0,0.0,0.0,1.4753,1.4749,1.4096,1.2626,1.0394,0.7654,0.5387,0.347,0.1827,0.0632,-0.0217,-0.0458,-0.0755,-0.1015,0.0,0.0,0.0729,-0.0605,-0.1221,-0.1112,-0.1988,-0.2142,-0.1462,-0.077,-0.0299,-0.0097,-0.009,-0.0028,0.0081,0.0192,0.0263,0.0354,0.0569,0.0632,0.0,0.0,0.0,0.0,0.0,0.0,0.0,0.0,0.0,0.0,0.0,0.1047,0.1271,0.0,0.0,0.0,0.0932,0.0998,0.162,0.2021,0.0,0.0,0.0,0.0,0.0,0.0,0.0,0.9563,1.2013,1.3955,1.4778,1.4694,1.4773,1.5408,1.5564,1.5864,1.6488,0.0,1.7051,1.7364,1.6883,1.6678,1.7315,1.7471,1.7817,1.8852,1.9152,1.949,1.9941,2.0611,2.1396,2.2128,2.2618,2.2979,2.3508,2.2951,2.272,2.3853,2.359,2.2871,2.2139,2.2185,2.2115,1.7797,1.7692,1.7371,1.7226,1.7286,1.7349,1.7377,1.7413,1.7733,1.7951,1.81,1.7944,1.7761,1.7485,1.5995,0.0,1.6387,1.6009,1.5785,1.576,1.2808,1.0598,0.8894,0.3167,0.0088,-0.0645,-0.3867,-0.5583,-0.5925,-0.6286,-0.6698,-0.6924,-0.225,-0.0636,-0.2104,-0.2495,-0.3217,-0.4384,-0.4124,-0.3552,-0.2675,-0.1636,-0.0981,-0.0801,-0.0632,-0.0453,-0.0153,0.0,0.0112,0.027,0.0518,0.0676,0.0692,0.0,0.0,0.0,0.0,0.0,0.0,0.0,0.0,0.0,0.0,0.0,0.0,0.0,0.0,0.0,0.0775,0.0,0.0908,0.1068,0.0,0.0,0.0,0.3105,0.4726,0.736,0.9343,1.0109,0.0,0.0,1.5703,1.5792,1.5624,1.5138,1.5972,1.6642,1.6678,1.7159,1.7484,1.7592,1.7556,1.7544,1.7664,1.8391,1.9108,1.9622,1.9497,1.9496,2.0029,2.061,2.1215,2.1941,2.2406,2.2889,2.3523,2.3736,2.4051,2.4204,2.4287,2.401,2.328,2.2925,2.2731,1.8079,1.81,1.8305,1.8228,1.7974,1.8106,1.7817,1.7454,1.8832,1.9588,1.9749,1.8923,1.8174,1.7505,1.7104,1.7082,1.7214,1.3974,1.2491,1.2207,0.8162,0.4615,0.1707,-0.0617,-0.304,-0.5628,-0.7106,-0.7955,-0.8294,-0.8668,-0.9053,-0.9342,-0.8437,-0.7373,-0.6242,-0.6338,-0.6332,-0.6259,-0.5857,-0.4876,-0.3354,-0.286,-0.2311,-0.1622,-0.1338,-0.0982,-0.0581,-0.0375,-0.018,0.0045,0.0225,0.0451,0.0676,0.0644,0.0,0.0,0.0,0.0,0.0,0.0,0.0,0.0,0.0,0.0726,0.1119,0.0,0.141,0.0,0.0486,0.0,0.0474,0.0739,0.0,0.0,0.1844,0.286,0.4776,0.672,0.8716,1.0806,1.3104,1.4834,1.5468,1.5703,1.5855,1.6061,1.637,1.6774,1.7159,1.7676,1.8157,1.8494,1.8566,1.8626,1.8654,1.916,1.9643,1.9747,1.9685,1.9711,1.9888,2.0321,2.0957,2.1629,2.2207,2.2785,2.345,2.3839,2.4051,2.4261,2.4302,2.4256,2.4025,2.3983,2.4042,1.7642,1.7614,1.7889,1.8128,1.831,1.8042,1.768,1.7435,1.8441,1.9386,2.0129,1.9349,1.8844,1.8522,1.8534,1.7593,1.5835,1.2984,1.0368,0.7895,0.3694,0.0215,-0.2549,-0.4587,-0.6691,-0.8784,-0.955,-1.0057,-1.0363,-1.0666,-1.0995,-1.1304,-1.1698,-1.123,-0.998,-0.9256,-0.8586,-0.7921,-0.6937,-0.5793,-0.4469,-0.407,-0.3524,-0.268,-0.2113,-0.1581,-0.1079,-0.0725,-0.0406,-0.0202,-0.0045,0.0157,0.0473,0.0608,0.062,0.0,0.0,0.0,0.0,0.0,0.0,0.0,0.0,0.0,0.0,0.0,0.1064,0.067,-0.0036,-0.0314,0.0079,0.0321,0.0572,0.0916,0.1313,0.2303,0.4114,0.5989,0.7895,0.9942,1.2295,1.4046,1.4926,1.5788,1.636,1.6385,1.6932,1.7436,1.7736,1.8217,1.8662,1.8939,1.8987,1.8987,1.8987,1.9448,1.9798,1.9798,1.9862,1.9875,1.9914,2.0308,2.0894,2.1513,2.2095,2.2709,2.3421,2.3696,2.3882,2.3967,2.4177,2.4261,2.4302,2.4441,2.4605,1.6779,1.6626,1.6701,1.74,1.8315,1.7379,1.7021,1.7064,1.7528,1.8551,1.9871,1.9539,1.955,1.983,1.9855,1.765,1.3764,1.1999,0.8343,0.3101,-0.0882,-0.3706,-0.5642,-0.8499,-1.0153,-1.08,-1.144,-1.1851,-1.2107,-1.2279,-1.251,-1.2817,-1.3126,-1.3176,-1.2909,-1.1489,-1.0272,-0.9293,-0.7819,-0.6609,-0.5745,-0.5257,-0.4635,-0.3758,-0.2892,-0.2135,-0.1576,-0.1053,-0.0678,-0.0479,-0.0317,-0.0135,0.0112,0.0406,0.05,0.0,0.0221,0.0,0.0,0.0,0.0,0.0,0.0,0.0,0.0,0.0809,0.0565,-0.0508,-0.0639,-0.0568,-0.0293,-0.0127,0.0086,0.0406,0.0794,0.1667,0.3313,0.5269,0.7072,0.8583,1.1081,1.3104,1.4219,1.5896,1.6855,1.6693,1.747,1.8145,1.8326,1.8674,1.8963,1.8987,1.8987,1.904,1.9146,1.95,1.9798,1.9811,1.9926,1.9978,2.008,2.0472,2.0957,2.1506,2.1996,2.2586,2.3436,2.3566,2.3638,2.3724,2.4078,2.4343,2.4343,2.4467,2.463,1.569,1.5488,1.5448,1.6302,1.7547,1.6028,1.5255,1.5317,1.7922,1.933,1.9831,1.9852,1.9941,2.005,2.0118,1.7635,1.3105,0.8561,0.3649,-0.1587,-0.6462,-0.9377,-1.0535,-1.127,-1.1876,-1.2373,-1.272,-1.2975,-1.3126,-1.3207,-1.3338,-1.3522,-1.3678,-1.3619,-1.3295,0.0,0.0,0.0,-0.8831,-0.7887,-0.6832,-0.6413,-0.5635,-0.4543,-0.353,0.0,-0.1859,-0.1356,-0.104,-0.0883,-0.0605,0.0,0.0,0.0,0.0,0.0,0.0,0.0,0.0,0.0,0.0,0.0,-0.0399,-0.0186,0.0209,0.0493,0.0245,-0.0602,-0.0877,-0.0905,-0.0624,-0.0476,-0.0271,0.0047,0.0474,0.1362,0.2977,0.4723,0.6493,0.8281,1.0503,1.2412,1.372,1.5497,1.693,1.7355,1.7888,1.8362,1.8782,1.8915,1.8987,1.8987,1.8987,1.9198,1.9592,1.9747,1.9798,1.9811,1.9926,2.0131,2.0422,2.0573,2.0908,2.1602,2.1902,2.231,2.3172,2.348,2.3739,2.4078,2.4343,2.4549,2.4549,2.4589,2.4645,1.4744,0.0,1.4118,1.4619,0.0,1.4103,1.3161,1.2858,1.6627,1.882,1.9586,1.7283,1.6557,1.7025,1.5022,1.1388,0.6497,0.2577,-0.2199,-0.7643,-1.1279,-1.3232,-1.3668,-1.3751,-1.3715,-1.3602,-1.3837,-1.3971,-1.3993,-1.4015,-1.4056,-1.4101,-1.4141,-1.4001,-1.3678,-1.3143,-1.1984,-1.0254,-0.9375,-0.8501,-0.7705,-0.7127,-0.6345,-0.5369,-0.425,0.0,0.0,0.0,0.0,0.0,0.0,0.0,0.0,0.0,0.0,-0.0971,-0.0738,-0.033,0.0226,-0.0274,-0.0688,-0.0926,-0.0901,-0.0634,-0.0097,-0.007,-0.0349,-0.0974,-0.1299,-0.1302,-0.1034,-0.0824,-0.0611,-0.0342,0.005,0.0919,0.2471,0.4095,0.5818,0.7617,0.971,1.181,1.3763,1.5691,1.7027,1.7564,1.8172,1.8674,1.8927,1.8987,1.8987,1.9052,1.9146,1.9356,1.9708,1.9798,1.9798,1.9798,2.0016,2.0321,2.066,2.0822,2.1104,2.1746,2.1902,2.2137,2.2632,2.3216,2.3739,2.4177,2.4467,2.463,2.4751,2.4766,2.4726,1.3861,1.3259,1.2761,1.2886,1.3253,1.2295,1.1382,1.0821,0.0,0.0,0.0,1.4254,1.2828,1.2738,0.9257,0.4685,-0.0498,-0.2938,-0.7207,-1.2914,-1.4725,-1.5566,-1.5625,-1.5444,-1.5032,-1.4456,-1.4616,-1.4685,-1.4585,-1.4581,-1.4537,-1.4476,-1.4441,-1.425,-1.3888,-1.3023,-1.201,-1.0856,-0.9766,-0.8937,-0.8421,-0.7656,-0.6918,-0.6114,-0.4963,-0.4,-0.3274,-0.2697,-0.2183,-0.1793,-0.1562,-0.1484,-0.153,-0.1793,-0.189,-0.1679,-0.1176,-0.0526,0.0175,-0.0488,-0.1043,-0.1363,-0.1318,-0.1083,-0.0523,-0.0674,-0.102,-0.1513,-0.0554,-0.0215,-0.1282,-0.0512,-0.0235,-0.07,-0.0365,0.0426,0.1818,0.342,0.5058,0.6784,0.8974,1.1443,1.402,1.615,1.7458,1.7828,1.8458,1.8987,1.8987,1.8987,1.8987,1.9052,1.921,1.946,1.9708,1.9798,1.9798,1.9798,2.0105,2.051,2.0845,2.1153,2.1479,2.182,2.1979,2.2109,2.2263,2.2934,2.3696,2.4219,2.4467,2.467,2.4926,2.4886,2.4862,1.2998,1.2496,1.1623,1.1684,1.2252,1.1293,1.0841,1.0969,1.3248,1.3157,1.1394,1.3245,1.202,0.8536,0.7329,0.3488,-0.2249,-0.4389,-0.8599,-1.4341,-1.5041,-1.5592,-1.6042,-1.5169,-1.467,-1.4592,-1.4654,-1.4672,-1.46,-1.4537,-1.4481,-1.4411,-1.4399,-1.4136,-1.3652,-1.2898,-1.2162,-1.1468,-1.0467,-0.9583,-0.8833,-0.8042,-0.7264,-0.6441,-0.5422,-0.4537,-0.3812,-0.3096,-0.2624,-0.2382,-0.2029,-0.1894,-0.2023,-0.2377,-0.2402,-0.2042,-0.1412,-0.0861,-0.0417,-0.1018,-0.1469,-0.1633,-0.1689,-0.157,-0.1201,-0.1164,-0.1467,-0.1711,0.4088,0.4912,-0.0732,0.1288,0.2044,-0.0541,-0.0729,-0.0108,0.0992,0.2485,0.4197,0.6036,0.8541,1.1166,1.401,1.6573,1.823,1.8677,1.8838,1.8987,1.8987,1.8987,1.8987,1.9052,1.921,1.9512,1.9759,1.9798,1.9798,1.9798,2.0156,2.0597,2.1205,2.1561,2.1708,2.1737,2.213,2.2386,2.2225,2.2799,2.3566,2.4177,2.4467,2.467,2.4926,2.4966,2.4966,1.2247,1.152,1.0836,1.0376,1.0066,0.8281,0.6995,0.6401,0.8203,0.9159,0.914,0.8149,0.6156,0.35,0.0436,-0.317,-0.7153,-0.9248,-1.2197,-1.5575,-1.612,-1.6378,-1.6384,-1.5668,-1.5091,-1.4691,-1.4685,-1.4683,-1.46,-1.4515,-1.4458,-1.4387,-1.4237,-1.3881,-1.3425,-1.2862,-1.2202,-1.1571,-1.1098,-1.0246,-0.9027,-0.8088,-0.7264,-0.6609,-0.5846,-0.505,-0.4255,-0.3731,-0.3238,-0.2726,-0.2396,-0.22,-0.2109,-0.2483,-0.2513,-0.2114,-0.1546,-0.1244,-0.1274,-0.1625,-0.1827,-0.1839,-0.0039,0.0282,-0.1475,-0.169,0.1551,0.9169,1.3429,1.2764,0.6622,0.4791,0.321,0.1704,0.0,-0.0714,0.0223,0.1388,0.2936,0.4882,0.7581,1.0653,1.3978,1.5864,1.7559,1.861,1.8987,1.8987,1.8987,1.8987,1.8987,1.9052,1.9263,1.946,1.9747,1.9798,1.9798,1.9798,2.0156,2.0479,2.0961,2.1503,2.1953,2.1757,2.1566,2.1608,2.2203,2.3157,2.3797,2.4135,2.4467,2.467,2.4926,2.5005,2.5005,1.1715,1.0802,1.0244,0.9178,0.774,0.5433,0.3443,0.1943,0.2797,0.4043,0.4962,0.2647,0.0434,-0.1923,-0.6027,-0.9111,-1.1419,-1.3472,-1.5141,-1.637,-1.6761,-1.6727,-1.6356,-1.5827,-1.5239,-1.4666,-1.4614,-1.46,-1.4511,-1.4434,-1.4362,-1.4214,-1.3902,-1.3537,-1.3126,-1.2609,-1.2005,-1.1366,-1.1296,-1.0578,-0.9123,-0.805,-0.7225,-0.67,-0.6168,-0.5453,-0.4654,-0.4285,-0.3756,-0.313,-0.2834,-0.254,-0.2211,-0.2477,-0.261,-0.251,-0.188,-0.1613,-0.196,-0.2213,-0.2306,-0.2197,0.1239,0.2597,0.0952,0.0482,0.4158,1.3852,1.767,1.8517,1.4584,0.9947,0.5826,0.4005,0.1464,-0.0053,-0.0222,0.0667,0.1832,0.334,0.6072,0.9658,1.3301,1.5051,1.6432,1.8286,1.8819,1.8806,1.8806,1.8806,1.8859,1.8899,1.9141,1.946,1.9759,1.9798,1.9723,1.9623,1.9876,2.0064,2.0288,2.1167,2.1808,2.1557,2.1219,2.1114,2.2115,2.3152,2.3776,2.4094,2.4343,2.467,2.4926,2.5005,2.5005,1.1415,1.0572,0.9942,0.8148,0.5817,0.4054,0.2161,0.0132,-0.1523,-0.3116,-0.3561,-0.1066,-0.2556,-0.6943,-0.884,-1.0829,-1.2968,-1.4624,-1.5644,-1.6069,-1.613,-1.5867,-1.5454,-1.4898,-1.4529,-1.4338,-1.4338,-1.4288,-1.4224,-1.4149,-1.3993,-1.3763,-1.336,-1.3003,-1.2611,-1.1948,-1.1321,-1.0776,-1.0637,-1.0096,-0.9123,-0.806,-0.7264,-0.6691,-0.6275,-0.5727,-0.4953,-0.4576,-0.4118,-0.3649,-0.3355,-0.2962,-0.2441,-0.2408,-0.2933,-0.3918,-0.2772,-0.2114,-0.2262,-0.2665,-0.2823,-0.2501,0.0975,0.4534,0.7456,0.8085,0.5439,0.4945,1.3166,1.9675,1.9599,1.6417,1.1389,0.5224,0.3831,0.291,0.0269,0.072,0.1659,0.0783,0.4262,0.8149,1.327,1.5062,1.6243,1.7941,1.8253,1.8277,1.8277,1.8391,1.837,1.8408,1.8839,1.9438,1.9734,1.9798,1.9535,1.9032,1.919,1.9348,1.9522,1.984,2.0398,2.1197,2.2203,2.2179,2.1416,2.1824,2.3415,2.3724,2.412,2.467,2.4926,2.5005,2.5005,1.105,1.0544,0.9688,0.7636,0.4952,0.3128,0.11,-0.1098,-0.3227,-0.5084,-0.6521,-0.5873,-0.7034,-0.9426,-1.0824,-1.2268,-1.3665,-1.5083,-1.5735,-1.5725,-1.5467,-1.5256,-1.5079,-1.4522,-1.4165,-1.4006,-1.3969,-1.3902,-1.3815,-1.3678,-1.3456,-1.321,-1.2826,-1.236,-1.1871,-1.1285,-1.063,-0.997,-0.9995,-0.9415,-0.8178,-0.7404,-0.6859,-0.6443,-0.6037,-0.547,-0.4826,-0.4441,-0.4048,-0.3621,-0.3364,-0.3134,-0.2874,-0.2676,-0.2937,-0.3695,-0.3006,-0.255,-0.265,-0.3065,-0.2199,0.0239,0.3858,0.6915,0.8971,1.3082,1.4341,1.2745,1.6861,2.0385,2.0121,1.7311,1.3908,1.0597,0.6525,0.3392,0.3749,0.26,0.1951,0.2316,0.4537,0.8397,1.3398,1.5289,1.6109,1.7135,1.7508,1.7724,1.7847,1.7909,1.7873,1.7799,1.8142,1.882,1.9509,1.9798,1.9359,1.8717,1.8469,1.848,1.8616,1.8998,1.9619,2.0543,2.2004,2.279,2.2224,2.0852,2.1079,2.2401,2.3882,2.4523,2.4726,2.4886,2.4966,1.0794,1.0341,0.9058,0.6872,0.4168,0.2153,0.0044,-0.2236,-0.4487,-0.6294,-0.7719,-0.9184,-1.0166,-1.0791,-1.2005,-1.3006,-1.3879,-1.5039,-1.5447,-1.516,-1.4934,-1.4791,-1.4576,-1.42,-1.3885,-1.3709,-1.3522,-1.341,-1.3328,-1.3056,-1.2826,-1.2606,-1.2178,-1.167,-1.115,-1.0572,-0.9894,-0.9215,-0.928,-0.8623,-0.7268,-0.6463,-0.6091,-0.6044,-0.5665,-0.5124,-0.45,-0.4242,-0.3951,-0.3495,-0.3307,-0.3241,-0.327,-0.301,-0.3043,-0.3475,-0.329,-0.2069,-0.0122,-0.1211,-0.0278,0.3876,0.7585,0.9361,1.0126,1.5855,2.0031,1.9911,2.0284,2.0284,2.0015,1.8012,1.6461,1.5449,0.9251,0.6384,0.6994,0.5069,0.4177,0.4794,0.6796,0.97,1.406,1.557,1.6032,1.6606,1.6979,1.7243,1.7351,1.7387,1.736,1.7186,1.7288,1.7803,1.8695,1.8719,1.8455,1.8261,1.7829,1.8029,1.793,1.8286,1.9093,2.0182,2.1656,2.2586,2.2597,2.1228,2.0262,2.2363,2.3625,2.4135,2.4385,2.467,2.4846,1.0843,1.0021,0.7896,0.5699,0.3377,0.1095,-0.1138,-0.324,-0.5688,-0.7273,-0.8236,-0.9682,-1.0732,-1.132,-1.1989,-1.2802,-1.3561,-1.4459,-1.4668,-1.4393,-1.4571,-1.4331,-1.3674,-1.3715,-1.362,-1.3445,-1.3052,-1.2834,-1.2729,-1.2395,-1.2137,-1.1911,-1.1344,-1.088,-1.0452,-0.9741,-0.9043,-0.8496,-0.8445,-0.7839,-0.6562,-0.5307,-0.496,-0.5401,-0.5251,-0.4782,-0.4199,-0.3978,-0.3761,-0.3495,-0.3274,-0.3274,-0.3401,-0.3274,-0.3311,-0.3653,-0.3714,-0.0441,0.5438,0.3486,0.3286,0.752,1.1067,1.22,1.0234,1.6046,1.9992,2.0135,2.0039,2.0039,2.0164,2.0116,1.898,1.608,1.4235,1.1687,0.9247,0.8525,0.8141,0.8119,0.9891,1.2502,1.5389,1.5792,1.6008,1.6414,1.663,1.6701,1.6839,1.6932,1.686,1.6647,1.6598,1.6616,1.6679,1.7174,1.71,1.7148,1.7574,1.7875,1.7663,1.7761,1.876,1.9601,2.0525,2.1456,2.2454,2.2714,2.2295,2.2931,2.3128,2.3508,2.4177,2.4426,2.4589,1.005,0.8787,0.7162,0.5199,0.2903,0.088,-0.1214,-0.3298,-0.5327,-0.6863,-0.8002,-0.918,-1.0004,-1.0609,-1.1309,-1.2169,-1.313,-1.3891,-1.3969,-1.3604,-1.3769,-1.365,-1.3312,-1.3176,-1.3087,-1.2944,-1.2623,-1.2332,-1.2051,-1.1728,-1.1358,-1.0982,-1.0535,-1.0108,-0.9625,-0.8951,-0.8273,-0.7656,-0.7618,-0.6999,-0.5758,-0.4724,-0.4269,-0.4322,-0.4424,-0.4237,-0.3719,-0.356,-0.3303,-0.3006,-0.2808,-0.2808,-0.2973,-0.3142,-0.3467,-0.3755,-0.1456,0.1363,0.384,0.4542,0.6367,1.0406,1.2406,1.4424,1.5853,1.8448,2.0098,1.9904,1.9726,1.9567,1.9462,1.9931,2.0013,1.8875,1.5489,1.3395,1.3247,1.165,0.9859,1.0132,1.2359,1.488,1.5579,1.5937,1.5909,1.6142,1.6158,1.6227,1.6349,1.6483,1.6465,1.6467,1.6479,1.6534,1.6534,1.6559,1.6645,1.694,1.7303,1.7535,1.7502,1.8011,1.8957,1.9439,1.9992,2.0413,2.1549,2.2611,2.2641,2.3474,2.3638,2.361,2.4024,2.3994,2.4204,0.9036,0.7796,0.6548,0.469,0.2512,0.0653,-0.1276,-0.3218,-0.5011,-0.6368,-0.7421,-0.8408,-0.9172,-0.9763,-1.0465,-1.1333,-1.2304,-1.3037,-1.3232,-1.2955,-1.3087,-1.3053,-1.2855,-1.2668,-1.2553,-1.2364,-1.2071,-1.1702,-1.1314,-1.0973,-1.0535,-1.0058,-0.9613,-0.9157,-0.8684,-0.8017,-0.7308,-0.6773,-0.6691,-0.6106,-0.4941,-0.4011,-0.3523,-0.3351,-0.3384,-0.3323,-0.3167,-0.2973,-0.2676,-0.2414,-0.2278,-0.2311,-0.2513,-0.2849,-0.3438,-0.3712,-0.0141,0.3148,0.4604,0.6612,0.9669,1.3711,1.4766,1.6605,1.9543,1.9928,1.9828,1.9596,1.9271,1.8928,1.861,1.8779,1.9522,2.015,1.6697,1.4855,1.6816,1.4327,1.2645,1.2651,1.4187,1.568,1.61,1.6025,1.5981,1.6001,1.5869,1.5925,1.6156,1.62,1.6287,1.6436,1.6479,1.6534,1.6534,1.6534,1.6522,1.6774,1.7222,1.7418,1.7757,1.8338,1.8862,1.9308,1.9667,1.9953,2.0728,2.1939,2.2985,2.3963,2.4162,2.4036,2.3909,2.3436,2.3724,0.7841,0.7273,0.5987,0.4215,0.2199,0.0424,-0.141,-0.3104,-0.4833,-0.5819,-0.6535,-0.756,-0.8279,-0.8861,-0.9595,-1.0307,-1.101,-1.1897,-1.2403,-1.2471,-1.2607,-1.2537,-1.2309,-1.2169,-1.1968,-1.1707,-1.1306,-1.087,-1.0476,-1.007,-0.9639,-0.9153,-0.8601,-0.808,-0.7674,-0.6899,-0.6196,-0.5752,-0.566,-0.5136,-0.4028,-0.3089,-0.2596,-0.2461,-0.217,-0.2106,-0.2408,-0.2211,-0.1945,-0.1707,-0.164,-0.1809,-0.2114,-0.248,-0.3064,-0.281,0.0197,0.4541,0.8793,1.0511,1.3061,1.6272,1.8117,1.8457,1.9166,1.9572,1.949,1.9099,1.8679,1.8235,1.7735,1.7633,1.831,1.9682,1.7741,1.7078,1.7709,1.6885,1.57,1.5466,1.578,1.5881,1.61,1.6156,1.6113,1.6057,1.5913,1.5881,1.6156,1.62,1.6318,1.6448,1.6534,1.6534,1.6534,1.6534,1.6522,1.6607,1.7128,1.7487,1.7881,1.8398,1.8797,1.9248,1.9355,1.9614,1.9982,2.1145,2.221,2.3072,2.3557,2.4142,2.3867,2.3523,2.3392,0.7314,0.6693,0.5401,0.3792,0.1985,0.0508,-0.094,-0.2334,-0.3668,-0.4642,-0.5437,-0.6285,-0.704,-0.7819,-0.8607,-0.925,-0.9805,-1.0556,-1.1277,-1.1888,-1.1984,-1.187,-1.1657,-1.1461,-1.1179,-1.0758,-1.0341,-0.9957,-0.96,-0.9192,-0.876,-0.8206,-0.7627,-0.7046,-0.6465,-0.5784,-0.5148,-0.4523,-0.4732,-0.4247,-0.3016,-0.1932,-0.1503,-0.1628,-0.1335,-0.1103,-0.1,-0.117,-0.1103,-0.0835,-0.0668,-0.1003,-0.1776,-0.2181,-0.0963,0.1627,0.2869,0.5119,0.8662,1.1897,1.4366,1.6186,1.7205,1.7948,1.8555,1.8929,1.8877,1.8487,1.7954,1.7406,1.702,1.6881,1.7516,1.8849,1.7714,1.712,1.7716,1.6735,1.5944,1.5836,1.61,1.6318,1.6362,1.6275,1.6156,1.61,1.5925,1.5925,1.61,1.6188,1.6275,1.6479,1.6479,1.6534,1.6534,1.6522,1.6565,1.665,1.7031,1.7447,1.7895,1.8303,1.8737,1.908,1.9161,1.9398,1.972,2.0375,2.1439,2.2524,2.3345,2.3655,2.3791,2.3668,2.348,0.6745,0.5895,0.4819,0.3406,0.1859,0.0638,-0.0576,-0.1673,-0.2688,-0.3541,-0.441,-0.5229,-0.5973,-0.6717,-0.7482,-0.8067,-0.8557,-0.915,-0.9767,-1.0443,-1.0968,-1.0931,-1.0688,-1.0315,-0.9981,-0.9615,-0.9236,-0.8912,-0.8557,-0.8122,-0.7666,-0.7132,-0.6468,-0.5784,-0.5153,-0.4538,-0.3911,-0.3408,-0.3338,-0.2947,-0.1963,-0.0837,-0.0368,-0.06,-0.03,0.0,0.0267,0.0267,0.0233,0.02,0.0268,-0.0134,-0.0903,-0.0499,0.1406,0.462,0.6675,0.7921,0.87,1.2159,1.4881,1.5494,1.6271,1.712,1.7799,1.8255,1.8266,1.7939,1.7109,1.647,1.6169,1.6041,1.6525,1.7541,1.7088,1.6903,1.7237,1.6667,1.61,1.6057,1.6262,1.6436,1.6448,1.6275,1.6113,1.6113,1.6013,1.5925,1.61,1.6231,1.6349,1.6479,1.6479,1.6534,1.6534,1.6565,1.6607,1.6778,1.6947,1.7323,1.7706,1.8111,1.85,1.9008,1.9205,1.9538,1.9884,2.0111,2.0875,2.1964,2.3061,2.3405,2.3581,2.361,2.348,0.6214,0.5065,0.4193,0.3037,0.1676,0.0681,-0.0291,-0.1238,-0.2045,-0.2787,-0.3529,-0.444,-0.5117,-0.5619,-0.6359,-0.6913,-0.7281,-0.7802,-0.808,-0.8432,-0.9124,-0.9538,-0.9357,-0.8882,-0.853,-0.831,-0.7996,-0.7675,-0.7318,-0.6887,-0.6463,-0.5922,-0.5135,-0.4385,-0.3736,-0.3098,-0.2587,-0.2131,-0.1762,-0.1431,-0.0935,0.0167,0.0637,0.04,0.0867,0.1201,0.1468,0.1963,0.1999,0.1403,0.1338,0.117,0.1067,0.2101,0.4035,0.6529,1.0435,1.0211,0.9512,1.1763,1.4422,1.4897,1.5643,1.6574,1.7279,1.7647,1.7726,1.7417,1.632,1.5433,1.5256,1.5152,1.5541,1.6215,1.6625,1.6772,1.6892,1.665,1.6436,1.6275,1.6362,1.6491,1.6479,1.6231,1.6113,1.6113,1.6057,1.6057,1.6144,1.6275,1.6392,1.6479,1.6491,1.6534,1.6534,1.6534,1.6607,1.682,1.6989,1.724,1.7557,1.7935,1.8347,1.8822,1.9199,1.9581,1.9955,2.0146,2.0615,2.1628,2.2469,2.3036,2.3452,2.3629,2.3688,0.5023,0.4437,0.3522,0.2502,0.1405,0.0548,-0.0206,-0.1032,-0.163,-0.2319,-0.2988,-0.3723,-0.4301,-0.4833,-0.5466,-0.5922,-0.6318,-0.675,-0.6987,-0.7025,-0.7318,-0.7712,-0.7788,-0.7502,-0.7125,-0.6822,-0.6533,-0.6219,-0.5884,-0.5576,-0.5173,-0.4621,-0.3859,-0.3022,-0.2205,-0.1619,-0.1096,-0.07,-0.06,-0.0267,0.0334,0.1138,0.1575,0.154,0.1833,0.2227,0.2656,0.3477,0.364,0.3016,0.2893,0.2962,0.3167,0.4644,0.6318,0.8019,0.9527,1.0752,1.066,1.1689,1.3127,1.4326,1.4865,1.555,1.6728,1.715,1.7191,1.6841,1.5781,1.4828,1.4501,1.4592,1.5123,1.5865,1.659,1.7076,1.697,1.6876,1.6705,1.6491,1.6362,1.6349,1.6349,1.6213,1.6076,1.6132,1.6107,1.6076,1.6207,1.6318,1.6436,1.6479,1.6534,1.6534,1.6534,1.6534,1.6607,1.682,1.7031,1.7199,1.7529,1.7868,1.8293,1.8784,1.8898,1.9199,1.9762,2.0131,2.0827,2.1302,2.2469,2.3346,2.3717,2.3938,2.4007,0.4019,0.3746,0.2992,0.2086,0.1135,0.03,-0.0379,-0.093,-0.145,-0.1939,-0.2504,-0.3109,-0.3599,-0.4016,-0.4488,-0.4871,-0.5194,-0.5588,-0.5791,-0.5891,-0.5852,-0.6151,-0.6408,-0.6227,-0.5822,-0.5483,-0.5079,-0.4765,-0.4448,-0.4125,-0.3703,-0.3179,-0.2469,-0.1685,-0.0928,-0.0365,0.01,0.0467,0.0633,0.0899,0.1301,0.194,0.2242,0.2408,0.2728,0.3216,0.3899,0.461,0.4738,0.4349,0.4199,0.436,0.4922,0.6449,0.785,0.8883,0.9434,1.0059,1.0743,1.147,1.25,1.3633,1.4168,1.4978,1.6009,1.6644,1.6841,1.6394,1.5359,1.4578,1.4224,1.458,1.5095,1.5586,1.6532,1.7102,1.6989,1.6918,1.6791,1.6522,1.6362,1.6144,1.6207,1.5905,1.5905,1.6053,1.5887,1.6016,1.6232,1.6367,1.6448,1.6491,1.6534,1.6534,1.6534,1.6534,1.665,1.6863,1.7086,1.724,1.7488,1.7788,1.8055,1.8436,1.8592,1.8898,1.942,1.9912,2.0348,2.1137,2.2526,2.3334,2.3564,2.4095,2.4189,0.3192,0.3065,0.2494,0.1771,0.0996,0.0086,-0.0426,-0.083,-0.1304,-0.1683,-0.202,-0.2594,-0.3011,-0.3146,-0.3597,-0.3798,-0.4058,-0.4462,-0.4654,-0.4712,-0.4642,-0.4751,-0.5079,-0.4897,-0.4518,-0.4167,-0.369,-0.3325,-0.2932,-0.2508,-0.2082,-0.1619,-0.0928,-0.0332,0.0266,0.0734,0.1136,0.1567,0.1864,0.2062,0.2263,0.2669,0.2907,0.3101,0.3644,0.4285,0.496,0.5508,0.5588,0.5418,0.5244,0.547,0.6199,0.752,0.846,0.9026,0.9405,0.9762,1.0275,1.1187,1.2244,1.319,1.38,1.4526,1.5505,1.616,1.6285,1.5896,1.5015,1.4456,1.4359,1.4954,1.5345,1.5595,1.6353,1.6841,1.6918,1.6918,1.6791,1.6565,1.6318,1.61,1.5804,1.5562,1.5459,1.5598,1.5659,1.6089,1.6275,1.6411,1.6479,1.6491,1.6534,1.6534,1.6534,1.6534,1.6693,1.6905,1.7073,1.724,1.7406,1.7652,1.7814,1.8097,1.8544,1.8764,1.8988,1.9444,1.9827,2.0525,2.1611,2.2454,2.3146,2.3851,2.4176,0.2952,0.253,0.2045,0.1462,0.0835,0.0238,-0.0197,-0.0529,-0.0906,-0.1321,-0.1666,-0.2052,-0.2441,-0.2779,-0.294,-0.32,-0.3368,-0.3649,-0.3909,-0.3946,-0.3477,-0.3208,-0.3297,-0.3334,-0.3143,-0.2685,-0.2189,-0.1755,-0.1324,-0.096,-0.0463,0.0099,0.0432,0.0999,0.1532,0.1869,0.2368,0.2798,0.3057,0.3106,0.3196,0.3436,0.3649,0.3821,0.4552,0.5251,0.5813,0.6191,0.6518,0.6631,0.6366,0.6374,0.7187,0.8213,0.8971,0.9271,0.9444,0.9684,1.0136,1.0784,1.1688,1.3011,1.3616,1.4201,1.5315,1.5609,1.558,1.5225,1.4686,1.4452,1.4651,1.506,1.5428,1.5811,1.6303,1.6761,1.6748,1.6833,1.6748,1.6522,1.6269,1.6076,1.5764,1.562,1.5435,1.5212,1.5504,1.604,1.633,1.6466,1.6479,1.6534,1.6534,1.6534,1.6522,1.6565,1.6778,1.7037,1.7245,1.7453,1.7606,1.7824,1.8084,1.833,1.8604,1.8794,1.8987,1.8773,1.907,1.9899,2.0849,2.2076,2.3111,2.3769,2.4535,0.2441,0.2156,0.1709,0.1239,0.0772,0.023,-0.0115,-0.0404,-0.0729,-0.1062,-0.1355,-0.1542,-0.1742,-0.1945,-0.2175,-0.2371,-0.26,-0.2856,-0.2984,-0.2885,-0.2521,-0.2126,-0.1663,-0.1663,-0.1528,-0.1366,-0.0899,-0.0433,-0.0033,0.0399,0.083,0.1296,0.1667,0.2065,0.2501,0.2856,0.3139,0.3384,0.3635,0.3713,0.3653,0.393,0.434,0.4668,0.5302,0.5835,0.6237,0.6626,0.7047,0.7305,0.7216,0.7255,0.7811,0.8628,0.919,0.9444,0.9497,0.9632,1.0021,1.0739,1.1674,1.2855,1.3509,1.4256,1.489,1.5149,1.5043,1.4797,1.4566,1.4493,1.4882,1.5401,1.5735,1.5856,1.6279,1.6607,1.662,1.6663,1.665,1.6396,1.5948,1.5131,1.4797,1.5054,1.538,1.511,1.5426,1.5939,1.6343,1.6479,1.6479,1.6534,1.6534,1.6522,1.6522,1.665,1.6863,1.7187,1.7509,1.7771,1.802,1.8238,1.8428,1.8679,1.8861,1.9026,1.9099,1.8793,1.9049,2.0288,2.1459,2.2336,2.3114,2.3761,2.4653,0.1878,0.1888,0.145,0.1082,0.0725,0.0226,-0.0112,-0.0289,-0.0649,-0.0839,-0.0982,-0.1072,-0.1039,-0.0973,-0.1306,-0.1571,-0.1731,-0.1861,-0.1892,-0.1791,-0.1462,-0.1031,-0.0567,-0.0233,-0.0067,-0.03,0.0167,0.0634,0.1035,0.1505,0.1932,0.2299,0.2662,0.3024,0.336,0.3602,0.3801,0.3875,0.3977,0.3984,0.3882,0.4188,0.4648,0.5239,0.5703,0.6129,0.6521,0.6906,0.7314,0.7715,0.7888,0.807,0.8375,0.8806,0.9228,0.9497,0.9523,0.9684,1.0058,1.086,1.179,1.265,1.3544,1.4268,1.4687,1.4794,1.4641,1.4575,1.4465,1.4756,1.5175,1.5556,1.583,1.5948,1.6283,1.6484,1.6534,1.6534,1.6534,1.6434,1.5978,1.5228,1.4393,1.4167,1.4691,1.5166,1.552,1.5849,1.6266,1.6534,1.6534,1.6534,1.6534,1.6534,1.6522,1.6693,1.6918,1.7255,1.763,1.8008,1.8352,1.8608,1.8816,1.899,1.9187,1.9377,1.9663,1.9754,2.0283,2.122,2.1621,2.2087,2.287,2.3733,2.461,0.164,0.1644,0.1291,0.0955,0.0682,0.0379,0.0104,-0.0068,-0.0308,-0.0407,-0.0472,-0.0537,-0.0302,-0.0067,-0.0569,-0.0836,-0.08,-0.0766,-0.0699,-0.0599,-0.0267,0.0167,0.0534,0.0935,0.1268,0.1468,0.1536,0.1669,0.2037,0.2501,0.2852,0.3347,0.3602,0.3866,0.4035,0.4233,0.4234,0.4243,0.4288,0.4231,0.4271,0.4422,0.4774,0.537,0.5792,0.6271,0.6669,0.7059,0.7443,0.783,0.8156,0.8449,0.8712,0.9135,0.9378,0.9523,0.9644,0.9776,1.0071,1.0926,1.1818,1.2664,1.3501,1.4148,1.4519,1.4624,1.442,1.4352,1.4743,1.5389,1.6445,1.6166,1.6068,1.6275,1.6409,1.6534,1.6534,1.6534,1.6534,1.6471,1.607,1.5514,1.4622,1.4099,1.4695,1.533,1.5807,1.6048,1.6366,1.6534,1.6534,1.6534,1.6534,1.6534,1.6522,1.6748,1.6986,1.731,1.7712,1.8218,1.8561,1.8981,1.9217,1.9611,1.9822,1.9985,2.0283,2.0582,2.0894,2.1355,2.1532,2.1703,2.249,2.3278,2.4005,0.1377,0.1377,0.1075,0.0808,0.0572,0.037,0.0202,0.0034,-0.0101,-0.0134,-0.0101,0.0,0.037,0.0672,0.0535,0.03,0.0367,0.05,0.0567,0.0701,0.0968,0.1301,0.1569,0.1907,0.2239,0.2504,0.257,0.257,0.2805,0.3196,0.3534,0.3723,0.4003,0.4193,0.427,0.4269,0.4305,0.4349,0.4332,0.4308,0.4291,0.4424,0.4844,0.5307,0.5713,0.6154,0.6677,0.7027,0.748,0.8001,0.8365,0.8561,0.8795,0.9081,0.9405,0.9591,0.9788,0.9919,1.0264,1.1163,1.2197,1.2636,1.3536,1.4204,1.4446,1.4447,1.4241,1.4192,1.4712,1.5632,1.6503,1.6359,1.638,1.6434,1.6534,1.6534,1.6534,1.6534,1.6534,1.6534,1.6333,1.5743,1.4751,1.4562,1.491,1.5433,1.6048,1.6328,1.6479,1.6534,1.6534,1.6534,1.6534,1.6534,1.6577,1.6791,1.696,1.7284,1.7791,1.8297,1.8959,1.9434,2.004,2.0617,2.0684,2.0555,2.0826,2.107,2.1287,2.141,2.1477,2.1697,2.22,2.2846,2.3611,0.1179,0.1247,0.0943,0.0707,0.0538,0.037,0.0269,0.0168,0.0067,0.0034,0.0067,0.0403,0.0907,0.1377,0.1408,0.1371,0.1471,0.1571,0.1705,0.1835,0.2034,0.2332,0.257,0.2739,0.2937,0.3266,0.3462,0.3495,0.3384,0.3657,0.3868,0.4061,0.4258,0.432,0.4335,0.431,0.418,0.4149,0.4129,0.4156,0.4159,0.4411,0.4799,0.5258,0.5534,0.5945,0.6482,0.6927,0.74,0.7928,0.8346,0.8617,0.8656,0.8916,0.9324,0.9736,0.9995,1.0097,1.0483,1.1548,1.24,1.2621,1.3778,1.4269,1.4369,1.4287,1.4138,1.4051,1.4616,1.55,1.6338,1.6607,1.6552,1.6522,1.6534,1.6534,1.6534,1.6534,1.6534,1.6534,1.6534,1.5944,1.4952,1.5151,1.5549,1.5524,1.6103,1.6366,1.6534,1.6534,1.6534,1.6534,1.6534,1.6534,1.662,1.6833,1.7002,1.7209,1.7843,1.8451,1.9218,1.9967,2.0523,2.0982,2.1009,2.0935,2.126,2.141,2.141,2.141,2.141,2.1588,2.1973,2.2609,2.3343,0.1348,0.1451,0.1078,0.0841,0.074,0.0505,0.037,0.0303,0.0303,0.0168,0.0067,0.0672,0.1408,0.2042,0.2011,0.1973,0.2103,0.2305,0.2537,0.2699,0.2925,0.3192,0.3429,0.3523,0.3653,0.3891,0.4048,0.4016,0.3948,0.4023,0.4193,0.4448,0.4385,0.4455,0.4491,0.4349,0.429,0.4227,0.4126,0.4117,0.4309,0.4675,0.5005,0.5249,0.5589,0.5933,0.6297,0.6779,0.7301,0.7724,0.8295,0.8578,0.8645,0.8916,0.9434,0.9867,1.0186,1.0287,1.0547,1.1629,1.252,1.2796,1.3727,1.4247,1.4287,1.4144,1.3993,1.386,1.4494,1.5409,1.6245,1.6509,1.6522,1.6522,1.6534,1.6534,1.6534,1.6534,1.6534,1.6534,1.6534,1.5969,1.5166,1.5731,1.6208,1.612,1.6107,1.6371,1.6534,1.6534,1.6534,1.6534,1.6565,1.6565,1.6735,1.6947,1.7031,1.7199,1.7804,1.8503,1.9131,1.9813,2.0536,2.0894,2.1009,2.1179,2.1328,2.141,2.141,2.141,2.141,2.1506,2.1678,2.2366,2.311,0.1445,0.138,0.1174,0.1108,0.101,0.0875,0.0774,0.0774,0.074,0.0538,0.0403,0.1171,0.2006,0.2639,0.2709,0.2772,0.2933,0.3163,0.3392,0.3588,0.3811,0.4038,0.4237,0.4296,0.4398,0.4468,0.4564,0.473,0.4615,0.4436,0.4425,0.4522,0.4442,0.4316,0.4471,0.4275,0.4243,0.4182,0.4119,0.4194,0.4512,0.4861,0.5066,0.511,0.5399,0.5729,0.6143,0.6414,0.7056,0.7635,0.8339,0.8578,0.8728,0.9069,0.9605,1.0123,1.0249,1.0456,1.09,1.1801,1.2394,1.2947,1.3637,1.4103,1.4111,1.4046,1.3815,1.3484,1.4347,1.5356,1.6233,1.6509,1.6534,1.6534,1.6534,1.6534,1.6534,1.6534,1.6534,1.6534,1.6497,1.6032,1.5706,1.6032,1.6384,1.6333,1.6283,1.6421,1.6534,1.6534,1.6534,1.6534,1.6565,1.6607,1.6863,1.7115,1.7115,1.7306,1.7728,1.8368,1.8777,1.9418,2.0153,2.0799,2.105,2.122,2.1369,2.141,2.141,2.141,2.141,2.1554,2.1698,2.2024,2.2734,0.1577,0.1479,0.1408,0.1341,0.1311,0.1177,0.1145,0.1145,0.1111,0.1009,0.1106,0.1902,0.2735,0.3171,0.334,0.3467,0.3621,0.3956,0.4178,0.4371,0.4564,0.4718,0.4845,0.4941,0.4935,0.5004,0.5137,0.5179,0.5124,0.4944,0.4658,0.4578,0.4388,0.426,0.4203,0.4231,0.428,0.4362,0.4202,0.435,0.4713,0.502,0.5108,0.5146,0.5254,0.5502,0.5931,0.6213,0.6833,0.7604,0.8392,0.8728,0.8822,0.9313,0.9788,1.0199,1.0312,1.0443,1.0965,1.1692,1.2452,1.3023,1.3568,1.4013,1.4,1.3921,1.3735,1.3267,1.4274,1.5316,1.6195,1.6522,1.6534,1.6534,1.6534,1.6534,1.6534,1.6534,1.6534,1.6534,1.6534,1.6534,1.6321,1.6409,1.6522,1.6522,1.6534,1.6534,1.6534,1.6534,1.6534,1.6534,1.6522,1.665,1.6989,1.7199,1.7199,1.7319,1.7771,1.8173,1.8568,1.907,1.975,2.0354,2.0941,2.126,2.141,2.141,2.141,2.141,2.141,2.1554,2.1746,2.2044,2.264,0.1911,0.1911,0.1709,0.1573,0.1577,0.138,0.1279,0.1346,0.1315,0.1581,0.1973,0.2937,0.3467,0.37,0.3896,0.4021,0.4103,0.4403,0.4628,0.4814,0.4973,0.5163,0.5295,0.539,0.5439,0.5564,0.5614,0.5576,0.5455,0.522,0.5015,0.4851,0.4471,0.4327,0.4321,0.4435,0.4535,0.4584,0.4455,0.4544,0.4911,0.5166,0.5301,0.5359,0.5446,0.5572,0.5759,0.6101,0.6695,0.7483,0.8226,0.8942,0.9104,0.9593,1.0046,1.0224,1.0312,1.0391,1.0729,1.1558,1.2396,1.2896,1.3438,1.3927,1.3934,1.3702,1.3446,1.3619,1.4726,1.5429,1.6183,1.6534,1.6534,1.6534,1.6534,1.6534,1.6534,1.6534,1.6534,1.6534,1.6534,1.6534,1.6534,1.6534,1.6534,1.6534,1.6534,1.6534,1.6534,1.6534,1.6534,1.6534,1.6534,1.6693,1.7073,1.7199,1.724,1.7282,1.7563,1.798,1.8374,1.8873,1.9216,2.0178,2.084,2.1152,2.141,2.141,2.141,2.141,2.1458,2.1554,2.1828,2.2244,2.3013,0.2047,0.2081,0.2078,0.2009,0.1878,0.1814,0.1782,0.1816,0.1885,0.2281,0.2834,0.3565,0.4026,0.4248,0.4473,0.4666,0.482,0.5049,0.5207,0.5358,0.5515,0.5624,0.5756,0.5874,0.6021,0.6098,0.6077,0.6018,0.5963,0.5533,0.5223,0.4957,0.4599,0.454,0.4555,0.4695,0.4863,0.4873,0.4814,0.4911,0.5088,0.5349,0.5482,0.5473,0.5579,0.5635,0.5754,0.5911,0.6591,0.7316,0.7908,0.8599,0.9363,0.9867,1.0148,1.0313,1.0352,1.0378,1.0534,1.145,1.2449,1.3303,1.3697,1.3854,1.3848,1.3648,1.433,1.4904,1.5492,1.607,1.6333,1.6534,1.6534,1.6534,1.6534,1.6534,1.6534,1.6534,1.6534,1.6534,1.6534,1.6534,1.6534,1.6534,1.6534,1.6534,1.6534,1.6534,1.6522,1.6534,1.6534,1.6522,1.6565,1.6735,1.7115,1.7199,1.724,1.7323,1.7365,1.7701,1.8066,1.8152,1.8613,1.97,2.0731,2.1179,2.141,2.141,2.141,2.141,2.141,2.152,2.1931,2.2356,2.2965,0.2247,0.235,0.2507,0.2408,0.2214,0.2214,0.2211,0.2247,0.235,0.2808,0.3453,0.4016,0.4473,0.4756,0.5011,0.5207,0.5365,0.5554,0.5672,0.5797,0.5928,0.6036,0.6129,0.6315,0.6482,0.6597,0.6545,0.6468,0.618,0.5754,0.5429,0.5137,0.4897,0.4811,0.4834,0.502,0.5185,0.5195,0.5175,0.5185,0.532,0.5482,0.5614,0.5568,0.5654,0.5692,0.5824,0.6046,0.661,0.7291,0.7923,0.8574,0.9404,1.0046,1.0262,1.0404,1.0573,1.0638,1.073,1.1747,1.2847,1.3611,1.3756,1.3808,1.3741,1.3659,1.4279,1.6007,1.6434,1.6534,1.6534,1.6534,1.6534,1.6534,1.6534,1.6534,1.6534,1.6534,1.6534,1.6534,1.6534,1.6534,1.6534,1.6534,1.6534,1.6534,1.6534,1.6522,1.6522,1.6522,1.6565,1.6565,1.6607,1.6863,1.7115,1.7199,1.7253,1.724,1.7323,1.7488,1.7718,1.7869,1.8275,1.9293,2.027,2.1097,2.141,2.141,2.141,2.141,2.141,2.1471,2.1691,2.2088,2.2414,0.2646,0.2885,0.2907,0.2706,0.2474,0.2477,0.251,0.254,0.2712,0.3138,0.3779,0.443,0.4884,0.5131,0.5453,0.5609,0.5742,0.5897,0.599,0.6083,0.6291,0.6421,0.6551,0.6712,0.6915,0.7065,0.7013,0.6739,0.6335,0.6127,0.5748,0.5378,0.5185,0.5108,0.5117,0.5349,0.5492,0.5492,0.5444,0.5454,0.5501,0.5595,0.567,0.57,0.5846,0.5936,0.604,0.6392,0.6976,0.7679,0.8144,0.8827,0.9729,1.0122,1.0312,1.0339,1.1316,1.1316,1.0691,1.2598,1.3487,1.3735,1.3775,1.3775,1.3754,1.3788,1.4356,1.6183,1.6534,1.6534,1.6534,1.6534,1.6534,1.6534,1.6534,1.6534,1.6534,1.6534,1.6534,1.6534,1.6534,1.6534,1.6534,1.6534,1.6534,1.6534,1.6534,1.6522,1.6522,1.6565,1.662,1.665,1.6693,1.6905,1.7115,1.7157,1.7212,1.7253,1.7295,1.7419,1.7866,1.8301,1.8721,1.9225,2.0148,2.126,2.141,2.141,2.141,2.141,2.141,2.1458,2.1616,2.1835,2.2161,0.2911,0.3204,0.3175,0.3142,0.3101,0.3006,0.2973,0.3097,0.3364,0.3788,0.4269,0.4628,0.5068,0.5508,0.5765,0.5921,0.6091,0.6245,0.6337,0.6413,0.6686,0.6798,0.6957,0.7116,0.7324,0.7405,0.7357,0.7283,0.7082,0.6625,0.6166,0.5775,0.5461,0.5369,0.534,0.5446,0.5492,0.5492,0.5492,0.553,0.5625,0.5782,0.5874,0.5889,0.6214,0.6408,0.6516,0.6984,0.7575,0.8145,0.8585,0.901,0.9767,1.0161,1.0365,1.0586,1.1421,1.2059,1.2128,1.3213,1.3696,1.3775,1.3775,1.3775,1.3775,1.3594,1.465,1.5923,1.6471,1.6534,1.6534,1.6534,1.6534,1.6534,1.6534,1.6534,1.6534,1.6534,1.6534,1.6534,1.6534,1.6534,1.6534,1.6534,1.6534,1.6534,1.6534,1.6534,1.6522,1.662,1.6705,1.6791,1.6876,1.6989,1.7115,1.7157,1.7212,1.7212,1.7308,1.7404,1.7889,1.8419,1.9003,1.9439,2.0427,2.141,2.141,2.141,2.141,2.141,2.141,2.141,2.152,2.1664,2.1902,0.3204,0.3597,0.3569,0.3635,0.3728,0.3471,0.3434,0.3649,0.4011,0.4403,0.473,0.4947,0.5358,0.5828,0.6044,0.6137,0.6368,0.6551,0.6703,0.6816,0.7047,0.7196,0.7344,0.7491,0.7618,0.7684,0.7657,0.7555,0.74,0.6879,0.6425,0.6054,0.5712,0.5506,0.5465,0.5473,0.5501,0.552,0.5539,0.5644,0.583,0.6036,0.624,0.6413,0.6708,0.7002,0.7309,0.7732,0.8251,0.8694,0.8998,0.9243,0.9818,1.0136,1.0677,1.1434,1.2112,1.2847,1.3213,1.3422,1.3762,1.3708,1.3741,1.3741,1.3741,1.3594,1.4688,1.5772,1.6396,1.6534,1.6534,1.6534,1.6547,1.6547,1.6572,1.6584,1.6572,1.6584,1.6547,1.6547,1.6534,1.6534,1.6534,1.6534,1.6534,1.6534,1.6534,1.6534,1.6534,1.6663,1.6761,1.6833,1.696,1.7073,1.7157,1.7199,1.7212,1.7212,1.7267,1.7363,1.7657,1.8129,1.8886,1.9593,2.0394,2.1036,2.1293,2.141,2.141,2.141,2.141,2.141,2.141,2.1554,2.1793,0.3536,0.3961,0.3993,0.4091,0.4215,0.3928,0.3923,0.4167,0.459,0.4915,0.5081,0.5609,0.589,0.6021,0.626,0.6413,0.6543,0.6786,0.6975,0.7154,0.7383,0.753,0.7647,0.7773,0.785,0.7937,0.7942,0.7832,0.7566,0.7307,0.6862,0.6281,0.593,0.5826,0.5763,0.5843,0.5767,0.5689,0.5633,0.5745,0.5977,0.6523,0.6802,0.7037,0.7311,0.7681,0.8059,0.8534,0.8838,0.9206,0.9554,0.9767,1.0008,1.0135,1.1705,1.2991,1.3592,1.3631,1.3657,1.3749,1.3846,1.383,1.3744,1.3713,1.3739,1.3865,1.4904,1.5834,1.6534,1.6534,1.6534,1.6559,1.6572,1.6609,1.666,1.666,1.6647,1.6635,1.6597,1.6559,1.6534,1.6534,1.6534,1.6534,1.6534,1.6534,1.6534,1.6534,1.6577,1.6761,1.6846,1.6918,1.7044,1.717,1.7212,1.7212,1.7212,1.7212,1.7212,1.728,1.7573,1.7948,1.8742,1.949,2.0159,2.0705,2.1199,2.141,2.141,2.141,2.141,2.141,2.141,2.1506,2.1698,0.3667,0.4026,0.4156,0.428,0.4382,0.4576,0.4692,0.4839,0.5131,0.5352,0.5665,0.5828,0.6052,0.6214,0.6443,0.6595,0.6777,0.6996,0.7285,0.7491,0.7676,0.785,0.7976,0.8043,0.8091,0.8091,0.8127,0.8114,0.7928,0.7748,0.727,0.6655,0.643,0.6411,0.6521,0.6706,0.6314,0.5933,0.5802,0.596,0.6512,0.7229,0.7454,0.7603,0.8121,0.8493,0.8842,0.9255,0.9542,0.9755,0.9907,1.0046,1.0072,1.0315,1.1316,1.3396,1.3749,1.3762,1.3775,1.3788,1.3898,1.4132,1.4166,1.3835,1.3921,1.4326,1.5145,1.596,1.6509,1.6534,1.6534,1.6547,1.6735,1.6911,1.6961,1.6974,1.6974,1.6961,1.6886,1.6559,1.6534,1.6534,1.6534,1.6534,1.6534,1.6534,1.6534,1.6534,1.6577,1.6761,1.6888,1.6918,1.7073,1.7212,1.7212,1.7212,1.7212,1.7212,1.7212,1.7225,1.7398,1.7893,1.8654,1.9466,2.0241,2.084,2.128,2.141,2.141,2.141,2.141,2.141,2.141,2.1506,2.1602,0.4026,0.4194,0.4318,0.4479,0.4698,0.5017,0.5232,0.5421,0.5571,0.5797,0.6052,0.616,0.6291,0.6521,0.6695,0.6837,0.6987,0.7225,0.7491,0.7724,0.7937,0.8033,0.8158,0.8215,0.8187,0.8215,0.8215,0.8195,0.8101,0.7823,0.7388,0.7234,0.7111,0.7089,0.7107,0.7124,0.7024,0.6533,0.6229,0.6368,0.7078,0.7955,0.8059,0.83,0.8978,0.9267,0.9561,0.9957,1.0059,1.0187,1.0302,1.0379,1.0638,1.1068,1.1945,1.3756,1.3775,1.3775,1.3814,1.4083,1.4215,1.4472,1.4736,1.4673,1.4496,1.4676,1.5484,1.6233,1.6409,1.6534,1.6534,1.6584,1.6948,1.73,1.7325,1.735,1.735,1.735,1.7049,1.6647,1.6534,1.6534,1.6534,1.6534,1.6534,1.6534,1.6534,1.6534,1.6577,1.6663,1.6791,1.6876,1.7044,1.7212,1.7212,1.7212,1.7212,1.7212,1.7212,1.7238,1.7358,1.7686,1.8363,1.9402,2.0448,2.0954,2.1361,2.141,2.141,2.141,2.141,2.141,2.141,2.141,2.1506,0.4523,0.4555,0.4549,0.4768,0.5131,0.5352,0.5609,0.5921,0.5983,0.6153,0.636,0.6535,0.6695,0.6824,0.6996,0.7107,0.7285,0.7491,0.7695,0.7937,0.8043,0.8169,0.8187,0.8215,0.8215,0.8215,0.8215,0.8215,0.8157,0.8009,0.7903,0.7863,0.7684,0.7635,0.7728,0.7743,0.7724,0.7645,0.7175,0.7082,0.7824,0.843,0.8825,0.9159,0.9486,0.9765,1.013,1.0312,1.0325,1.056,1.073,1.0808,1.1368,1.2311,1.3356,1.3729,1.3775,1.4023,1.4141,1.4376,1.4508,1.4863,1.5351,1.5386,1.5309,1.5257,1.5932,1.6296,1.6497,1.6534,1.6534,1.6773,1.7124,1.7576,1.7815,1.7765,1.7689,1.7451,1.6898,1.6584,1.6534,1.6534,1.6534,1.6534,1.6534,1.6534,1.6534,1.6534,1.6534,1.662,1.6705,1.6791,1.696,1.7128,1.7212,1.7212,1.7212,1.7212,1.7251,1.7382,1.7552,1.7787,1.8061,1.9476,2.0953,2.1081,2.1361,2.1361,2.141,2.141,2.141,2.141,2.141,2.141,2.141,0.4864,0.4896,0.4953,0.5099,0.5352,0.5634,0.5828,0.5983,0.6321,0.6535,0.6695,0.6837,0.6996,0.7116,0.7303,0.7442,0.7579,0.7734,0.7937,0.8062,0.8169,0.8197,0.8215,0.8215,0.8215,0.8215,0.8215,0.8262,0.8322,0.8354,0.8459,0.8545,0.8443,0.8501,0.8513,0.8501,0.8478,0.8495,0.8388,0.7957,0.817,0.9075,0.9711,0.9671,0.9719,1.0091,1.0352,1.0352,1.0625,1.0926,1.1096,1.1318,1.1668,1.3056,1.367,1.3788,1.384,1.4271,1.4667,1.4826,1.4924,1.5312,1.5782,1.598,1.6048,1.6082,1.6195,1.6409,1.6534,1.6534,1.6609,1.6936,1.7325,1.7815,1.8267,1.8129,1.799,1.74,1.6785,1.6622,1.6547,1.6534,1.6534,1.6534,1.6534,1.6534,1.6534,1.6534,1.6534,1.6577,1.662,1.6705,1.6833,1.696,1.7086,1.7277,1.7316,1.7382,1.7447,1.7604,1.7865,1.8506,1.9245,2.0342,2.1451,2.1536,2.1511,2.1388,2.1423,2.141,2.141,2.141,2.141,2.141,2.141,0.5334,0.5365,0.5358,0.5446,0.5634,0.5859,0.6021,0.6176,0.6551,0.6816,0.6978,0.7116,0.7273,0.7421,0.7569,0.7676,0.7811,0.7947,0.8033,0.8158,0.8215,0.8215,0.8215,0.8215,0.829,0.829,0.829,0.8365,0.8495,0.8623,0.875,0.8965,0.9112,0.9205,0.9178,0.9097,0.9054,0.9042,0.9124,0.8881,0.8538,0.9429,0.9932,0.9803,0.998,1.0391,1.0717,1.0782,1.1122,1.1422,1.1592,1.2167,1.2651,1.3435,1.3735,1.3905,1.4154,1.4602,1.5101,1.535,1.5376,1.5796,1.6185,1.6355,1.6308,1.6346,1.6346,1.6534,1.6534,1.6534,1.6534,1.676,1.735,1.789,1.8204,1.8279,1.7953,1.7463,1.6936,1.6572,1.6534,1.6534,1.6534,1.6534,1.6534,1.6534,1.6534,1.6609,1.6597,1.6647,1.6665,1.6645,1.6744,1.6846,1.7002,1.7258,1.7499,1.7565,1.7826,1.8493,1.912,1.9721,2.0502,2.1458,2.1996,2.1943,2.1872,2.1655,2.1415,2.141,2.141,2.141,2.141,2.141,2.141,0.5842,0.578,0.5742,0.5797,0.5921,0.6021,0.6145,0.6337,0.6681,0.6966,0.7225,0.7372,0.7549,0.7725,0.7802,0.7879,0.7937,0.8043,0.8169,0.8197,0.8215,0.8215,0.8244,0.8262,0.8347,0.8421,0.8449,0.8533,0.8634,0.8773,0.8976,0.9232,0.9366,0.9473,0.9313,0.9162,0.9054,0.8905,0.8894,0.8949,0.9307,0.979,0.9881,1.0008,1.0302,1.0704,1.1122,1.1515,1.1775,1.2076,1.2268,1.2821,1.3239,1.3683,1.3709,1.3905,1.4393,1.4922,1.5492,1.5813,1.59,1.6084,1.646,1.6595,1.6522,1.6534,1.6534,1.6534,1.6534,1.6534,1.6534,1.676,1.7375,1.7978,1.8242,1.8505,1.8103,1.7702,1.7262,1.681,1.6697,1.6697,1.6534,1.6534,1.6609,1.6597,1.6647,1.6685,1.676,1.6861,1.6898,1.6791,1.669,1.6794,1.6901,1.7161,1.7486,1.8545,1.8963,1.9743,2.0384,2.0856,2.1433,2.2283,2.2638,2.2391,2.2113,2.1861,2.1677,2.1477,2.141,2.141,2.141,2.141,2.141,0.6029,0.5811,0.5905,0.5967,0.6021,0.6206,0.639,0.6521,0.6816,0.7145,0.745,0.7666,0.786,0.8111,0.813,0.8119,0.8091,0.8169,0.8169,0.8215,0.8215,0.8215,0.8272,0.8365,0.846,0.8505,0.8561,0.8634,0.869,0.8855,0.9112,0.9393,0.9698,0.9684,0.9432,0.9232,0.9003,0.8866,0.8739,0.8767,0.929,0.968,0.988,1.0263,1.0846,1.1096,1.1424,1.2026,1.2402,1.2781,1.3108,1.3448,1.3631,1.3775,1.3775,1.4067,1.4518,1.5453,1.6004,1.6064,1.6135,1.6359,1.6607,1.6565,1.6534,1.6534,1.6534,1.6534,1.6534,1.6534,1.6584,1.6911,1.7438,1.8091,1.8518,1.8794,1.8744,1.8405,1.8041,1.7626,1.7313,1.6999,1.6534,1.6672,1.6974,1.7024,1.72,1.7262,1.7426,1.7338,1.7225,1.6936,1.6735,1.6751,1.6876,1.7125,1.7591,1.8872,2.0126,2.0897,2.1472,2.1812,2.2413,2.3067,2.2936,2.264,2.2353,2.2226,2.1839,2.164,2.1477,2.141,2.1437,2.141,2.141]},{"header":{"parameterUnit":"m.s-1","parameterCategory":1,"la1":31.0,"la2":29.5877,"lo1":-88.7671,"lo2":-86.6584,"dy":0.0162,"dx":0.0185,"nx":115,"ny":88,"refTime":"2026-05-09T00:00:00:Z","depth":0,"parameterNumber":3,"parameterNumberName":"V-component_of_WINDS"},"data":[0.0,0.0,0.0,0.0,0.0,0.0,0.0,0.0,0.0,0.0,0.0,0.0,0.0,0.0,0.0,0.0,0.0,0.0,0.0,0.0,0.0,0.0,0.0,0.0,0.0,0.0,0.0,0.0,0.0,0.0,0.0,0.0,0.0,0.0,0.0,0.0,0.0,0.0,0.0,0.0,0.0,0.0,0.0,0.0,0.0,0.0,0.0,0.0,0.0,0.0,0.0,0.0,0.0,0.0,0.0,0.0,0.0,0.0,0.0,0.0,0.0,0.0,0.0,0.0,0.0,0.0,0.0,0.0,0.0,0.0,0.0,0.0,0.0,0.0,0.0,0.0,0.0,0.0,0.0,0.0,0.0,0.0,0.0,0.0,0.0,0.0,0.0,0.0,0.0,0.0,0.0,0.0,0.0,0.0,0.0,0.0,0.0,0.0,0.0,0.0,0.0,0.0,0.0,0.0,0.0,0.0,0.0,0.0,0.0,0.0,0.0,0.0,0.0,0.0,0.0,0.0,0.0,0.0,0.0,0.0,0.0,0.0,0.0,0.0,0.0,0.0,0.0,0.0,0.0,0.0,0.0,0.0,0.0,0.0,0.0,0.0,0.0,0.0,0.0,0.0,0.0,0.0,0.0,0.0,0.0,0.0,0.0,0.0,0.0,0.0,0.0,0.0,0.0,0.0,0.0,0.0,0.0,0.0,0.0,0.0,0.0,0.0,0.0,0.0,0.0,0.0,0.0,0.0,0.0,0.0,0.0,0.0,0.0,0.0,0.0,0.0,0.0,0.0,0.0,0.0,0.0,0.0,0.0,0.0,0.0,0.0,0.0,0.0,0.0,0.0,0.0,0.0,0.0,0.0,0.0,0.0,0.0,0.0,0.0,0.0,0.0,0.0,0.0,0.0,0.0,0.0,0.0,0.0,0.0,0.0,0.0,0.0,0.0,0.0,0.0,0.0,0.0,0.0,0.0,0.0,0.0,0.0,0.0,0.0,0.0,0.0,0.0,0.0,0.0,0.0,0.0,0.0,0.0,0.0,0.0,0.0,0.0,0.0,0.0,0.0,0.0,0.0,0.0,0.0,0.0,0.0,0.0,0.0,0.0,0.0,0.0,0.0,0.0,0.0,0.0,0.0,0.0,0.0,0.0,0.0,0.0,0.0,0.0,0.0,0.0,0.0,0.0,0.0,0.0,0.0,0.0,0.0,0.0,0.0,0.0,0.0,0.0,0.0,0.0,0.0,0.0,0.0,0.0,0.0,0.0,0.0,0.0,0.0,0.0,0.0,0.0,0.0,0.0,0.0,0.0,0.0,0.0,0.0,0.0,0.0,0.0,0.0,0.0,0.0,0.0,0.0,0.0,0.0,0.0,0.0,0.0,0.0,0.0,0.0,0.0,0.0,0.0,0.0,0.0,0.0,0.0,0.0,0.0,0.0,0.0,0.0,0.0,0.0,0.0,0.0,0.0,0.0,0.0,0.0,0.0,0.0,0.0,0.0,0.0,0.0,0.0,0.0,0.0,0.0,0.0,0.0,0.0,0.0,0.0,0.0,0.0,0.0,0.0,0.0,0.0,0.0,0.0,0.0,0.0,0.0,0.0,0.0,0.0,0.0,0.0,0.0,0.0,0.0,0.0,0.0,0.0,0.0,0.0,0.0,0.0,0.0,0.0,0.0,0.0,0.0,0.0,0.0,0.0,0.0,0.0,0.0,0.0,0.0,0.0,0.0,0.0,0.0,0.0,0.0,0.0,0.0,0.0,0.0,0.0,0.0,0.0,0.0,0.0,0.0,0.0,0.0,0.0,0.0,0.0,0.0,0.0,0.0,0.0,0.0,0.0,0.0,0.0,0.0,0.0,0.0,0.0,0.0,0.0,0.0,0.0,0.0,0.0,0.0,0.0,0.0,0.0,0.0,0.0,0.0,0.0,0.0,0.0,0.0,0.0,0.0,0.0,0.0,0.0,0.0,0.0,0.0,0.0,0.0,0.0,0.0,0.0,0.0,0.0,0.0,0.0,0.0,0.0,0.0,0.0,0.0,0.0,0.0,0.0,0.0,0.0,0.0,0.0,0.0,0.0,0.0,0.0,0.0,0.0,0.0,0.0,0.0,0.0,0.0,0.0,0.0,0.0,0.0,0.0,0.0,0.0,0.0,0.0,0.0,0.0,0.0,0.0,0.0,0.0,0.0,0.0,0.0,0.0,0.0,0.0,0.0,0.0,0.0,0.0,0.0,0.0,0.0,0.0,0.0,0.0,0.0,0.0,0.0,0.0,0.0,0.0,0.0,0.0,0.0,0.0,0.0,0.0,0.0,0.0,0.0,0.0,0.0,0.0,0.0,0.0,0.0,0.0,0.0,0.0,0.0,0.0,0.0,0.0,0.0,0.0,0.0,0.0,0.0,0.0,0.0,0.0,0.0,0.0,0.0,0.0,0.0,0.0,0.0,0.0,0.0,0.0,0.0,0.0,0.0,0.0,0.0,0.0,0.0,0.0,0.0,0.0,0.0,0.0,0.0,0.0,0.0,0.0,0.0,0.0,0.0,0.0,0.0,0.0,0.0,0.0,0.0,0.0,0.0,0.0,0.0,0.0,0.0,0.0,0.0,0.0,0.0,0.0,0.0,0.0,0.0,0.0,0.0,0.0,0.0,0.0,0.0,0.0,0.0,0.0,0.0,0.0,0.0,0.0,0.0,0.0,0.0,0.0,0.0,0.0,0.0,0.0,0.0,0.0,0.0,0.0,0.0,0.0,0.0,0.0,0.0,0.0,0.0,0.0,0.0,0.0,0.0,0.0,0.0,0.0,0.0,0.0,0.0,0.0,0.0,0.0,0.0,0.0,0.0,0.0,0.0,0.0,0.0,0.0,0.0,0.0,0.0,0.0,0.0,0.0,0.0,0.0,0.0,0.0,0.0,0.0,0.0,0.0,0.0,0.0,0.0,0.0,0.0,0.0,0.0,0.0,0.0,0.0,0.0,0.0,0.0,0.0,0.0,0.0,0.0,0.0,0.0,0.0,0.0,0.0,0.0,0.0,0.0,0.0,0.0,0.0,0.0,0.0,0.0,0.0,0.0,0.0,0.0,0.0,0.0,0.0,0.0,0.0,0.0,0.0,0.0,0.0,0.0,0.0,0.0,0.0,0.0,0.0,0.0,0.0,0.0,0.0,0.0,0.0,0.0,0.0,0.0,0.0,0.0,0.0,0.0,0.0,0.0,0.0,0.0,0.0,0.0,0.0,0.0,0.0,0.0,0.0,0.0,0.0,0.0,0.0,0.0,0.0,0.0,0.0,0.0,0.0,0.0,0.0,0.0,0.0,0.0,0.0,0.0,0.0,0.0,0.0,0.0,0.0,0.0,0.0,0.0,0.0,0.0,0.0,0.0,0.0,0.0,0.0,0.0,0.0,0.0,0.0,0.0,0.0,0.0,0.0,0.0,0.0,0.0,0.0,0.0,0.0,0.0,0.0,0.0,0.0,0.0,0.0,0.0,0.0,0.0,0.0,0.0,0.0,0.0,0.0,0.0,0.0,0.0,0.0,0.0,0.0,0.0,0.0,0.0,0.0,0.0,0.0,0.0,0.0,0.0,0.0,0.0,0.0,0.0,0.0,0.0,0.0,0.0,0.0,0.0,0.0,0.0,0.0,0.0,0.0,0.0,0.0,0.0,0.0,0.0,0.0,0.0,0.0,0.0,0.0,0.0,0.0,0.0,0.0,0.0,0.0,0.0,0.0,0.0,0.0,0.0,0.0,0.0,0.0,0.0,0.0,0.0,0.0,0.0,0.0,0.0,0.0,0.0,0.0,0.0,0.0,0.0,0.0,0.0,0.0,0.0,0.0,0.0,0.0,0.0,0.0,0.0,0.0,0.0,0.0,0.0,0.0,0.0,0.0,0.0,0.0,0.0,0.0,0.0,0.0,0.0,0.0,0.0,0.0,0.0,0.0,0.0,0.0,0.0,0.0,0.0,0.0,0.0,0.0,0.0,0.0,0.0,0.0,0.0,0.0,0.0,0.0,0.0,0.0,0.0,0.0,0.0,0.0,0.0,0.0,0.0,0.0,0.0,0.0,0.0,0.0,0.0,0.0,0.0,0.0,0.0,0.0,0.0,0.0,0.0,0.0,0.0,0.0,0.0,0.0,0.0,0.0,0.0,0.0,0.0,0.0,0.0,0.0,0.0,0.0,0.0,0.0,0.0,0.0,0.0,0.0,0.0,0.0,0.0,0.0,0.0,0.0,0.0,0.0,0.0,0.0,0.0,0.0,0.0,0.0,0.0,0.4951,0.0,0.0,0.0,0.0,0.0,0.0,0.0,0.0,0.0,0.0,0.0,0.0,0.0,0.0,0.0,0.0,0.0,0.0,0.0,0.0,0.0,0.0,0.0,0.0,0.0,0.0,0.0,0.0,0.0,0.0,0.0,0.0,0.0,0.0,0.0,0.0,0.0,0.0,0.0,0.0,0.0,0.0,0.0,0.0,0.0,0.0,0.0,0.0,0.0,0.0,0.0,0.0,0.0,0.0,0.0,0.0,0.0,0.0,0.0,0.0,0.0,0.0,0.0,0.0,0.0,0.0,0.0,0.0,0.0,0.0,0.0,0.0,0.0,0.0,0.0,0.0,0.0,0.0,0.0,0.0,0.0,0.0,0.0,0.0,0.0,0.0,0.0,0.0,0.0,0.0,0.0,0.0,0.0,0.0,0.0,0.0,0.0,0.0,0.0,0.0,0.0,0.0,0.0,0.0,0.0,0.0,0.0,0.0,0.0,0.0,0.4713,0.4961,0.4961,0.5049,0.5205,0.0,0.0,0.0,0.0,0.0,0.0,0.0,0.0,0.0,0.0,0.0,0.0,0.0,0.0,0.0,0.0,0.0,0.0,0.0,0.0,0.0,0.0,0.0,0.0,0.0,0.0,0.0,0.0,0.0,0.0,0.0,0.0,0.0,0.0,0.0,0.0,0.0,0.0,0.0,0.0,0.0,0.0,0.0,0.0,0.0,0.0,0.0,0.0,0.0,0.0,0.0,0.0,0.0,0.0,0.0,0.0,0.0,0.0,0.0,0.0,0.0,0.0,0.0,0.0,0.0,0.0,0.0,0.0,0.0,0.0,0.0,0.0,0.0,0.0,0.0,0.0,0.0,0.0,0.0,0.0,0.0,0.0,0.0,0.0,0.0,0.0,0.0,0.0,0.0,0.0,0.0,0.0,0.0,0.0,0.0,0.0,0.0,0.0,0.0,0.0,0.0,0.0,0.0,0.0,0.0,0.0,0.0,0.0,0.0,0.0,0.0,0.0,0.5205,0.5253,0.5435,0.0,0.0,0.0,0.0,0.0,0.0,0.0,0.0,0.0,0.0,0.0,0.0,0.0,0.0,0.0,0.0,0.0,0.0,0.0,0.0,0.0,0.0,0.0,0.0,0.0,0.0,0.0,0.0,0.0,0.0,0.0,0.0,0.0,0.0,0.0,0.0,0.0,0.0,0.0,0.0,0.0,0.0,0.0,0.0,0.0,0.0,0.0,0.0,0.0,0.0,0.0,0.0,0.0,0.0,0.0,0.0,0.0,0.0,0.0,0.0,0.0,0.0,0.0,0.0,0.0,0.0,0.0,0.0,0.0,0.0,0.0,0.0,0.0,0.0,0.0,0.0,0.0,0.0,0.0,0.0,0.0,0.0,0.0,0.0,0.0,0.0,0.0,0.0,0.0,0.0,0.0,0.0,0.0,0.0,0.0,0.0,0.0,0.0,0.0,0.0,0.0,0.0,0.0,0.0,0.0,0.0,0.0,0.0,0.0,0.0,0.515,0.5885,0.5513,0.0,0.5558,0.0,0.0,0.0,0.0,0.0,0.0,0.0,0.0,0.0,0.0,0.0,0.0,0.0,0.0,0.0,0.0,0.0,0.0,0.0,0.0,0.0,0.0,0.0,0.0,0.0,0.0,0.0,0.0,0.0,0.0,0.0,0.0,0.0,0.0,0.0,0.0,0.0,0.0,0.0,0.0,0.0,0.0,0.0,0.0,0.0,0.0,0.0,0.0,0.0,0.0,0.0,0.0,0.0,0.0,0.0,0.0,0.0,0.0,0.0,0.0,0.0,0.0,0.0,0.0,0.0,0.0,0.0,0.0,0.0,0.0,0.0,0.0,0.0,0.0,0.0,0.0,0.0,0.0,0.0,0.0,0.0,0.0,0.0,0.0,0.0,0.0,0.0,0.0,0.0,0.0,0.0,0.0,0.0,0.0,0.0,0.0,0.0,0.0,0.0,0.0,0.0,0.0,0.0,0.0,0.0,0.0,0.0,0.0,0.0,0.0,0.5701,0.6576,0.6565,0.6424,0.0,0.0,0.0,0.0,0.0,0.0,0.0,0.0,0.0,0.0,0.0,0.0,0.0,0.0,0.0,0.0,0.0,0.0,0.0,0.0,0.0,0.0,0.0,0.0,0.0,0.0,0.0,0.0,0.0,0.0,0.0,0.0,0.0,0.0,0.0,0.0,0.0,0.0,0.0,0.0,0.0,0.0,0.0,0.0,0.0,0.0,0.0,0.0,0.0,0.0,0.0,0.0,0.0,0.0,0.0,0.0,0.0,0.0,0.0,0.0,0.0,0.0,0.0,0.0,0.0,0.0,0.0,0.0,0.0,0.0,0.0,0.0,0.0,0.0,0.0,0.0,0.0,0.0,0.0,0.0,0.0,0.0,0.0,0.0,0.0,0.0,0.0,0.0,0.0,0.0,0.0,0.0,0.0,0.0,0.0,0.0,0.0,0.0,0.0,0.0,0.0,0.0,0.0,0.0,0.0,0.0,0.0,0.0,0.0,0.0,0.5242,0.586,0.6616,0.7146,0.7091,0.6363,0.0,0.0,0.0,0.0,0.0,0.0,0.0,0.0,0.0,0.0,0.0,0.0,0.0,0.0,0.0,0.0,0.0,0.0,0.0,0.0,0.0,0.0,0.0,0.0,0.0,0.0,0.0,0.0,0.0,0.0,0.0,0.0,0.0,0.0,0.0,0.0,0.0,0.0,0.0,0.0,0.0,0.0,0.0,0.0,0.0,0.0,0.0,0.0,0.0,0.0,0.0,0.0,0.0,0.0,0.0,0.0,0.0,0.0,0.0,0.0,0.0,0.0,0.0,0.0,0.0,0.0,0.0,0.0,0.0,0.0,0.0,0.0,0.0,0.0,0.0,0.0,0.0,0.0,0.0,0.0,0.0,0.0,0.0,0.0,0.0,0.0,0.0,0.0,0.0,0.0,0.0,0.0,0.0,0.0,0.0,0.0,0.0,0.0,0.0,0.0,0.0,0.0,0.0,0.0,0.0,0.0,0.0,0.0,0.0,0.5078,0.539,0.5821,0.6879,0.6999,0.0,0.0,0.0,0.0,0.0,0.0,0.0,0.0,0.0,0.0,0.0,0.0,0.0,0.0,0.0,0.0,0.0,0.0,0.0,0.0,0.0,0.0,0.0,0.0,0.0,0.0,0.0,0.0,0.0,0.0,0.0,0.0,0.0,0.0,0.0,0.0,0.0,0.0,0.0,0.0,0.0,0.0,0.0,0.0,0.0,0.0,0.0,0.0,0.0,0.0,0.0,0.0,0.0,0.0,0.0,0.0,0.0,0.0,0.0,0.0,0.0,0.0,0.0,0.0,0.0,0.0,0.0,0.0,0.0,0.0,0.0,0.0,0.0,0.0,0.0,0.0,0.0,0.0,0.0,0.0,0.0,0.0,0.0,0.0,0.0,0.0,0.0,0.0,0.0,0.0,0.0,0.0,0.0,0.0,0.0,0.0,0.0,0.0,0.0,0.0,0.0,0.0,0.0,0.0,0.0,0.0,0.0,0.0,0.0,0.4803,0.5204,0.5813,0.6619,0.7237,0.7073,0.0,0.0,0.0,0.0,0.0,0.0,0.0,0.0,0.0,0.0,0.0,0.0,0.0,0.0,0.0,0.0,0.0,0.0,0.0,0.0,0.0,0.0,0.0,0.0,0.0,0.0,0.0,0.0,0.0,0.0,0.0,0.0,0.0,0.0,0.0,0.0,0.0,0.0,0.0,0.0,0.0,0.0,0.0,0.0,0.0,0.0,0.0,0.0,0.0,0.0,0.0,0.0,0.0,0.0,0.0,0.0,0.0,0.0,0.0,0.0,0.0,0.0,0.0,0.0,0.0,0.0,0.0,0.0,0.0,0.0,0.0,0.0,0.0,0.0,0.0,0.0,0.0,0.0,0.0,0.0,0.0,0.0,0.0,0.0,0.0,0.0,0.0,0.0,0.0,0.0,0.0,0.0,0.0,0.0,0.0,0.0,0.0,0.0,0.0,0.0,0.0,0.0,0.0,0.0,0.0,0.0,0.0,0.0,0.0,0.5292,0.0,0.6156,0.0,0.7269,0.6973,0.0,0.0,0.0,0.0,0.0,0.0,0.0,0.0,0.0,0.0,0.0,0.0,0.0,0.0,0.0,0.0,0.0,0.0,0.0,0.0,0.0,0.0,0.0,0.0,0.0,0.0,0.0,0.0,0.0,0.0,0.0,0.0,0.0,0.0,0.0,0.0,0.0,0.0,0.0,0.0,0.0,0.0,0.0,0.0,0.0,0.0,0.0,0.0,0.0,0.0,0.0,0.0,0.0,0.0,0.0,0.0,0.0,0.0,0.0,0.0,0.0,0.0,0.0,0.0,0.0,0.0,0.0,0.0,0.0,0.0,0.0,0.0,0.0,0.0,0.0,0.0,0.0,0.0,0.0,0.0,0.0,0.0,0.0,0.0,0.0,0.0,0.0,0.0,0.0,0.0,0.0,0.0,0.0,0.0,0.0,0.0,0.0,0.0,0.0,0.0,0.0,0.0,0.0,0.0,0.0,0.0,0.0,0.0,0.5442,0.6276,0.6295,0.6525,0.6819,0.6915,0.6716,0.0,0.0,0.0,0.0,0.0,0.0,0.0,0.0,0.0,0.0,0.0,0.0,0.0,0.0,0.0,0.0,0.0,0.0,0.0,0.0,0.0,0.0,0.0,0.0,0.0,0.0,0.0,0.0,0.0,0.0,0.0,0.0,0.0,0.0,0.0,0.0,0.0,0.0,0.0,0.0,0.0,0.0,0.0,0.0,0.0,0.0,0.0,0.0,0.0,0.0,0.0,0.0,0.0,0.0,0.0,0.0,0.0,0.0,0.0,0.0,0.0,0.0,0.0,0.0,0.0,0.0,0.0,0.0,0.0,0.0,0.0,0.0,0.0,0.0,0.0,0.0,0.0,0.0,0.0,0.0,0.0,0.0,0.0,0.0,0.0,0.0,0.0,0.0,0.0,0.0,0.0,0.0,0.0,0.0,0.0,0.0,0.0,0.0,0.0,0.0,0.0,0.0,0.0,0.0,0.0,0.0,0.0,0.0,0.0,0.739,0.8108,0.8358,0.8167,0.7482,0.6923,0.0,0.0,0.0,0.0,0.0,0.0,0.0,0.0,0.0,0.0,0.0,0.0,0.0,0.0,0.0,0.0,0.0,0.0,0.0,0.0,0.0,0.0,0.0,0.0,0.0,0.0,0.0,0.0,0.0,0.0,0.0,0.0,0.0,0.0,0.0,0.0,0.0,0.0,0.0,0.0,0.0,0.0,0.0,0.0,0.0,0.0,0.0,0.0,0.0,0.0,0.0,0.0,0.0,0.0,0.0,0.0,0.0,0.0,0.0,0.0,0.0,0.0,0.0,0.0,0.0,0.0,0.0,0.0,0.0,0.0,0.0,0.0,0.0,0.0,0.0,0.0,0.0,0.0,0.0,0.0,0.0,0.0,0.0,0.0,0.0,0.0,0.0,0.0,0.0,0.0,0.0,0.0,0.0,0.0,0.0,0.0,0.0,0.0,0.0,0.0,0.0,0.0,0.0,0.0,0.0,0.0,0.0,0.0,0.0,0.902,1.0574,1.087,0.9766,0.8519,0.7702,0.73,0.0,0.0,0.0,0.0,0.0,0.0,0.0,0.0,0.0,0.0,0.0,0.0,0.0,0.0,0.0,0.0,0.0,0.0,0.0,0.0,0.0,0.0,0.0,0.0,0.0,0.0,0.0,0.0,0.0,0.0,0.0,0.0,0.0,0.0,0.0,0.0,0.0,0.0,0.0,0.0,0.0,0.0,0.0,0.0,0.0,0.0,0.0,0.0,0.0,0.0,0.0,0.0,0.0,0.0,0.0,0.0,0.0,0.0,0.0,0.0,0.0,0.0,0.0,0.0,0.0,0.0,0.0,0.0,0.0,0.0,0.0,0.0,0.0,0.0,0.0,0.0,0.0,0.0,0.0,0.0,0.0,0.0,0.0,0.0,0.0,0.0,0.0,0.0,0.0,0.0,0.0,0.0,0.0,0.0,0.0,0.0,0.0,0.0,0.0,0.0,0.0,0.0,0.0,0.0,0.0,0.0,0.0,0.0,1.0977,1.3428,1.3582,1.1394,0.99,0.8924,0.0,0.0,0.0,0.0,0.0,0.0,0.0,0.0,0.0,0.0,0.0,0.0,0.0,0.0,0.0,0.0,0.0,0.0,0.0,0.0,0.0,0.0,0.0,0.0,0.0,0.0,0.0,0.0,0.0,0.0,0.0,0.0,0.0,0.0,0.0,0.0,0.0,0.0,0.0,0.0,0.0,0.0,0.0,0.0,0.0,0.0,0.0,0.0,0.0,0.0,0.0,0.0,0.0,0.0,0.0,0.0,0.0,0.0,0.0,0.0,0.0,0.0,0.0,0.0,0.0,0.0,0.0,0.0,0.0,0.0,0.0,0.0,0.0,0.0,0.0,0.0,0.0,0.0,0.0,0.0,0.0,0.0,0.0,0.0,0.0,0.0,0.0,0.0,0.0,0.0,0.0,0.0,0.0,0.0,0.0,0.0,0.0,0.0,0.0,0.0,0.0,0.0,0.0,0.0,0.0,0.0,0.0,0.0,0.0,1.1383,1.4273,1.4592,1.2118,1.0973,0.983,0.0,0.0,0.0,0.0,0.0,0.0,0.0,0.0,0.0,0.0,0.0,0.0,0.0,0.0,0.0,0.0,0.0,0.0,0.0,0.0,0.0,0.0,0.0,0.0,0.0,0.0,0.0,0.0,0.0,0.0,0.0,0.0,0.0,0.0,0.0,0.0,0.0,0.0,0.0,0.0,0.0,0.0,0.0,0.0,0.0,0.0,0.0,0.0,0.0,0.0,0.0,0.0,0.0,0.0,0.0,0.0,0.0,0.0,0.0,0.0,0.0,0.0,0.0,0.0,0.0,0.0,0.0,0.0,0.0,0.0,0.0,0.0,0.0,0.0,0.0,0.0,0.0,0.0,0.0,0.0,0.0,0.0,0.0,0.0,0.0,0.0,0.0,0.0,0.0,0.0,0.0,0.0,0.0,0.0,0.0,0.0,0.0,0.0,0.0,0.0,0.0,0.0,0.0,0.0,0.0,0.0,0.0,0.0,0.8234,1.2113,1.5188,1.5599,1.3226,1.214,1.0979,0.0,0.0,0.0,0.0,0.0,0.0,0.0,0.0,0.0,0.0,0.0,0.0,0.0,0.0,0.0,0.0,0.0,0.0,0.0,0.0,0.0,0.0,0.0,0.0,0.0,0.0,0.0,0.0,0.0,0.0,0.0,0.0,0.0,0.0,0.0,0.0,0.0,0.0,0.0,0.0,0.0,0.0,0.0,0.0,0.0,0.0,0.0,0.0,0.0,0.0,0.0,0.0,0.0,0.0,0.0,0.0,0.0,0.0,0.0,0.0,0.0,0.0,0.0,0.0,0.0,0.0,0.0,0.0,0.0,0.0,0.0,0.0,0.0,0.0,0.0,0.0,0.0,0.0,0.0,0.0,0.0,0.0,0.0,0.0,0.0,0.0,0.0,0.0,0.0,0.0,0.0,0.0,0.0,0.0,0.0,0.0,0.0,0.0,0.0,0.0,0.0,0.0,0.0,0.0,0.0,0.0,0.0,0.0,0.8552,1.285,1.5903,1.6517,1.4542,1.3423,1.2232,0.0,0.0,0.0,0.0,0.0,0.0,0.0,0.0,0.0,0.0,0.0,0.0,0.0,0.0,0.0,0.0,0.0,0.0,0.0,0.0,0.0,0.0,0.0,0.0,0.0,0.0,0.0,0.0,0.0,0.0,0.0,0.0,0.0,0.0,0.0,0.0,0.0,0.0,0.0,0.0,0.0,0.0,0.0,0.0,0.0,0.0,0.0,0.0,0.0,0.0,0.0,0.0,0.0,0.0,0.0,0.0,0.0,0.0,0.0,0.0,0.0,0.0,0.0,0.0,0.0,0.0,0.0,0.0,0.0,0.0,0.0,0.0,0.0,0.0,0.0,0.0,0.0,0.0,0.0,0.0,0.0,0.0,0.0,0.0,0.0,0.0,0.0,0.0,0.0,0.0,0.0,0.0,0.0,0.0,0.0,0.0,0.0,0.0,0.0,0.0,0.0,0.0,0.0,0.0,0.0,0.0,0.0,0.0,0.8969,1.2298,1.5624,1.6536,1.4923,1.4636,1.3175,0.0,0.0,0.0,0.0,0.0,0.0,0.0,0.0,0.0,0.0,0.0,0.0,0.0,0.0,0.0,0.0,0.0,0.0,0.0,0.0,0.0,0.0,0.0,0.0,0.0,0.0,0.0,0.0,0.0,0.0,0.0,0.0,0.0,0.0,0.0,0.0,0.0,0.0,0.0,0.0,0.0,0.0,0.0,0.0,0.0,0.0,0.0,0.0,1.36,0.0,0.0,0.0,0.0,0.0,0.0,0.0,0.0,0.0,0.0,0.0,0.0,0.0,0.0,0.0,0.0,0.0,0.0,0.0,0.0,0.0,0.0,0.0,0.0,0.0,0.0,0.0,0.0,0.0,0.0,0.0,0.0,0.0,0.0,0.0,0.0,0.0,0.0,0.0,0.0,0.0,0.0,0.0,0.0,0.0,0.0,0.0,0.0,0.0,0.0,0.0,0.0,0.0,0.0,0.0,0.0,0.0,0.0,0.0,0.9787,1.2811,1.4833,1.5425,1.4665,1.4584,1.3272,0.0,0.0,0.0,0.0,0.0,0.0,0.0,0.0,0.0,0.0,0.0,0.0,0.0,0.0,0.0,0.0,0.0,0.0,0.0,0.0,0.0,0.0,0.0,0.0,0.0,0.0,0.0,0.0,0.0,0.0,0.0,0.0,0.0,0.0,0.0,0.0,0.0,0.0,0.0,0.0,0.0,0.0,0.0,0.0,0.0,0.0,0.0,0.0,0.0,0.0,0.0,0.0,0.0,0.0,0.0,0.0,0.0,0.0,0.0,0.0,0.0,0.0,0.0,0.0,0.0,0.0,0.0,0.0,0.0,0.0,0.0,0.0,0.0,0.0,0.0,0.0,0.0,0.0,0.0,0.0,0.0,0.0,0.0,0.0,0.0,0.0,0.0,0.0,0.0,0.0,0.0,0.0,0.0,0.0,0.0,0.0,0.0,0.0,0.0,0.0,0.0,0.0,0.0,0.0,0.0,0.0,0.0,0.9061,1.0687,1.3236,1.3755,1.397,1.397,1.3791,1.27,1.0533,0.0,0.0,0.0,0.0,0.0,0.0,0.0,0.0,0.0,0.0,0.0,0.0,0.0,0.0,0.0,0.0,0.0,0.0,0.0,0.0,0.0,0.0,0.0,0.0,0.0,0.0,0.0,0.0,0.0,0.0,0.0,0.0,0.0,0.0,0.0,0.0,0.0,0.0,0.8612,0.9565,0.0,0.0,0.0,0.0,0.0,0.0,0.0,0.0,1.0807,0.0,0.0,0.0,0.0,0.0,0.0,0.0,0.0,0.0,0.0,0.0,0.0,0.0,0.0,0.0,0.0,0.0,0.0,0.0,0.0,0.0,0.0,0.0,0.0,0.0,0.0,0.0,0.0,0.0,0.0,0.0,0.0,0.0,0.0,0.0,0.0,0.0,0.0,0.0,0.0,0.0,0.0,0.0,0.0,0.0,0.0,0.0,0.0,0.0,0.0,0.0,0.0,0.0,0.0,0.0,0.0,0.7521,0.9602,1.11,1.1916,1.2609,1.2938,1.2842,1.232,1.119,0.944,0.0,0.0,0.0,0.0,0.0,0.0,0.0,0.0,0.0,0.0,0.0,0.0,0.0,0.0,0.0,0.0,0.0,0.0,0.0,0.0,0.0,0.0,0.0,0.0,0.0,0.0,0.0,0.0,0.0,0.0,0.0,0.0,0.0,0.0,0.0,0.0,0.0,0.0,0.0,1.0235,1.0773,0.0,0.0,0.0,0.0,0.0,0.0,0.0,0.0,0.8254,0.0,0.0,0.0,0.0,0.0,0.0,0.0,0.0,0.0,0.0,0.0,0.0,0.0,0.0,0.0,0.0,0.0,0.0,0.0,0.0,0.0,0.0,0.0,0.0,0.0,0.0,0.0,0.0,0.0,0.0,0.0,0.0,0.0,0.0,0.0,0.0,0.0,0.0,0.0,0.0,0.0,0.0,0.0,0.0,0.0,0.0,0.0,0.0,0.0,0.0,0.0,0.0,0.0,0.0,0.0,0.767,0.9329,1.0672,1.1616,1.2258,1.246,1.2207,1.1499,1.037,0.0,0.0,0.0,0.0,0.0,0.0,0.0,0.0,0.0,0.0,0.0,0.0,0.0,0.0,0.0,0.0,0.0,0.0,0.0,0.0,0.0,0.0,0.0,0.0,0.0,0.0,0.0,0.0,0.0,0.0,0.0,0.0,0.0,0.0,0.0,0.0,0.0,0.0,0.0,0.0,1.08,1.1426,1.1922,0.0,0.0,0.0,0.0,0.0,0.0,0.9842,0.9306,0.0,0.0,0.0,0.0,0.0,0.0,0.0,0.0,0.0,0.0,0.0,0.0,0.0,0.0,0.0,0.0,0.0,0.0,0.0,0.0,0.0,0.0,0.0,0.0,0.0,0.0,0.0,0.0,0.0,0.0,0.0,0.0,0.0,0.0,0.0,0.0,0.0,0.0,0.0,0.0,0.0,0.0,0.0,0.0,0.0,0.0,0.0,0.0,0.0,0.0,0.0,0.0,0.0,0.0,0.0,0.7663,0.8824,1.0026,1.1233,1.1955,1.2077,1.1511,1.0788,0.9679,0.0,0.0,0.0,0.0,0.0,0.0,0.0,0.0,0.0,0.0,0.0,0.0,0.0,0.0,0.0,0.0,0.0,0.0,0.0,0.0,0.0,0.0,0.0,0.0,0.0,0.0,0.0,0.0,0.0,0.0,0.0,0.0,0.0,0.0,0.0,0.0,0.0,0.0,0.0,0.0,0.0,1.2061,1.2678,1.2133,0.0,0.0,0.0,0.0,1.0226,1.1136,0.0,0.0,0.0,0.0,0.0,0.0,0.0,0.0,0.0,0.0,0.0,0.0,0.0,0.0,0.0,0.0,0.0,0.0,0.0,0.0,0.0,0.0,0.0,0.0,0.0,0.0,0.0,0.0,0.0,0.0,0.0,0.0,0.0,0.0,0.0,0.0,0.0,0.0,0.0,0.0,0.0,0.0,0.0,0.0,0.0,0.0,0.0,0.0,0.0,0.0,0.0,0.0,0.0,0.0,0.0,0.0,0.6681,0.8548,0.96,0.9881,1.1113,1.1398,1.0573,0.9727,0.8725,0.0,0.0,0.0,0.0,0.0,0.0,0.0,0.0,0.0,0.0,0.0,0.0,0.0,0.0,0.0,0.0,0.0,0.0,0.0,0.0,0.0,0.0,0.0,0.0,0.0,0.0,0.0,0.0,0.0,0.0,0.0,0.0,0.0,0.0,0.0,0.0,0.0,0.0,0.0,0.0,0.0,1.2595,1.2692,1.2826,1.2903,0.0,0.0,1.279,1.2625,1.36,0.0,0.0,0.0,0.0,0.0,0.0,0.0,0.0,0.0,0.0,0.0,0.0,0.0,0.0,0.0,0.0,0.0,0.0,0.0,0.0,0.0,0.0,0.0,0.0,0.0,0.0,0.0,0.0,0.0,0.0,0.0,0.0,0.0,0.0,0.0,0.0,0.0,0.0,0.0,0.0,0.0,0.0,0.0,0.0,0.0,0.0,0.0,0.0,0.0,0.0,0.0,0.0,0.0,0.0,0.0,0.5472,0.6591,0.8643,0.9719,0.9743,1.103,1.133,1.0501,0.9541,0.838,0.0,0.0,0.0,0.0,0.0,0.0,0.0,0.0,0.0,0.0,0.0,0.0,0.0,0.0,0.0,0.0,0.0,0.0,0.0,0.0,0.0,0.0,0.0,0.0,0.0,0.0,0.0,0.0,0.0,0.0,0.0,0.0,0.0,0.0,0.0,0.0,0.0,0.0,0.0,0.0,0.0,0.0,1.3718,1.3713,0.0,0.0,0.0,1.3586,1.4896,0.0,0.0,0.0,0.0,0.0,0.0,0.0,0.0,0.0,0.0,0.0,0.0,0.0,0.0,0.0,0.0,0.0,0.0,0.0,0.0,0.0,0.0,0.0,0.0,0.0,0.0,0.0,0.0,0.0,0.0,0.0,0.0,0.0,0.0,0.0,0.0,0.0,0.0,0.0,0.0,0.0,0.0,0.0,0.0,0.0,0.0,0.0,0.0,0.0,0.0,0.0,0.0,0.0,0.0,0.0,0.0,0.0,0.6458,0.8542,0.9624,0.9695,1.0825,1.1107,1.0309,0.9305,0.0,0.0,0.0,0.0,0.0,0.0,0.0,0.0,0.0,0.0,0.0,0.0,0.0,0.0,0.0,0.0,0.0,0.0,0.0,0.0,0.0,0.0,0.0,0.0,0.0,0.0,0.0,0.3282,0.0,0.0,0.0,0.0,0.0,0.0,0.0,0.0,0.0,0.0,0.0,0.0,0.0,0.0,1.35,1.4575,1.4475,1.4509,0.0,0.0,1.3868,1.6312,1.5637,1.4132,0.0,0.0,0.0,0.0,0.0,0.0,0.0,0.0,0.0,0.0,0.0,0.0,0.0,0.0,0.0,0.0,0.0,0.0,0.0,0.0,0.0,0.0,0.0,0.0,0.0,0.0,0.0,0.0,0.0,0.0,0.0,0.0,0.0,0.0,0.0,0.0,0.0,0.0,0.0,0.0,0.0,0.0,0.0,0.0,0.0,0.0,0.0,0.0,0.0,0.0,0.0,0.0,0.0,0.0,0.0,0.6049,0.7899,0.9012,0.9259,1.0101,1.0321,0.9772,0.8785,0.7715,0.0,0.0,0.0,0.0,0.0,0.0,0.0,0.0,0.0,0.0,0.0,0.0,0.0,0.0,0.0,0.0,0.0,0.0,0.0,0.0,0.0,0.0,0.0,0.0,0.0,0.0,0.0,0.0,0.0,0.0,0.0,0.0,0.0,0.0,0.0,0.0,0.0,0.0,0.0,0.0,0.0,1.4124,1.471,1.4996,1.5391,0.0,0.0,1.3868,1.6298,1.5623,1.4662,1.4311,0.0,0.0,0.0,0.0,0.0,0.0,0.0,0.0,0.0,0.0,0.0,0.0,0.0,0.0,0.0,0.0,0.0,0.0,0.0,0.0,0.0,0.0,0.0,0.0,0.0,0.0,0.0,0.0,0.0,0.0,0.0,0.0,0.0,0.0,0.0,0.0,0.0,0.0,0.0,0.0,0.0,0.0,0.0,0.0,0.0,0.0,0.0,0.0,0.0,0.0,0.0,0.0,0.0,0.4374,0.6064,0.7962,0.9019,0.9271,1.0072,1.0263,0.9722,0.8653,0.7719,0.0,0.0,0.0,0.0,0.0,0.0,0.0,0.0,0.0,0.0,0.0,0.0,0.0,0.0,0.0,0.0,0.0,0.0,0.0,0.0,0.0,0.0,0.0,0.0,0.0,0.0,0.0,0.0,0.4846,0.5131,0.5683,0.0,0.0,0.0,0.0,0.0,0.0,0.0,0.0,0.0,0.0,1.5198,1.5777,1.6356,0.0,0.0,1.6224,1.5859,1.6744,1.5703,1.4763,1.4686,1.3665,0.0,0.0,0.0,0.0,0.0,0.0,0.0,0.0,0.0,0.0,0.0,0.0,0.0,0.0,0.0,0.0,0.0,0.0,0.0,0.0,0.0,0.0,0.0,0.0,0.0,0.0,0.0,0.0,0.0,0.0,0.0,0.0,0.0,0.0,0.0,0.0,0.0,0.0,0.0,0.0,0.0,0.0,0.0,0.0,0.0,0.0,0.0,0.0,0.0,0.0,0.0,0.0,0.3884,0.5474,0.7164,0.8187,0.8579,0.9193,0.9317,0.8885,0.787,0.708,0.0,0.0,0.0,0.0,0.0,0.0,0.0,0.0,0.0,0.0,0.0,0.0,0.0,0.0,0.0,0.0,0.0,0.0,0.0,0.0,0.0,0.0,0.0,0.0,0.0,0.0,0.0,0.0,0.5688,0.5829,0.6178,0.0,0.0,0.0,0.0,0.0,0.0,0.0,0.0,0.0,0.0,1.6248,1.7039,1.7685,1.8089,1.8201,1.777,1.7533,1.7772,1.629,1.5011,1.4839,0.0,0.0,0.0,0.0,0.0,0.0,0.0,0.0,0.0,0.0,0.0,0.0,0.0,0.0,0.0,0.0,0.0,0.0,0.0,0.0,0.0,0.0,0.0,0.0,0.0,0.0,0.0,0.0,0.0,0.0,0.0405,0.0,0.0,0.0,0.0,0.0,0.0,0.0,0.0,0.0,0.0,0.0,0.0,0.0,0.0,0.0,0.0,0.0,0.0,0.0,0.0,0.0,0.0,0.3282,0.4167,0.5396,0.6266,0.706,0.7223,0.7377,0.7224,0.6327,0.5619,0.5094,0.0,0.0,0.0,0.0,0.0,0.0,0.0,0.0,0.0,0.0,0.0,0.0,0.0,0.0,0.0,0.0,0.0,0.0,0.0,0.0,0.0,0.0,0.0,0.0,0.0,0.0,0.6681,0.6839,0.6951,0.0,0.0,0.0,0.0,0.0,0.0,0.0,0.0,0.0,0.0,1.5841,1.721,1.8346,1.874,1.9084,1.9703,1.8803,1.8377,1.9456,1.749,1.5566,0.0,0.0,0.0,0.0,0.0,0.0,0.0,0.0,0.0,0.0,0.0,0.0,0.0,0.0,0.0,0.0,0.0,0.0,0.0,0.0,0.0,0.0,0.0,0.0,0.0,0.0,0.0,0.0989,0.0895,0.0,0.0,0.0,0.0,0.0,0.0,0.0,0.0,0.0,0.0,0.0,-0.1889,-0.1581,0.0,0.0,0.0,0.0,0.0,0.0,0.0,0.0,0.0,0.0,0.0,0.0,0.4639,0.5677,0.7617,0.9218,1.0398,1.0606,1.0685,1.0597,1.0045,0.9034,0.7531,0.0,0.0,0.0,0.0,0.0,0.0,0.0,0.0,0.0,0.0,0.0,0.0,0.0,0.0,0.0,0.0,0.0,0.0,0.0,0.0,0.0,0.0,0.0,0.0,0.0,0.7378,0.0,0.0,0.0,0.0,0.0,0.0,0.0,0.0,0.0,0.0,0.0,1.503,1.6753,1.741,1.8036,1.8958,1.9477,1.9905,0.0,0.0,0.0,0.0,0.0,0.0,0.0,0.0,0.0,0.0,0.0,0.0,0.0,0.0,1.6771,1.4513,1.471,1.4619,1.2677,0.0,0.0,0.0,0.0,0.0,0.0,0.0,0.0,0.0,0.0,0.0,0.0,0.0,0.0,0.1188,0.0,0.0811,0.0,0.0,0.0,0.0,0.0,0.0,0.0,0.0,-0.2981,-0.2959,-0.2514,-0.1176,-0.0212,0.0,0.1035,0.1678,0.0,0.0,0.0,0.0,0.0,0.0,0.0,0.0,0.5531,0.6921,0.8885,1.0406,1.1383,1.1559,1.1582,1.1501,1.0842,0.9801,0.8402,0.7543,0.6827,0.0,0.0,0.0,0.0,0.0,0.0,0.0,0.0,0.0,0.0,0.0,0.0,0.0,0.0,0.0,0.0,0.0,0.0,0.0,0.0,0.0,0.0,0.0,0.8216,0.0,0.0,0.0,0.0,0.0,0.0,0.0,0.0,0.0,1.3482,1.4744,1.6148,1.7761,1.8315,1.8761,1.924,0.0,0.0,0.0,0.0,0.0,0.0,0.0,1.9417,1.8615,1.8615,1.876,1.8896,1.8599,1.8385,1.8595,0.0,0.0,1.7052,1.677,1.6195,1.4383,1.4189,1.4014,1.301,1.3059,1.3131,0.0,0.0,0.0,0.0,0.0,0.0,0.0,0.0,0.1758,0.1488,0.0,0.0909,0.0,0.0,0.0,0.0,0.0,-0.2889,0.0,0.0,-0.3988,-0.3871,-0.3071,0.0159,0.2042,0.2759,0.5707,0.7155,0.6915,0.2386,0.0,0.0,0.0,0.0,0.0,0.0,0.6063,0.7903,0.9196,0.9895,1.0267,1.0236,1.0176,1.0065,0.8991,0.8251,0.7734,0.7449,0.7124,0.6873,0.5874,0.0,0.0,0.0,0.0,0.0,0.0,0.0,0.0,0.0,0.0,0.0,0.0,0.0,0.0,0.0,0.0,0.0,0.0,0.0,0.0,0.9621,0.0,0.0,0.0,0.0,0.0,0.0,0.0,0.0,0.0,0.0,1.5887,1.6225,1.6607,1.7606,0.0,0.0,0.0,0.0,2.035,2.0397,2.0335,2.032,2.0381,2.0021,1.9179,1.7749,0.0,0.0,1.979,1.9363,1.9292,1.9338,1.9245,1.8963,1.8358,1.7704,1.705,1.6393,1.5374,1.4458,1.4373,1.4434,1.4446,0.4694,0.0,0.0,0.0,0.0,0.3234,0.3022,0.283,0.2221,0.1701,0.1272,0.0555,0.0,0.0,0.0,0.0,0.0,0.0,-0.3225,-0.3276,-0.3565,-0.2391,0.0052,0.1842,0.4277,0.7336,1.0896,1.2531,1.2325,1.0787,0.8261,0.4952,0.0,0.0,0.0,0.0,0.9031,1.0321,1.1914,1.3061,1.3788,1.3818,1.3831,1.3782,1.2276,1.1412,1.1277,1.004,0.9075,0.8404,0.8649,0.0,0.0,0.0,0.0,0.0,0.0,0.0,0.0,0.0,0.0,0.0,0.0,0.0,0.0,0.0,0.0,0.0,0.0,0.0,1.1446,1.1674,1.1464,0.0,0.0,0.0,0.0,0.0,0.0,0.0,0.0,0.0,1.7393,1.7376,1.7791,0.0,0.0,1.9641,2.0597,2.0905,2.1198,2.1639,2.0936,0.0,2.1599,2.0597,1.9811,2.015,2.1256,2.1838,2.1311,2.1339,2.1244,2.063,2.0307,2.0022,1.9442,1.8673,1.8249,1.8301,1.7435,1.6402,1.6053,1.6233,1.6269,0.6138,0.5364,0.4619,0.4316,0.4345,0.4115,0.3894,0.366,0.2737,0.196,0.1232,-0.0234,-0.1595,-0.2672,-0.2131,0.0,0.0,0.0,-0.3474,-0.3575,-0.239,-0.0524,0.1903,0.4554,0.7117,0.9732,1.2997,1.4478,1.4237,1.3977,1.234,0.9457,0.0,0.0,0.9268,1.0647,1.1616,1.2097,1.3507,1.455,1.5184,1.5332,1.5251,1.4863,1.375,1.2891,1.2324,1.1014,1.0055,0.9544,1.0023,0.9334,0.0,0.0,0.0,0.0,0.0,0.0,0.0,0.0,0.0,0.0,0.0,0.5387,0.6179,0.0,0.0,0.0,0.7324,0.9695,1.3438,1.3324,0.0,0.0,0.0,0.0,0.0,0.0,0.0,1.3283,1.6088,1.8268,1.8915,1.8808,1.8994,1.9811,2.0011,2.0397,2.1198,0.0,2.1824,2.2224,2.1609,2.1347,2.2163,2.1866,2.1711,2.217,2.2325,2.242,2.244,2.2493,2.2156,2.1369,2.0908,2.051,1.9901,1.9258,1.8896,1.9144,1.8597,1.7869,1.7219,1.7255,1.7123,0.7509,0.7556,0.6237,0.5639,0.545,0.518,0.4942,0.4666,0.3247,0.2204,0.1266,-0.1255,-0.2853,-0.3597,-0.3182,0.0,-0.3596,-0.3403,-0.3427,-0.3711,-0.0335,0.1869,0.3259,0.7694,1.0058,1.0547,1.2849,1.3817,1.3546,1.3253,1.3005,1.2753,1.3446,1.3246,1.2242,1.3144,1.3529,1.3197,1.4035,1.4654,1.4978,1.5244,1.4968,1.4098,1.3794,1.298,1.1659,1.0762,1.0312,1.0309,1.0319,1.031,1.0211,0.0,0.0,0.0,0.0,0.0,0.0,0.0,0.0,0.0,0.0,0.0,0.0,0.0,0.0,0.0,1.1086,0.0,1.5403,1.4805,0.0,0.0,0.0,1.5433,1.5955,1.6435,1.6347,1.5419,0.0,0.0,2.0373,2.0304,2.0088,1.9551,2.0535,2.1301,2.1347,2.1963,2.2378,2.2517,2.2471,2.2455,2.2609,2.3329,2.3808,2.3488,2.3031,2.2827,2.3142,2.2889,2.2356,2.1561,2.1077,2.061,1.9914,1.9567,1.9303,1.9081,1.8975,1.8758,1.8106,1.7671,1.7442,0.8867,0.8779,0.7912,0.6906,0.5927,0.5709,0.6266,0.7008,0.3533,0.1972,0.1728,-0.1531,-0.3327,-0.3881,-0.3792,-0.3709,-0.3463,-0.0549,0.0846,0.1202,0.4114,0.6352,0.7944,0.8826,1.0262,1.2138,1.2496,1.2486,1.2239,1.193,1.164,1.1384,1.1299,1.1629,1.2251,1.2575,1.284,1.3049,1.3469,1.4061,1.4821,1.5063,1.4801,1.3969,1.3292,1.2481,1.1567,1.0736,1.0311,1.0312,1.031,1.0322,1.031,0.9509,0.0,0.0,0.0,0.0,0.0,0.0,0.0,0.0,0.0,0.721,0.9111,0.0,0.8101,0.0,1.3917,1.6758,1.6712,1.6917,0.0,0.0,1.7186,1.7562,1.8636,1.8588,1.8585,1.8907,2.0275,2.099,2.0527,2.0373,2.0478,2.0837,2.1142,2.147,2.1963,2.2624,2.324,2.3671,2.3763,2.384,2.3769,2.3766,2.3724,2.3638,2.346,2.3387,2.3493,2.3172,2.2572,2.1819,2.1259,2.0696,1.994,1.9565,1.9303,1.904,1.8987,1.8951,1.877,1.857,1.8365,1.0186,1.0272,0.9663,0.8166,0.6215,0.7062,0.778,0.7946,0.4342,0.2209,0.1055,-0.3065,-0.483,-0.4747,-0.4621,-0.346,-0.142,0.0794,0.3294,0.5977,0.7368,0.8962,1.0616,0.9951,1.0303,1.1551,1.1133,1.0785,1.0545,1.0211,0.9943,0.974,0.9389,0.9677,1.0562,1.1379,1.2037,1.2554,1.3255,1.39,1.4503,1.4802,1.454,1.3785,1.2796,1.2006,1.1473,1.0698,1.0324,1.031,1.0312,1.0311,1.0321,1.0314,0.9452,0.0,0.0,0.0,0.0,0.0,0.0,0.0,0.0,0.0,0.0,0.0,1.012,1.3343,1.6289,1.8005,1.8086,1.8376,1.8722,1.906,1.9389,1.9828,2.045,2.0714,2.084,2.0727,2.1295,2.1526,2.0925,2.1142,2.1321,2.145,2.1867,2.2317,2.2701,2.3317,2.3887,2.4241,2.4302,2.4302,2.4302,2.3909,2.3595,2.3595,2.3566,2.3581,2.3523,2.3157,2.2603,2.1988,2.1431,2.0809,2.0003,1.9708,1.9512,1.9408,1.9146,1.904,1.8987,1.8839,1.8625,1.1586,1.1805,1.1424,0.9252,0.6262,0.8476,0.905,0.8231,0.4615,0.1745,-0.0694,-0.4872,-0.6258,-0.5453,-0.5135,-0.2677,0.1325,0.19,0.5188,1.0468,1.0079,1.0539,1.1764,1.0684,1.0065,0.981,0.9305,0.8971,0.8756,0.8479,0.8241,0.8126,0.7809,0.7878,0.8344,0.9856,1.1064,1.1948,1.3143,1.3856,1.4131,1.4444,1.4266,1.3551,1.2402,1.1662,1.1395,1.069,1.0349,1.0438,1.0366,1.0312,1.0312,1.0324,1.0418,0.0,0.9197,0.0,0.0,0.0,0.0,0.0,0.0,0.0,0.0,1.1221,1.2937,1.7922,1.8309,1.8585,1.9216,1.9375,1.9804,2.068,2.1391,2.1792,2.184,2.2597,2.2775,2.1788,2.2104,2.2135,2.1482,2.208,2.2368,2.1952,2.2562,2.3225,2.3456,2.3902,2.4271,2.4302,2.4302,2.4261,2.4177,2.3867,2.3595,2.361,2.3538,2.3494,2.3407,2.3038,2.2572,2.2077,2.1616,2.097,2.0016,1.9862,1.9747,1.9643,1.9239,1.8934,1.8934,1.8774,1.856,1.2992,1.3112,1.2734,0.9843,0.5786,0.7904,0.9121,0.8977,0.1293,-0.2932,-0.4396,-0.4904,-0.4787,-0.4216,-0.3774,-0.1195,0.3056,0.5428,0.9205,1.3933,1.3103,1.2056,1.0814,0.954,0.8708,0.8306,0.7987,0.7758,0.7617,0.7396,0.728,0.7227,0.6969,0.7127,0.7676,0.0,0.0,0.0,1.2438,1.3125,1.3704,1.3991,1.3859,1.3288,1.2621,0.0,1.1412,1.0656,1.0554,1.1215,1.0647,0.0,0.0,0.0,0.0,0.0,0.0,0.0,0.0,0.0,0.0,0.0,1.5249,1.4198,1.369,1.4112,1.6014,1.9698,2.0078,1.9745,1.9052,1.9818,2.0701,2.1543,2.1733,2.2263,2.3405,2.3475,2.3413,2.3713,2.3181,2.2508,2.185,2.2338,2.2776,2.2823,2.3103,2.3502,2.404,2.421,2.4302,2.4302,2.4302,2.4135,2.3767,2.3638,2.3595,2.361,2.3538,2.3363,2.3083,2.2949,2.2618,2.1983,2.1712,2.1264,2.0321,1.9965,1.9656,1.9239,1.8934,1.8667,1.8667,1.8614,1.8572,1.4114,0.0,1.4304,1.2051,0.0,0.9513,1.0562,1.1079,0.1748,-0.3488,-0.5157,-0.2199,-0.0904,-0.093,0.105,0.4173,0.8059,0.8912,1.1312,1.476,1.2917,1.1152,0.9526,0.7979,0.7026,0.6597,0.6233,0.6075,0.6121,0.6021,0.6075,0.6168,0.6075,0.6344,0.6969,0.7858,0.9279,1.124,1.2107,1.2783,1.3278,1.3619,1.3764,1.3629,1.3179,0.0,0.0,0.0,0.0,0.0,0.0,0.0,0.0,0.0,0.0,1.3892,1.4082,1.2593,0.9411,1.1403,1.4319,1.7671,1.7183,1.614,1.4843,1.5937,1.775,2.027,2.0506,2.0545,2.0599,2.096,2.1534,2.238,2.2851,2.34,2.4014,2.4147,2.4233,2.4344,2.3735,2.2807,2.1708,2.2202,2.2801,2.3203,2.3575,2.3902,2.4225,2.4302,2.4302,2.4276,2.4177,2.4009,2.3696,2.3595,2.3595,2.3595,2.3436,2.3172,2.2844,2.2723,2.2434,2.1841,2.1712,2.1471,2.0921,2.0271,1.9656,1.9146,1.8774,1.856,1.8398,1.841,1.8464,1.5061,1.5593,1.5829,1.4311,1.1725,1.1415,1.1735,1.1965,0.0,0.0,0.0,0.153,0.3288,0.3324,0.6185,0.9449,1.2666,1.1465,1.2234,1.4469,1.1608,0.9586,0.8264,0.6555,0.5583,0.5226,0.482,0.4736,0.4915,0.4985,0.5112,0.534,0.5435,0.5866,0.6587,0.7942,0.9341,1.0715,1.1794,1.253,1.2906,1.3328,1.3726,1.406,1.3637,1.3502,1.3636,1.2965,1.2704,1.2962,1.2953,1.3021,1.3173,1.1818,1.2277,1.5024,1.5365,1.417,1.1463,1.3155,1.5394,1.7819,1.8273,1.7701,1.5987,1.7155,1.8683,2.0354,1.9543,1.9667,2.174,2.1341,2.1561,2.2919,2.3884,2.4391,2.4464,2.4725,2.4862,2.467,2.4002,2.295,2.1589,2.2331,2.3063,2.3445,2.3946,2.4302,2.4302,2.4302,2.4302,2.4276,2.4151,2.3925,2.3696,2.3595,2.3595,2.3595,2.3334,2.2979,2.2649,2.2388,2.2049,2.1349,2.1411,2.1444,2.1313,2.056,1.9708,1.9093,1.8774,1.8506,1.8193,1.8247,1.8313,1.5838,1.6212,1.6754,1.4888,1.1576,1.1901,1.0423,0.7896,0.8894,0.8023,0.5774,0.4952,0.583,0.7857,0.8432,1.0201,1.2752,1.1433,1.1835,1.3431,1.063,0.8732,0.7652,0.5937,0.5087,0.4953,0.4832,0.4838,0.4992,0.5112,0.5271,0.546,0.5491,0.6037,0.7107,0.8217,0.9207,1.0146,1.1176,1.1993,1.2556,1.3123,1.3591,1.3892,1.3419,1.3269,1.3516,1.2895,1.29,1.3681,1.358,1.3915,1.4863,1.4593,1.4747,1.5255,1.5365,1.5171,1.4701,1.5024,1.5987,1.7777,1.9301,1.9409,1.7733,1.7755,1.8634,2.0064,1.5526,1.4895,1.9732,1.9019,1.9444,2.2552,2.3876,2.4648,2.5254,2.5229,2.5081,2.4904,2.4118,2.3021,2.1782,2.2916,2.3973,2.4122,2.422,2.4302,2.4302,2.4302,2.4302,2.4276,2.4151,2.3882,2.3653,2.3595,2.3595,2.3595,2.329,2.2875,2.2151,2.1941,2.1519,2.0448,2.0457,2.0784,2.1183,2.0709,1.9862,1.9146,1.8774,1.8506,1.8193,1.8139,1.8139,1.6401,1.6919,1.7342,1.6685,1.5354,1.6079,1.5528,1.4211,1.5347,1.29,0.8412,0.9375,1.0609,1.1817,1.3333,1.4301,1.483,1.3147,1.2358,1.2169,0.9878,0.8166,0.7039,0.5664,0.494,0.4844,0.4736,0.4806,0.4992,0.5176,0.5334,0.5522,0.5897,0.651,0.7365,0.8273,0.9153,0.997,1.0578,1.1379,1.2368,1.3071,1.3591,1.3856,1.3772,1.3875,1.4139,1.3923,1.4026,1.4532,1.4511,1.4719,1.5245,1.5248,1.5224,1.5284,1.5352,1.5379,1.5338,1.6502,1.7385,1.7874,1.7949,1.8435,1.928,1.9321,1.6882,1.1273,0.795,0.8773,1.4282,1.6709,1.8929,2.1064,2.3496,2.5166,2.5507,2.5431,2.5279,2.5116,2.4416,2.3241,2.1524,2.1935,2.2987,2.3927,2.4302,2.4302,2.4302,2.4302,2.4302,2.4276,2.4109,2.3925,2.3638,2.3595,2.3595,2.3595,2.329,2.2744,2.1897,2.1503,2.1015,2.0112,1.9248,1.9201,2.0435,2.0308,1.9617,1.9198,1.8774,1.8506,1.8193,1.8084,1.8084,1.6809,1.7455,1.7743,1.8208,1.8801,1.9593,2.0038,2.018,1.9902,1.6524,1.1834,1.4109,1.5287,1.5388,1.7259,1.7409,1.6157,1.4383,1.2705,1.1146,0.9243,0.7756,0.665,0.5566,0.4988,0.4979,0.489,0.4992,0.5246,0.5397,0.5585,0.5851,0.6557,0.7198,0.7771,0.8585,0.9379,1.0144,1.0396,1.1098,1.2273,1.3072,1.3589,1.3813,1.4101,1.4392,1.465,1.4823,1.4925,1.5049,1.5108,1.518,1.5251,1.521,1.5188,1.5204,1.5315,1.5345,1.5403,1.7399,1.845,1.7893,1.6673,1.6634,1.8159,1.8412,1.5385,0.756,0.4611,0.436,0.8293,1.3022,1.7163,1.9256,2.2335,2.4492,2.539,2.546,2.5403,2.5367,2.4815,2.3608,2.1811,2.0811,2.1512,2.3511,2.4087,2.4071,2.4071,2.4071,2.403,2.3974,2.3956,2.3925,2.3653,2.3595,2.3505,2.3385,2.3067,2.2382,2.1567,2.0983,2.0515,1.9753,1.8608,1.8193,1.9394,1.9687,1.9426,1.9251,1.8934,1.8506,1.8193,1.8084,1.8084,1.7084,1.7595,1.7936,1.8628,1.9482,1.9924,2.0138,2.0156,1.9903,1.94,1.811,1.8778,1.8476,1.8088,1.7635,1.6675,1.5251,1.3757,1.2113,1.0435,0.8849,0.7611,0.668,0.5607,0.5252,0.554,0.5648,0.5773,0.5928,0.6006,0.6267,0.6713,0.7482,0.8086,0.8546,0.9419,1.0194,1.0823,1.1015,1.1513,1.2273,1.3088,1.3591,1.3795,1.4011,1.4264,1.4592,1.4736,1.485,1.4912,1.498,1.5063,1.5196,1.5201,1.5089,1.4883,1.5139,1.5284,1.5362,1.7316,1.8339,1.7794,1.6534,1.483,1.2722,1.2215,1.4356,1.478,0.8267,0.3248,0.3677,0.7352,1.216,1.7356,1.9709,2.174,2.4627,2.538,2.5317,2.5633,2.5129,2.4006,2.1761,2.0827,2.1264,2.2963,2.3363,2.3394,2.3394,2.3329,2.3197,2.3142,2.3473,2.3791,2.3623,2.3595,2.3281,2.2682,2.2369,2.1869,2.1026,2.0455,1.9871,1.9509,1.9471,1.9111,1.8291,1.8232,1.9648,1.9643,1.9186,1.8506,1.8193,1.8084,1.8084,1.7345,1.7635,1.8031,1.8781,1.9679,2.0031,2.0146,2.0107,1.9817,1.9484,1.9072,1.877,1.8325,1.7728,1.6748,1.5423,1.3845,1.2378,1.0967,0.9589,0.8311,0.7482,0.6991,0.6127,0.5867,0.6236,0.6366,0.6557,0.6738,0.6969,0.7268,0.7666,0.8329,0.8939,0.9485,1.0205,1.0912,1.1571,1.16,1.2051,1.2899,1.3426,1.3756,1.3977,1.4136,1.4344,1.4635,1.4756,1.4849,1.4938,1.5018,1.5068,1.514,1.5176,1.5108,1.496,1.5114,1.5237,1.522,1.6952,1.7283,1.5643,1.4151,1.2736,1.1431,0.8254,0.7347,0.88,0.556,0.2729,0.3052,0.6173,0.9694,1.2855,1.6889,2.0542,2.2106,2.3745,2.4787,2.5206,2.4783,2.3548,2.1545,2.0662,2.0899,2.1932,2.2409,2.2686,2.2639,2.2615,2.2369,2.2078,2.2404,2.3035,2.3353,2.3595,2.3071,2.2207,2.1624,2.1072,2.0585,2.0552,2.0316,1.9409,1.9812,1.9898,1.9149,1.8287,1.8649,1.9302,1.9512,1.8732,1.8464,1.8247,1.8139,1.7529,1.7732,1.8268,1.9011,1.982,2.0061,2.0137,2.0012,1.963,1.9087,1.8408,1.7832,1.7087,1.6303,1.5505,1.4256,1.2607,1.123,1.0031,0.8974,0.8024,0.7496,0.7228,0.6659,0.6548,0.691,0.7227,0.7472,0.7618,0.8001,0.8329,0.8623,0.9218,0.9792,1.0352,1.0996,1.1636,1.2229,1.2204,1.2606,1.3456,1.386,1.4092,1.4154,1.4289,1.4471,1.4718,1.4794,1.4875,1.4989,1.5071,1.5085,1.5059,1.5133,1.5127,1.5053,1.5315,1.4955,1.4023,1.5833,1.5935,1.3518,1.1679,1.0961,1.0531,0.6166,0.3128,0.3601,0.3394,0.3394,0.3349,0.555,0.7632,0.9329,1.4878,1.8541,2.0169,2.2402,2.3995,2.4377,2.3896,2.2851,2.1142,2.0475,2.0613,2.1255,2.1732,2.1971,2.1911,2.1858,2.163,2.0941,2.116,2.1596,2.2379,2.2308,2.1994,2.157,2.0783,2.074,2.0177,2.0487,2.0837,2.0007,2.0106,1.9982,1.9643,1.8864,1.8244,1.9526,1.9823,1.9198,1.8881,1.8506,1.8302,1.7522,1.7893,1.8715,1.9395,1.9911,2.0048,2.0046,1.9894,1.9357,1.8463,1.7365,1.6602,1.5399,1.4105,1.4288,1.3431,1.1789,1.0602,0.9617,0.8734,0.8118,0.762,0.7232,0.7026,0.7166,0.753,0.8156,0.8495,0.8546,0.8923,0.9271,0.956,1.0169,1.0692,1.111,1.1764,1.2333,1.2716,1.282,1.3176,1.3835,1.4384,1.4508,1.4349,1.4426,1.4608,1.4766,1.4847,1.4944,1.4989,1.5078,1.5078,1.503,1.5078,1.509,1.5071,1.5619,1.4446,1.1795,1.3724,1.4375,1.1976,1.0009,0.9446,1.0644,0.6321,0.3705,0.4188,0.4626,0.4626,0.4148,0.4552,0.6305,0.9757,1.2649,1.6085,1.9717,2.1643,2.283,2.3087,2.2747,2.1874,2.0514,2.0304,2.0582,2.1008,2.1285,2.128,2.117,2.1096,2.0728,2.0195,1.9957,1.9891,1.9966,2.0468,2.0199,1.9901,2.0306,2.0563,2.023,1.9987,2.0294,2.0387,1.9908,1.9747,1.9866,1.9658,1.9126,1.9585,2.0194,1.9901,1.9146,1.8827,1.8614,1.7854,1.8422,1.9029,1.9575,2.0025,2.0157,1.9846,1.9191,1.873,1.7763,1.6589,1.59,1.4832,1.3398,1.3124,1.2276,1.0969,0.9954,0.9115,0.8377,0.7909,0.7723,0.7802,0.7917,0.8099,0.8326,0.8839,0.9209,0.9415,0.9754,1.0182,1.0559,1.1005,1.1424,1.1834,1.2376,1.2862,1.3261,1.3328,1.3663,1.4252,1.4648,1.4766,1.471,1.47,1.4776,1.4914,1.4973,1.5052,1.5114,1.5152,1.5152,1.5121,1.5106,1.5015,1.4785,1.3849,1.27,1.1731,1.248,1.2165,0.9918,0.9434,0.8454,0.7225,0.5246,0.4272,0.5101,0.575,0.6076,0.6277,0.5527,0.5881,0.8552,1.1993,1.514,1.7579,2.0179,2.2143,2.2491,2.1844,2.0766,2.0395,2.0216,2.0362,2.0476,2.0588,2.0584,2.0462,2.0354,2.0243,1.9888,1.9726,1.9705,1.9705,1.9735,1.9662,1.9487,1.9558,1.956,1.9353,1.9656,1.9976,1.9782,1.9391,1.9119,1.9149,1.9057,1.8747,1.9179,1.9747,1.9811,1.9368,1.9344,1.9081,1.8323,1.882,1.929,1.9724,2.0097,1.995,1.947,1.8729,1.8068,1.7032,1.5913,1.5326,1.4328,1.3015,1.2253,1.1482,1.0555,0.9603,0.8883,0.8453,0.8099,0.8117,0.8428,0.8706,0.8871,0.9066,0.9516,0.9906,1.0232,1.0596,1.1005,1.1468,1.1818,1.2151,1.2517,1.2955,1.3389,1.3733,1.3795,1.4042,1.4555,1.4839,1.4962,1.4961,1.4954,1.4988,1.5061,1.5121,1.5176,1.524,1.5241,1.5236,1.5224,1.5184,1.5042,1.4614,1.289,1.145,1.1115,1.1338,1.0505,0.8239,0.8525,0.7787,0.5466,0.4923,0.5313,0.6179,0.7014,0.7792,0.8237,0.7587,0.7348,0.8762,1.2075,1.492,1.6382,1.9186,2.1044,2.1585,2.1034,2.0342,2.0061,2.0146,2.0181,2.0115,2.022,2.02,2.0041,2.0005,1.9935,1.9762,1.9726,1.9705,1.9705,1.9705,1.969,1.9553,1.9211,1.9008,1.8959,1.9324,1.9362,1.914,1.8827,1.8525,1.8338,1.8246,1.8448,1.8722,1.9133,1.9291,1.9448,2.0016,1.9643,1.8929,1.907,1.9431,1.983,2.0075,1.9429,1.8971,1.8551,1.7428,1.6318,1.5304,1.4758,1.3847,1.2655,1.2009,1.1298,1.0726,0.9764,0.9178,0.9019,0.8828,0.886,0.9108,0.9295,0.952,0.9779,1.0269,1.0729,1.1088,1.1432,1.1797,1.2202,1.2574,1.2869,1.3093,1.3539,1.3917,1.4149,1.4186,1.4405,1.4773,1.5017,1.5111,1.5113,1.5197,1.5226,1.5201,1.5251,1.5287,1.5276,1.5283,1.5284,1.5284,1.5229,1.5062,1.4456,1.2909,1.1099,0.9638,1.0062,0.9403,0.7805,0.7504,0.7551,0.6787,0.6124,0.638,0.7523,0.8513,0.9341,0.9983,0.9925,0.9993,1.0576,1.3128,1.5242,1.6805,1.8753,2.0277,2.0431,2.0289,2.0235,2.0061,2.0041,2.0076,2.0096,2.0185,2.0235,2.0041,2.0005,1.9884,1.9777,1.9705,1.9705,1.9705,1.9705,1.969,1.9617,1.9191,1.8917,1.8843,1.9051,1.8879,1.8587,1.8049,1.7738,1.7293,1.7276,1.7509,1.7864,1.8322,1.9032,1.95,1.9914,2.0067,1.918,1.9302,1.9642,1.9975,2.0156,1.9407,1.8726,1.8033,1.6892,1.5797,1.4836,1.4369,1.3818,1.3143,1.2523,1.2055,1.1685,1.0931,1.0243,0.9713,0.9532,0.9612,0.9869,1.0095,1.0379,1.0758,1.1187,1.1556,1.1854,1.2198,1.2511,1.2881,1.321,1.3463,1.3708,1.4051,1.4338,1.4568,1.4563,1.4691,1.4993,1.519,1.5258,1.5167,1.5254,1.5292,1.526,1.5287,1.5292,1.529,1.5298,1.5299,1.5288,1.5275,1.4695,1.3496,1.2427,1.1168,0.9834,0.9006,0.859,0.807,0.8207,0.8417,0.8407,0.7841,0.7964,0.8967,0.9952,1.0771,1.1265,1.1333,1.1648,1.2535,1.4281,1.6035,1.7639,1.9251,2.0135,2.027,2.0061,1.9884,1.9848,1.9919,2.0041,2.0061,2.02,2.02,2.0061,1.999,1.9919,1.9726,1.9726,1.9705,1.9705,1.969,1.9654,1.9581,1.925,1.8874,1.8775,1.8625,1.8413,1.8028,1.7481,1.7012,1.6547,1.6426,1.675,1.7519,1.8403,1.8985,1.9438,1.9772,1.9965,1.9181,1.9132,1.9692,2.0084,2.0227,1.9482,1.8839,1.8205,1.7213,1.6139,1.5254,1.4869,1.4332,1.3695,1.3158,1.2785,1.2509,1.2033,1.1487,1.0957,1.0545,1.0556,1.0829,1.1158,1.1432,1.1716,1.2091,1.238,1.2627,1.2935,1.321,1.3484,1.3793,1.4051,1.4253,1.4502,1.4724,1.4908,1.4904,1.4986,1.5166,1.5329,1.5347,1.5262,1.527,1.5293,1.5291,1.5291,1.5272,1.5311,1.533,1.5331,1.5305,1.5246,1.46,1.3323,1.2422,1.1525,1.0369,0.9372,0.8678,0.8945,0.9159,0.9441,0.9664,0.9301,0.9408,1.0098,1.1271,1.2187,1.2519,1.2589,1.3204,1.4524,1.5319,1.6683,1.8403,1.9515,2.0061,2.0096,1.9904,1.9762,1.9777,1.9919,2.0076,2.0076,2.0131,2.02,2.0061,1.9955,1.9833,1.9726,1.9726,1.9705,1.9705,1.9654,1.9617,1.9472,1.9325,1.8988,1.874,1.843,1.818,1.7648,1.7141,1.6761,1.6318,1.6069,1.6236,1.7315,1.8509,1.9294,1.9875,1.9811,1.9965,1.8846,1.858,1.9516,2.0025,2.0165,1.95,1.908,1.8885,1.795,1.6881,1.6082,1.5611,1.5073,1.4265,1.3715,1.3422,1.3204,1.2857,1.2684,1.25,1.2053,1.1779,1.1923,1.2281,1.2528,1.2675,1.2921,1.316,1.3339,1.3589,1.386,1.4036,1.4301,1.4569,1.4709,1.4896,1.5053,1.5163,1.5171,1.5206,1.5284,1.5351,1.5358,1.5288,1.5268,1.5265,1.5242,1.5166,1.5181,1.5268,1.5293,1.5287,1.5256,1.5187,1.4549,1.3461,1.2887,1.1956,1.1088,1.0225,0.9912,0.9907,1.0014,1.0407,1.0641,1.0447,1.039,1.0937,1.2354,1.3475,1.3676,1.3703,1.4492,1.5935,1.6409,1.7444,1.9009,1.9581,1.9762,1.9919,1.9848,1.9741,1.9726,1.9955,2.0076,2.0076,2.0096,2.0096,2.0025,1.9919,1.9797,1.9726,1.9741,1.9705,1.9705,1.9705,1.9617,1.9435,1.9288,1.9064,1.8745,1.8411,1.8029,1.7475,1.706,1.665,1.6231,1.6025,1.6471,1.7671,1.877,1.9762,2.0297,2.036,2.0501,1.7374,1.7795,1.8774,1.9331,1.9481,1.9328,1.8886,1.8174,1.7326,1.6498,1.5555,1.5215,1.5001,1.455,1.4241,1.4036,1.3863,1.3614,1.3494,1.3496,1.3339,1.3093,1.3025,1.3192,1.3399,1.3534,1.3697,1.3886,1.4031,1.4156,1.4309,1.4435,1.4657,1.4852,1.4975,1.5089,1.5195,1.5257,1.5262,1.5271,1.5289,1.5309,1.531,1.5294,1.5202,1.513,1.5061,1.4912,1.4874,1.4993,1.5057,1.5063,1.4901,1.4509,1.3863,1.3022,1.236,1.1632,1.0801,1.0251,1.0164,1.0552,1.0506,1.0788,1.1659,1.1244,1.1217,1.1737,1.3067,1.4195,1.4501,1.4465,1.5123,1.6501,1.7483,1.8393,1.9096,1.9413,1.956,1.9741,1.9848,1.9833,1.9833,1.9844,2.003,2.001,1.998,2.003,1.9925,1.9884,1.9762,1.9726,1.9705,1.9705,1.9705,1.9705,1.9617,1.9435,1.925,1.9101,1.8798,1.8503,1.8055,1.7516,1.7393,1.706,1.6436,1.6013,1.7016,1.8033,1.9966,2.1299,2.1355,2.1459,2.1616,1.6269,1.7074,1.8371,1.9046,1.9244,1.9627,1.9313,1.8512,1.793,1.7019,1.6036,1.5631,1.5285,1.4857,1.4681,1.4558,1.4467,1.4277,1.4154,1.4134,1.4129,1.398,1.3821,1.3904,1.4057,1.4192,1.4342,1.4449,1.455,1.4625,1.4717,1.4799,1.4954,1.5082,1.5167,1.521,1.5254,1.5286,1.526,1.5247,1.5257,1.5248,1.5226,1.5201,1.5087,1.4971,1.4808,1.4622,1.4582,1.4682,1.4766,1.4719,1.45,1.391,1.3261,1.2569,1.2185,1.1674,1.1076,1.0696,1.0866,1.1189,1.102,1.1441,1.2118,1.1982,1.1737,1.2354,1.3589,1.4452,1.4989,1.5297,1.6047,1.7084,1.8361,1.9161,1.9288,1.9376,1.9487,1.969,1.9848,2.0025,1.9925,1.9817,1.9817,1.9823,1.9706,1.9778,1.9778,1.9767,1.9777,1.9741,1.9705,1.9705,1.9705,1.9705,1.9581,1.9398,1.9228,1.9064,1.8836,1.8581,1.8293,1.7882,1.772,1.7393,1.6808,1.656,1.7226,1.8701,2.1006,2.2143,2.207,2.2273,2.2459,1.5515,1.6336,1.8031,1.8823,1.8997,1.9824,1.9507,1.9005,1.8646,1.789,1.6754,1.6378,1.567,1.5125,1.4984,1.4955,1.4886,1.4709,1.465,1.461,1.4612,1.4516,1.4342,1.4426,1.4549,1.4653,1.4801,1.4847,1.491,1.4987,1.5052,1.5089,1.5167,1.5231,1.5252,1.5275,1.529,1.5232,1.5179,1.5153,1.5144,1.5138,1.5133,1.5075,1.4893,1.4701,1.4508,1.435,1.4277,1.4301,1.4407,1.4344,1.4087,1.3428,1.2904,1.2538,1.2257,1.1949,1.1563,1.1434,1.167,1.1825,1.1477,1.1763,1.2725,1.2626,1.2496,1.2988,1.394,1.4711,1.5398,1.6391,1.7117,1.7705,1.8729,1.9288,1.9376,1.9376,1.9487,1.9654,1.9884,2.0061,2.0047,1.974,1.9348,1.9262,1.9338,1.9693,1.9743,1.9732,1.9726,1.9741,1.9705,1.9705,1.9705,1.9705,1.9545,1.9362,1.9213,1.9064,1.8912,1.8683,1.8528,1.8335,1.8302,1.7963,1.7323,1.7431,1.7852,1.9057,2.1144,2.1874,2.2255,2.2733,2.3043,1.5185,1.5537,1.6652,1.7145,1.7382,1.8143,1.8085,1.7316,1.7281,1.6784,1.585,1.5588,1.5413,1.5177,1.5127,1.5054,1.5038,1.4912,1.4846,1.4856,1.4912,1.4933,1.4873,1.4885,1.4947,1.5036,1.5096,1.5113,1.5137,1.5145,1.5169,1.5175,1.5228,1.5241,1.5216,1.5218,1.5168,1.5094,1.5024,1.4934,1.4875,1.4882,1.4912,1.4909,1.4661,1.4426,1.4208,1.4069,1.3899,1.3824,1.3969,1.3987,1.3588,1.3016,1.2577,1.2359,1.2252,1.2012,1.166,1.1414,1.1486,1.208,1.1993,1.2183,1.3313,1.3331,1.3365,1.3769,1.4369,1.5096,1.6059,1.6874,1.7592,1.8268,1.9004,1.9538,1.9523,1.945,1.9523,1.969,1.9823,2.003,2.0177,1.9993,1.9492,1.887,1.9061,1.9632,1.9722,1.9711,1.9726,1.9705,1.9705,1.9705,1.969,1.9654,1.9472,1.9427,1.9322,1.9214,1.9046,1.9031,1.8973,1.8981,1.9014,1.8549,1.8097,1.8208,1.8658,1.9986,2.1216,2.198,2.2711,2.3155,2.3487,1.5196,1.5338,1.6258,1.6673,1.6838,1.7577,1.75,1.6812,1.6703,1.6196,1.5488,1.5313,1.5292,1.5287,1.5236,1.5187,1.513,1.5044,1.4999,1.5018,1.5064,1.5125,1.5183,1.5183,1.5177,1.5232,1.5247,1.5248,1.5254,1.5229,1.5212,1.5199,1.5221,1.5173,1.5146,1.5044,1.4768,1.4373,1.4311,1.423,1.4125,1.4172,1.442,1.4584,1.4469,1.4263,1.4091,1.3891,1.3682,1.3524,1.3572,1.3573,1.3261,1.2792,1.2419,1.2252,1.221,1.2054,1.1733,1.1617,1.1776,1.2414,1.2433,1.3006,1.3644,1.3881,1.3967,1.4227,1.463,1.5272,1.6456,1.7485,1.8101,1.8565,1.923,1.9617,1.9632,1.9596,1.9581,1.954,1.9176,1.8685,1.8602,1.9096,1.9336,1.8576,1.8797,1.9336,1.9737,1.9726,1.9726,1.9705,1.9705,1.969,1.969,1.9581,1.9398,1.9426,1.9531,1.9479,1.9409,1.9473,1.9589,1.9512,1.9446,1.953,1.9267,1.9376,1.9726,2.0918,2.1932,2.263,2.3013,2.3248,2.3703,1.5295,1.5373,1.6166,1.6508,1.6605,1.7245,1.7089,1.654,1.6511,1.6013,1.5496,1.5334,1.5336,1.536,1.5315,1.5271,1.5195,1.516,1.5136,1.5129,1.5184,1.5219,1.5282,1.5272,1.5254,1.529,1.5292,1.528,1.5277,1.5278,1.519,1.5159,1.5099,1.5031,1.4999,1.4722,1.4309,1.3741,1.3427,1.3344,1.3211,1.3281,1.3499,1.4013,1.4295,1.4181,1.3984,1.3776,1.3542,1.3295,1.3193,1.3105,1.2959,1.2694,1.2415,1.221,1.219,1.2012,1.1881,1.1904,1.2209,1.2761,1.3022,1.3481,1.406,1.4287,1.4388,1.4703,1.511,1.5963,1.6928,1.7817,1.8535,1.8922,1.9405,1.9645,1.9705,1.9705,1.9705,1.9585,1.9126,1.8555,1.7774,1.7731,1.8061,1.848,1.8744,1.9056,1.9471,1.9705,1.9705,1.9705,1.9705,1.9705,1.969,1.9545,1.9376,1.9418,1.958,1.9738,1.9767,1.9955,2.0002,1.9837,1.9782,1.9978,2.0273,2.0456,2.1004,2.1974,2.2292,2.2574,2.287,2.3221,2.3662,1.5283,1.5322,1.5532,1.5615,1.563,1.5796,1.5839,1.5644,1.5681,1.5561,1.5442,1.5381,1.5388,1.539,1.5341,1.5309,1.5272,1.5254,1.5238,1.5242,1.5271,1.5292,1.5284,1.5284,1.526,1.5242,1.5255,1.5241,1.5216,1.5146,1.5025,1.4942,1.4863,1.4816,1.4427,1.4064,1.3533,1.3058,1.2632,1.2465,1.2493,1.2316,1.2519,1.3208,1.3646,1.3841,1.3827,1.3632,1.3427,1.3227,1.3052,1.2887,1.2735,1.2459,1.2277,1.219,1.207,1.1912,1.1792,1.2029,1.2345,1.272,1.3152,1.3662,1.4206,1.4433,1.461,1.5191,1.616,1.747,1.8752,1.8762,1.8897,1.931,1.9555,1.9705,1.9705,1.9705,1.9705,1.963,1.9151,1.8572,1.7738,1.7334,1.7906,1.8597,1.909,1.9296,1.9591,1.9705,1.9705,1.9705,1.9705,1.9705,1.969,1.9523,1.9369,1.9395,1.9585,1.9969,2.0079,2.0355,2.0428,2.0486,2.0526,2.0695,2.1004,2.1313,2.1636,2.2114,2.2297,2.2376,2.2588,2.2875,2.308,1.5349,1.5349,1.5373,1.5409,1.5419,1.5406,1.5409,1.541,1.541,1.541,1.541,1.541,1.5406,1.5395,1.5323,1.529,1.5289,1.5285,1.5282,1.5296,1.5282,1.5257,1.5251,1.5252,1.5207,1.5166,1.5155,1.5155,1.5133,1.5035,1.4718,1.4268,1.4192,1.3933,1.344,1.2947,1.2502,1.2114,1.1663,1.1296,1.1177,1.0746,1.1141,1.2132,1.2464,1.2688,1.3104,1.2942,1.2957,1.3056,1.2942,1.2813,1.2678,1.2499,1.2257,1.2112,1.1927,1.1768,1.1807,1.2182,1.2685,1.2858,1.3477,1.408,1.4446,1.4637,1.4811,1.542,1.6556,1.8062,1.9322,1.9239,1.9349,1.9585,1.9705,1.9705,1.9705,1.9705,1.9705,1.9705,1.9465,1.8762,1.758,1.7509,1.8007,1.8639,1.9296,1.9546,1.9726,1.9705,1.9705,1.9705,1.9705,1.9705,1.9669,1.9487,1.9339,1.9365,1.9672,2.0056,2.0509,2.0841,2.121,2.1443,2.1513,2.1285,2.1566,2.1819,2.2044,2.217,2.224,2.2272,2.2297,2.2451,2.2701,1.5404,1.5418,1.542,1.5413,1.542,1.5406,1.5408,1.5409,1.541,1.541,1.541,1.5405,1.5383,1.5349,1.5326,1.529,1.5281,1.5271,1.5257,1.5222,1.5196,1.5154,1.5155,1.5145,1.5108,1.504,1.4996,1.4989,1.4954,1.4668,1.4189,1.3708,1.3402,1.291,1.2326,1.2004,1.1407,1.1022,1.0549,1.0096,0.9565,0.93,0.9785,1.1276,1.1099,1.1482,1.2126,1.2305,1.2438,1.2688,1.2791,1.2776,1.2773,1.2616,1.2318,1.197,1.1703,1.1615,1.1797,1.2438,1.2896,1.2899,1.3899,1.4457,1.4686,1.4794,1.4963,1.5469,1.6667,1.8149,1.9385,1.9617,1.9639,1.969,1.9705,1.9705,1.9705,1.9705,1.9705,1.9705,1.9705,1.9001,1.7819,1.8137,1.8695,1.8665,1.9276,1.9591,1.9705,1.9705,1.9705,1.9705,1.9705,1.9705,1.9632,1.945,1.9302,1.9197,1.973,2.0313,2.0881,2.1412,2.1721,2.1823,2.1851,2.1678,2.2016,2.217,2.217,2.217,2.217,2.2161,2.2166,2.2218,2.2444,1.541,1.542,1.5412,1.5407,1.5412,1.5421,1.5406,1.5407,1.5407,1.5409,1.541,1.5395,1.5326,1.5255,1.5278,1.5244,1.5207,1.5197,1.516,1.5112,1.505,1.5016,1.5004,1.4962,1.4931,1.4911,1.4849,1.4857,1.4734,1.4146,1.3607,1.3196,1.2557,1.2076,1.1623,1.1113,1.0821,1.0594,1.0024,0.9583,0.9347,0.9126,0.9615,1.0302,1.0852,1.1158,1.136,1.1625,1.1973,1.2124,1.2592,1.2778,1.2757,1.2616,1.2185,1.1811,1.1564,1.1526,1.1713,1.247,1.3079,1.3193,1.403,1.4561,1.4794,1.4904,1.5072,1.5326,1.6747,1.8201,1.9361,1.9675,1.969,1.969,1.9705,1.9705,1.9705,1.9705,1.9705,1.9705,1.9705,1.9031,1.8074,1.8747,1.9316,1.9211,1.9196,1.951,1.9705,1.9705,1.9705,1.9705,1.9654,1.9654,1.9508,1.9325,1.925,1.9101,1.9686,2.037,2.0696,2.1155,2.1735,2.1826,2.1851,2.1931,2.2086,2.217,2.217,2.217,2.217,2.2077,2.1963,2.2075,2.2123,1.5362,1.5387,1.5346,1.537,1.5416,1.5405,1.541,1.541,1.5412,1.542,1.5385,1.5307,1.524,1.5163,1.517,1.5139,1.5089,1.5042,1.4992,1.4946,1.4871,1.4811,1.4776,1.4738,1.4729,1.4728,1.4698,1.4666,1.4416,1.3858,1.3225,1.2509,1.1726,1.0958,1.0727,1.0195,0.9996,0.9852,0.9646,0.9421,0.9251,0.9095,0.9139,0.956,0.9892,1.0178,1.0481,1.0569,1.1183,1.1646,1.2421,1.2778,1.27,1.2483,1.2075,1.1645,1.1534,1.1663,1.2052,1.271,1.3118,1.3643,1.4308,1.4862,1.4935,1.4996,1.5209,1.5581,1.6873,1.822,1.9346,1.9675,1.9705,1.9705,1.9705,1.9705,1.9705,1.9705,1.9705,1.9705,1.966,1.9106,1.8717,1.9106,1.9525,1.9465,1.9405,1.957,1.9705,1.9705,1.9705,1.9705,1.9654,1.9617,1.9398,1.9176,1.9176,1.9136,1.9517,2.0045,2.0225,2.0642,2.1237,2.1727,2.1893,2.1974,2.2128,2.217,2.217,2.217,2.217,2.203,2.1888,2.1643,2.1668,1.5329,1.5359,1.5326,1.5332,1.5374,1.5385,1.5407,1.5407,1.5409,1.5397,1.5331,1.5214,1.5126,1.508,1.5064,1.5015,1.4938,1.4894,1.4813,1.4757,1.4698,1.4629,1.4587,1.4555,1.4537,1.4534,1.4508,1.4327,1.389,1.3311,1.2542,1.1925,1.0929,1.0159,0.9609,0.9447,0.9447,0.9409,0.9439,0.9329,0.9151,0.8964,0.8936,0.8959,0.8964,0.9067,0.9491,0.9752,1.0373,1.1221,1.2268,1.27,1.2659,1.2302,1.1927,1.1578,1.1504,1.1649,1.2125,1.2704,1.3412,1.4027,1.4614,1.5027,1.5013,1.5059,1.5255,1.5741,1.6936,1.8253,1.9301,1.969,1.9705,1.9705,1.9705,1.9705,1.9705,1.9705,1.9705,1.9705,1.9705,1.9705,1.945,1.9555,1.969,1.969,1.9705,1.9705,1.9705,1.9705,1.9705,1.9705,1.969,1.9581,1.9288,1.9101,1.9101,1.915,1.9479,1.9746,1.9912,2.0272,2.0812,2.1262,2.178,2.2016,2.217,2.217,2.217,2.217,2.217,2.203,2.1841,2.1568,2.1484,1.5291,1.5291,1.5295,1.529,1.5329,1.5387,1.5396,1.539,1.5413,1.5368,1.5244,1.5108,1.5015,1.4979,1.493,1.4876,1.4793,1.4747,1.4678,1.4598,1.4545,1.4478,1.4451,1.4416,1.4356,1.4308,1.4162,1.3715,1.3088,1.2297,1.196,1.1711,1.0345,0.9661,0.932,0.9245,0.9196,0.9194,0.9236,0.9214,0.9046,0.8903,0.8823,0.8788,0.8757,0.8747,0.8742,0.9218,0.9879,1.0687,1.1693,1.2478,1.236,1.206,1.1711,1.1556,1.1504,1.1591,1.1864,1.2668,1.341,1.4012,1.4601,1.5133,1.5074,1.5285,1.5536,1.6159,1.755,1.8388,1.9286,1.9705,1.9705,1.9705,1.9705,1.9705,1.9705,1.9705,1.9705,1.9705,1.9705,1.9705,1.9705,1.9705,1.9705,1.9705,1.9705,1.9705,1.9705,1.9705,1.9705,1.9705,1.9705,1.9545,1.9213,1.9101,1.9064,1.9026,1.9166,1.9366,1.9532,1.9975,2.0161,2.1078,2.158,2.1903,2.217,2.217,2.217,2.217,2.2123,2.203,2.1924,2.167,2.1743,1.5293,1.5289,1.5269,1.5259,1.5295,1.5323,1.5346,1.5342,1.5353,1.526,1.5108,1.4992,1.4895,1.4813,1.4747,1.4687,1.4616,1.456,1.4504,1.4428,1.4368,1.4368,1.4337,1.4268,1.4185,1.4025,1.365,1.3205,1.2714,1.16,1.1012,1.0511,0.9751,0.9412,0.9187,0.9116,0.905,0.9022,0.9054,0.9046,0.8947,0.8771,0.8689,0.8717,0.8673,0.8636,0.8652,0.8805,0.95,1.0304,1.0985,1.1568,1.2092,1.1811,1.1623,1.1555,1.1547,1.1576,1.1751,1.2661,1.3706,1.4645,1.5079,1.5253,1.5179,1.5359,1.6631,1.7605,1.8463,1.9151,1.9465,1.9705,1.9705,1.9705,1.9705,1.9705,1.9705,1.9705,1.9705,1.9705,1.9705,1.9705,1.9705,1.9705,1.9705,1.9705,1.9705,1.9705,1.969,1.9705,1.9705,1.969,1.9654,1.9508,1.9176,1.9101,1.9064,1.8988,1.895,1.9065,1.9205,1.8962,1.9359,2.04,2.1468,2.1931,2.217,2.217,2.217,2.217,2.217,2.2091,2.1931,2.1779,2.1793,1.5265,1.5269,1.5185,1.5201,1.527,1.527,1.5251,1.5265,1.5269,1.5152,1.4958,1.4857,1.4747,1.4637,1.4552,1.4504,1.4446,1.4375,1.4307,1.4257,1.4224,1.4221,1.4181,1.41,1.398,1.3754,1.3345,1.2903,1.2064,1.1053,1.0429,0.9921,0.9407,0.9144,0.9043,0.8964,0.8891,0.8863,0.8875,0.8891,0.8811,0.8689,0.8604,0.8657,0.8624,0.8599,0.8676,0.8879,0.9439,1.0081,1.061,1.1023,1.1459,1.1711,1.1548,1.1605,1.1794,1.1919,1.1969,1.3103,1.4268,1.5051,1.521,1.5268,1.5328,1.5506,1.6572,1.9076,1.9585,1.9705,1.9705,1.9705,1.9705,1.9705,1.9705,1.9705,1.9705,1.9705,1.9705,1.9705,1.9705,1.9705,1.9705,1.9705,1.9705,1.9705,1.9705,1.969,1.969,1.969,1.9654,1.9654,1.9617,1.9398,1.9176,1.9101,1.9078,1.9064,1.8988,1.8836,1.8835,1.8666,1.8925,1.9978,2.099,2.1847,2.217,2.217,2.217,2.217,2.217,2.2137,2.1977,2.1801,2.1551,1.5201,1.5197,1.5133,1.5151,1.519,1.521,1.5204,1.518,1.5189,1.5087,1.4879,1.4719,1.4595,1.4489,1.4392,1.4332,1.4301,1.4237,1.4198,1.4159,1.4046,1.4009,1.397,1.3915,1.3793,1.3717,1.326,1.2476,1.1428,1.094,1.0212,0.9457,0.9117,0.8936,0.8908,0.8771,0.8705,0.8705,0.8712,0.8729,0.8677,0.8616,0.8567,0.8571,0.8708,0.8718,0.8789,0.9257,0.9826,1.0378,1.0565,1.1047,1.1647,1.1593,1.1504,1.1533,1.2623,1.2623,1.1925,1.3992,1.4979,1.5255,1.5298,1.5298,1.5343,1.5653,1.666,1.9286,1.9705,1.9705,1.9705,1.9705,1.9705,1.9705,1.9705,1.9705,1.9705,1.9705,1.9705,1.9705,1.9705,1.9705,1.9705,1.9705,1.9705,1.9705,1.9705,1.969,1.969,1.9654,1.9632,1.9581,1.9545,1.9362,1.9176,1.9139,1.9116,1.9078,1.904,1.8927,1.8992,1.9117,1.9471,1.9908,2.0864,2.2016,2.217,2.217,2.217,2.217,2.217,2.2123,2.1996,2.1835,2.1588,1.5153,1.5073,1.5099,1.5106,1.5075,1.5114,1.5121,1.5056,1.5018,1.4917,1.4766,1.4678,1.4512,1.435,1.427,1.4206,1.4177,1.4109,1.4068,1.3991,1.3862,1.3786,1.3728,1.3669,1.3559,1.3291,1.2937,1.2552,1.1786,1.1081,1.0263,0.9518,0.9,0.8805,0.88,0.8757,0.8705,0.8705,0.8705,0.8681,0.862,0.8492,0.8428,0.8489,0.8834,0.8984,0.9051,0.9701,1.0285,1.0712,1.0841,1.1126,1.164,1.1586,1.1562,1.1809,1.274,1.3452,1.3469,1.4674,1.5211,1.5298,1.5298,1.5298,1.5298,1.5433,1.7077,1.8892,1.963,1.9705,1.9705,1.9705,1.9705,1.9705,1.9705,1.9705,1.9705,1.9705,1.9705,1.9705,1.9705,1.9705,1.9705,1.9705,1.9705,1.9705,1.9705,1.9705,1.969,1.9632,1.956,1.9487,1.9413,1.9288,1.9176,1.9139,1.9116,1.9116,1.9055,1.8993,1.9184,1.9409,1.9851,2.0218,2.1245,2.217,2.217,2.217,2.217,2.217,2.217,2.217,2.2091,2.1949,2.1712,1.5073,1.4984,1.5011,1.4995,1.4952,1.5034,1.5023,1.4912,1.4839,1.4747,1.4666,1.4574,1.4428,1.4245,1.4154,1.4114,1.4054,1.397,1.3897,1.3821,1.3682,1.3605,1.3526,1.3445,1.3396,1.3109,1.2807,1.239,1.1958,1.1063,1.0333,0.9736,0.9097,0.8812,0.8745,0.8717,0.8677,0.8665,0.8652,0.8608,0.8483,0.8385,0.8357,0.8667,0.8983,0.925,0.9655,1.0168,1.0705,1.0979,1.1161,1.1263,1.1598,1.166,1.1963,1.2754,1.351,1.4268,1.4674,1.4906,1.5284,1.5358,1.5328,1.5328,1.5328,1.5433,1.7122,1.8713,1.954,1.9705,1.9705,1.9705,1.972,1.972,1.975,1.9765,1.975,1.9765,1.972,1.972,1.9705,1.9705,1.9705,1.9705,1.9705,1.9705,1.9705,1.9705,1.9705,1.9596,1.9538,1.945,1.9339,1.9213,1.9139,1.9101,1.9116,1.9116,1.9093,1.9031,1.9185,1.9441,1.9989,2.0557,2.1304,2.1879,2.2146,2.217,2.217,2.217,2.217,2.217,2.217,2.203,2.1793,1.5019,1.4913,1.4904,1.4877,1.4822,1.4921,1.4902,1.4775,1.467,1.4585,1.4549,1.4332,1.4219,1.4185,1.406,1.3991,1.3952,1.3836,1.3763,1.3671,1.3527,1.3445,1.3379,1.3329,1.3261,1.3209,1.3023,1.2656,1.2108,1.1694,1.0982,1.0101,0.9445,0.9234,0.9134,0.9084,0.8923,0.8718,0.8592,0.8517,0.838,0.8387,0.859,0.8927,0.9233,0.9613,1.0086,1.0681,1.0963,1.1218,1.1437,1.164,1.1718,1.1608,1.3114,1.4427,1.5095,1.5139,1.5168,1.5269,1.5445,1.5563,1.5535,1.5432,1.5461,1.5741,1.7374,1.8787,1.9705,1.9705,1.9705,1.9735,1.975,1.9794,1.9854,1.9854,1.9839,1.9824,1.9779,1.9735,1.9705,1.9705,1.9705,1.9705,1.9705,1.9705,1.9705,1.9705,1.9669,1.9538,1.9465,1.9376,1.9265,1.9153,1.9116,1.9116,1.9116,1.9116,1.9116,1.9107,1.9262,1.9502,2.0098,2.0628,2.1151,2.1629,2.2048,2.217,2.217,2.217,2.217,2.217,2.217,2.2077,2.1888,1.4987,1.4895,1.4859,1.4804,1.4794,1.4736,1.4658,1.4569,1.4489,1.4409,1.4289,1.4245,1.4172,1.4123,1.3977,1.3906,1.3818,1.3731,1.3557,1.3445,1.3362,1.3261,1.3208,1.319,1.3138,1.3138,1.307,1.2986,1.2688,1.2339,1.1579,1.065,1.0192,1.0112,1.0041,1.0083,0.9405,0.8838,0.8643,0.8511,0.8641,0.8848,0.9042,0.9223,0.9808,1.0211,1.0632,1.1177,1.1422,1.1523,1.1599,1.1659,1.1637,1.1659,1.2623,1.4877,1.5269,1.5284,1.5298,1.5313,1.5503,1.5974,1.6153,1.5845,1.5874,1.648,1.7733,1.8937,1.9675,1.9705,1.9705,1.972,1.9944,2.0154,2.0213,2.0228,2.0228,2.0213,2.0124,1.9735,1.9705,1.9705,1.9705,1.9705,1.9705,1.9705,1.9705,1.9705,1.9669,1.9538,1.9428,1.9376,1.9213,1.9116,1.9116,1.9116,1.9116,1.9116,1.9116,1.913,1.9237,1.9526,2.0179,2.0784,2.1423,2.177,2.2132,2.217,2.217,2.217,2.217,2.217,2.217,2.2077,2.1983,1.4895,1.4869,1.4813,1.4765,1.4677,1.4571,1.4474,1.4404,1.4326,1.4257,1.4172,1.4083,1.4046,1.3984,1.388,1.3789,1.3713,1.3589,1.3445,1.3312,1.3209,1.3173,1.3119,1.3084,1.3102,1.3084,1.3084,1.3051,1.2902,1.2338,1.1597,1.1301,1.1055,1.0813,1.0637,1.0414,1.0079,0.9374,0.8895,0.8724,0.9019,0.9439,0.9478,0.9761,1.0466,1.0707,1.1047,1.1556,1.1623,1.1719,1.1696,1.1784,1.2024,1.24,1.3266,1.521,1.5298,1.5298,1.5342,1.5572,1.5927,1.643,1.6951,1.6954,1.6823,1.7183,1.8291,1.9346,1.9555,1.9705,1.9705,1.9765,2.0198,2.0617,2.0647,2.0677,2.0677,2.0677,2.0318,1.9839,1.9705,1.9705,1.9705,1.9705,1.9705,1.9705,1.9705,1.9705,1.9669,1.9596,1.9487,1.9413,1.9265,1.9116,1.9116,1.9116,1.9116,1.9116,1.9116,1.9145,1.9194,1.9556,2.0128,2.0897,2.1737,2.1985,2.2217,2.217,2.217,2.217,2.217,2.217,2.217,2.217,2.2077,1.4793,1.4783,1.4764,1.4674,1.4489,1.4409,1.4332,1.4206,1.418,1.415,1.4037,1.3934,1.388,1.3838,1.3731,1.3652,1.3557,1.3445,1.3329,1.3209,1.319,1.3136,1.3102,1.3084,1.3084,1.3084,1.3084,1.3084,1.2866,1.2451,1.2054,1.1823,1.1285,1.1058,1.1088,1.1006,1.0828,1.062,0.9876,0.9484,0.9749,0.9958,1.0107,1.049,1.0722,1.0893,1.13,1.1504,1.1518,1.1728,1.1916,1.2056,1.2681,1.3673,1.4834,1.5181,1.5298,1.5574,1.5705,1.5966,1.6398,1.7022,1.7737,1.8015,1.8004,1.8022,1.8986,1.942,1.966,1.9705,1.9705,1.9989,2.0408,2.0946,2.1231,2.1171,2.1081,2.0797,2.0139,1.9765,1.9705,1.9705,1.9705,1.9705,1.9705,1.9705,1.9705,1.9705,1.9705,1.9632,1.956,1.9487,1.9339,1.9191,1.9116,1.9116,1.9116,1.9116,1.9159,1.9304,1.9493,1.9754,2.0059,2.1254,2.2469,2.2215,2.2217,2.2217,2.217,2.217,2.217,2.217,2.217,2.217,2.217,1.4643,1.4632,1.4592,1.4501,1.4409,1.4302,1.4245,1.418,1.4033,1.3934,1.388,1.3789,1.3731,1.3669,1.3592,1.3494,1.3395,1.3329,1.3209,1.3156,1.3136,1.3118,1.3084,1.3084,1.3084,1.3084,1.3084,1.3031,1.2877,1.2622,1.2482,1.2375,1.1947,1.1809,1.1825,1.1809,1.1777,1.1693,1.1336,1.0512,1.0272,1.0768,1.1123,1.1028,1.0986,1.1256,1.1547,1.1547,1.18,1.2134,1.227,1.257,1.3016,1.45,1.5182,1.5313,1.5371,1.585,1.6361,1.6611,1.6943,1.7692,1.8397,1.8793,1.9041,1.9166,1.9301,1.9555,1.9705,1.9705,1.9794,2.0183,2.0647,2.1231,2.1769,2.1605,2.144,2.0737,2.0004,1.9809,1.972,1.9705,1.9705,1.9705,1.9705,1.9705,1.9705,1.9705,1.9705,1.9669,1.9632,1.956,1.945,1.9339,1.9228,1.9188,1.9232,1.9304,1.9377,1.9551,1.9841,2.0553,2.128,2.2394,2.3206,2.2994,2.2668,2.2245,2.2184,2.217,2.217,2.217,2.217,2.217,2.217,1.4458,1.4446,1.4428,1.4374,1.4302,1.4232,1.4185,1.4119,1.397,1.3821,1.3696,1.3669,1.3608,1.3528,1.3446,1.3362,1.3261,1.3226,1.3173,1.3119,1.3084,1.3084,1.3084,1.3084,1.3013,1.3013,1.3013,1.2942,1.2834,1.2724,1.2614,1.251,1.2427,1.2383,1.2403,1.2463,1.2518,1.2503,1.2443,1.1894,1.0977,1.1337,1.1526,1.1327,1.138,1.1643,1.1902,1.1974,1.2352,1.2686,1.2874,1.3513,1.405,1.4921,1.5255,1.5443,1.5719,1.6288,1.6994,1.7426,1.7611,1.8332,1.8951,1.9319,1.9435,1.948,1.948,1.9705,1.9705,1.9705,1.9705,1.9974,2.0677,2.1321,2.1695,2.1784,2.1395,2.0812,2.0183,1.975,1.9705,1.9705,1.9705,1.9705,1.9705,1.9705,1.9705,1.9794,1.9779,1.9839,1.9773,1.9662,1.9604,1.9465,1.9302,1.9336,1.9435,1.9508,1.9798,2.0538,2.1235,2.1902,2.2671,2.3623,2.411,2.3842,2.3455,2.272,2.2273,2.217,2.217,2.217,2.217,2.217,2.217,1.4281,1.4306,1.4301,1.4257,1.4206,1.4185,1.4132,1.4068,1.393,1.3746,1.3589,1.3577,1.3479,1.3379,1.3312,1.3244,1.3209,1.319,1.3136,1.3118,1.3084,1.3084,1.3066,1.3031,1.2977,1.2906,1.2887,1.2832,1.2741,1.2646,1.2526,1.2363,1.2262,1.2179,1.2302,1.2439,1.2518,1.26,1.2585,1.2546,1.2184,1.1876,1.1723,1.1666,1.1747,1.194,1.2299,1.2733,1.3078,1.3411,1.3685,1.4239,1.4703,1.5197,1.5226,1.5443,1.6055,1.6866,1.7665,1.8111,1.8372,1.8832,1.9358,1.9603,1.969,1.9705,1.9705,1.9705,1.9705,1.9705,1.9705,1.9974,2.0707,2.1425,2.1739,2.2054,2.1575,2.1096,2.0572,2.0034,1.9899,1.9899,1.9705,1.9705,1.9794,1.9779,1.9839,1.9884,1.9974,2.0094,2.0139,1.9922,1.9803,1.9664,1.9443,1.9397,1.942,2.0596,2.1061,2.183,2.254,2.3062,2.3804,2.4747,2.5032,2.4543,2.3817,2.3036,2.2644,2.224,2.217,2.217,2.217,2.217,2.217,1.4203,1.4293,1.4255,1.4229,1.4185,1.4105,1.4023,1.3984,1.3821,1.3653,1.3579,1.3413,1.3278,1.3172,1.3137,1.3121,1.3138,1.3136,1.3136,1.3084,1.3084,1.3084,1.3048,1.2942,1.2904,1.285,1.2813,1.2741,1.2703,1.2588,1.2427,1.2241,1.1976,1.2012,1.2236,1.2363,1.2506,1.2604,1.2716,1.2697,1.2441,1.2115,1.1826,1.1911,1.2205,1.2323,1.2632,1.3298,1.3774,1.4195,1.4558,1.4935,1.5139,1.5298,1.5298,1.5692,1.6337,1.7621,1.8411,1.8643,1.8891,1.9239,1.9617,1.9654,1.9705,1.9705,1.9705,1.9705,1.9705,1.9705,1.9765,2.0154,2.0782,2.156,2.2069,2.2398,2.2338,2.1934,2.15,2.1006,2.0632,2.0258,1.9705,1.9869,2.0228,2.0288,2.0498,2.0572,2.0767,2.0662,2.0528,2.0183,1.9944,1.97,1.9413,1.9272,1.9537,2.0959,2.2352,2.3209,2.3847,2.4119,2.4892,2.5618,2.5473,2.4924,2.4181,2.3524,2.2814,2.2409,2.224,2.217,2.2198,2.217,2.217]}]]